[[{"header":{"parameterUnit":"m.s-1","parameterCategory":1,"la1":30.6,"la2":28.766,"lo1":-90.7593,"lo2":-88.6598,"dy":0.0162,"dx":0.0183,"nx":116,"ny":114,"refTime":"2024-04-06T12:00:00:Z","depth":0,"parameterNumber":2,"parameterNumberName":"U-component_of_WINDS"},"data":[0.0,0.0,0.0,0.0,0.0,0.0,0.0,0.0,0.0,0.0,0.0,0.0,0.0,0.0,0.0,0.0,0.0,0.0,0.0,0.0,0.0,0.0,0.0,0.0,0.0,0.0,0.0,0.0,0.0,0.0,0.0,0.0,0.0,0.0,0.0,0.0,0.0,0.0,0.0,0.0,0.0,0.0,0.0,0.0,0.0,0.0,0.0,0.0,0.0,0.0,0.0,0.0,0.0,0.0,0.0,0.0,0.0,0.0,0.0,0.0,0.0,0.0,0.0,0.0,0.0,0.0,0.0,0.0,0.0,0.0,0.0,0.0,0.0,0.0,0.0,0.0,0.0,0.0,0.0,0.0,0.0,0.0,0.0,0.0,0.0,0.0,0.0,0.0,0.0,0.0,0.0,0.0,0.0,0.0,0.0,0.0,0.0,0.0,0.0,0.0,0.0,0.0,0.0,0.0,0.0,0.0,0.0,0.0,0.0,0.0,0.0,0.0,0.0,0.0,0.0,0.0,0.0,0.0,0.0,0.0,0.0,0.0,0.0,0.0,0.0,0.0,0.0,0.0,0.0,0.0,0.0,0.0,0.0,0.0,0.0,0.0,0.0,0.0,0.0,0.0,0.0,0.0,0.0,0.0,0.0,0.0,0.0,0.0,0.0,0.0,0.0,0.0,0.0,0.0,0.0,0.0,0.0,0.0,0.0,0.0,0.0,0.0,0.0,0.0,0.0,0.0,0.0,0.0,0.0,0.0,0.0,0.0,0.0,0.0,0.0,0.0,0.0,0.0,0.0,0.0,0.0,0.0,0.0,0.0,0.0,0.0,0.0,0.0,0.0,0.0,0.0,0.0,0.0,0.0,0.0,0.0,0.0,0.0,0.0,0.0,0.0,0.0,0.0,0.0,0.0,0.0,0.0,0.0,0.0,0.0,0.0,0.0,0.0,0.0,0.0,0.0,0.0,0.0,0.0,0.0,0.0,0.0,0.0,0.0,0.0,0.0,0.0,0.0,0.0,0.0,0.0,0.0,0.0,0.0,0.0,0.0,0.0,0.0,0.0,0.0,0.0,0.0,0.0,0.0,0.0,0.0,0.0,0.0,0.0,0.0,0.0,0.0,0.0,0.0,0.0,0.0,0.0,0.0,0.0,0.0,0.0,0.0,0.0,0.0,0.0,0.0,0.0,0.0,0.0,0.0,0.0,0.0,0.0,0.0,0.0,0.0,0.0,0.0,0.0,0.0,0.0,0.0,0.0,0.0,0.0,0.0,0.0,0.0,0.0,0.0,0.0,0.0,0.0,0.0,0.0,0.0,0.0,0.0,0.0,0.0,0.0,0.0,0.0,0.0,0.0,0.0,0.0,0.0,0.0,0.0,0.0,0.0,0.0,0.0,0.0,0.0,0.0,0.0,0.0,0.0,0.0,0.0,0.0,0.0,0.0,0.0,0.0,0.0,0.0,0.0,0.0,0.0,0.0,0.0,0.0,0.0,0.0,0.0,0.0,0.0,0.0,0.0,0.0,0.0,0.0,0.0,0.0,0.0,0.0,0.0,0.0,0.0,0.0,0.0,0.0,0.0,0.0,0.0,0.0,0.0,0.0,0.0,0.0,0.0,0.0,0.0,0.0,0.0,0.0,0.0,0.0,0.0,0.0,0.0,0.0,0.0,0.0,0.0,0.0,0.0,0.0,0.0,0.0,0.0,0.0,0.0,0.0,0.0,0.0,0.0,0.0,0.0,0.0,0.0,0.0,0.0,0.0,0.0,0.0,0.0,0.0,0.0,0.0,0.0,0.0,0.0,0.0,0.0,0.0,0.0,0.0,0.0,0.0,0.0,0.0,0.0,0.0,0.0,0.0,0.0,0.0,0.0,0.0,0.0,0.0,0.0,0.0,0.0,0.0,0.0,0.0,0.0,0.0,0.0,0.0,0.0,0.0,0.0,0.0,0.0,0.0,0.0,0.0,0.0,0.0,0.0,0.0,0.0,0.0,0.0,0.0,0.0,0.0,0.0,0.0,0.0,0.0,0.0,0.0,0.0,0.0,0.0,0.0,0.0,0.0,0.0,0.0,0.0,0.0,0.0,0.0,0.0,0.0,0.0,0.0,0.0,0.0,0.0,0.0,0.0,0.0,0.0,0.0,0.0,0.0,0.0,0.0,0.0,0.0,0.0,0.0,0.0,0.0,0.0,0.0,0.0,0.0,0.0,0.0,0.0,0.0,0.0,0.0,0.0,0.0,0.0,0.0,0.0,0.0,0.0,0.0,0.0,0.0,0.0,0.0,0.0,0.0,0.0,0.0,0.0,0.0,0.0,0.0,0.0,0.0,0.0,0.0,0.0,0.0,0.0,0.0,0.0,0.0,0.0,0.0,0.0,0.0,0.0,0.0,0.0,0.0,0.0,0.0,0.0,0.0,0.0,0.0,0.0,0.0,0.0,0.0,0.0,0.0,0.0,0.0,0.0,0.0,0.0,0.0,0.0,0.0,0.0,0.0,0.0,0.0,0.0,0.0,0.0,0.0,0.0,0.0,0.0,0.0,0.0,0.0,0.0,0.0,0.0,0.0,0.0,0.0,0.0,0.0,0.0,0.0,0.0,0.0,0.0,0.0,0.0,0.0,0.0,0.0,0.0,0.0,0.0,0.0,0.0,0.0,0.0,0.0,0.0,0.0,0.0,0.0,0.0,0.0,0.0,0.0,0.0,0.0,0.0,0.0,0.0,0.0,0.0,0.0,0.0,0.0,0.0,0.0,0.0,0.0,0.0,0.0,0.0,0.0,0.0,0.0,0.0,0.0,0.0,0.0,0.0,0.0,0.0,0.0,0.0,0.0,0.0,0.0,0.0,0.0,0.0,0.0,0.0,0.0,0.0,0.0,0.0,0.0,0.0,0.0,0.0,0.0,0.0,0.0,0.0,0.0,0.0,0.0,0.0,0.0,0.0,0.0,0.0,0.0,0.0,0.0,0.0,0.0,0.0,0.0,0.0,0.0,0.0,0.0,0.0,0.0,0.0,0.0,0.0,0.0,0.0,0.0,0.0,0.0,0.0,0.0,0.0,0.0,0.0,0.0,0.0,0.0,0.0,0.0,0.0,0.0,0.0,0.0,0.0,0.0,0.0,0.0,0.0,0.0,0.0,0.0,0.0,0.0,0.0,0.0,0.0,0.0,0.0,0.0,0.0,0.0,0.0,0.0,0.0,0.0,0.0,0.0,0.0,0.0,0.0,0.0,0.0,0.0,0.0,0.0,0.0,0.0,0.0,0.0,0.0,0.0,0.0,0.0,0.0,0.0,0.0,0.0,0.0,0.0,0.0,0.0,0.0,0.0,0.0,0.0,0.0,0.0,0.0,0.0,0.0,0.0,0.0,0.0,0.0,0.0,0.0,0.0,0.0,0.0,0.0,0.0,0.0,0.0,0.0,0.0,0.0,0.0,0.0,0.0,0.0,0.0,0.0,0.0,0.0,0.0,0.0,0.0,0.0,0.0,0.0,0.0,0.0,0.0,0.0,0.0,0.0,0.0,0.0,0.0,0.0,0.0,0.0,0.0,0.0,0.0,0.0,0.0,0.0,0.0,0.0,0.0,0.0,0.0,0.0,0.0,0.0,0.0,0.0,0.0,0.0,0.0,0.0,0.0,0.0,0.0,0.0,0.0,0.0,0.0,0.0,0.0,0.0,0.0,0.0,0.0,0.0,0.0,0.0,0.0,0.0,0.0,0.0,0.0,0.0,0.0,0.0,0.0,0.0,0.0,0.0,0.0,0.0,0.0,0.0,0.0,0.0,0.0,0.0,0.0,0.0,0.0,0.0,0.0,0.0,0.0,0.0,0.0,0.0,0.0,0.0,0.0,0.0,0.0,0.0,0.0,0.0,0.0,0.0,0.0,0.0,0.0,0.0,0.0,0.0,0.0,0.0,0.0,0.0,0.0,0.0,0.0,0.0,0.0,0.0,0.0,0.0,0.0,0.0,0.0,0.0,0.0,0.0,0.0,0.0,0.0,0.0,0.0,0.0,0.0,0.0,0.0,0.0,0.0,0.0,0.0,0.0,0.0,0.0,0.0,0.0,0.0,0.0,0.0,0.0,0.0,0.0,0.0,0.0,0.0,0.0,0.0,0.0,0.0,0.0,0.0,0.0,0.0,0.0,0.0,0.0,0.0,0.0,0.0,0.0,0.0,0.0,0.0,0.0,0.0,0.0,0.0,0.0,0.0,0.0,0.0,0.0,0.0,0.0,0.0,0.0,0.0,0.0,0.0,0.0,0.0,0.0,0.0,0.0,0.0,0.0,0.0,0.0,0.0,0.0,0.0,0.0,0.0,0.0,0.0,0.0,0.0,0.0,0.0,0.0,0.0,0.0,0.0,0.0,0.0,0.0,0.0,0.0,0.0,0.0,0.0,0.0,0.0,0.0,0.0,0.0,0.0,0.0,0.0,0.0,0.0,0.0,0.0,0.0,0.0,0.0,0.0,0.0,0.0,0.0,0.0,0.0,0.0,0.0,0.0,0.0,0.0,0.0,0.0,0.0,0.0,0.0,0.0,0.0,0.0,0.0,0.0,0.0,0.0,0.0,0.0,0.0,0.0,0.0,0.0,0.0,0.0,0.0,0.0,0.0,0.0,0.0,0.0,0.0,0.0,0.0,0.0,0.0,0.0,0.0,0.0,0.0,0.0,0.0,0.0,0.0,0.0,0.0,0.0,0.0,0.0,0.0,0.0,0.0,0.0,0.0,0.0,0.0,0.0,0.0,0.0,0.0,0.0,0.0,0.0,0.0,0.0,0.0,0.0,0.0,0.0,0.0,0.0,0.0,0.0,0.0,0.0,0.0,0.0,0.0,0.0,0.0,0.0,0.0,0.0,0.0,0.0,0.0,0.0,0.0,0.0,0.0,0.0,0.0,0.0,0.0,0.0,0.0,0.0,0.0,0.0,0.0,0.0,0.0,0.0,0.0,0.0,0.0,0.0,0.0,0.0,0.0,0.0,0.0,0.0,0.0,0.0,0.0,0.0,0.0,0.0,0.0,0.0,0.0,0.0,0.0,0.0,0.0,0.0,0.0,0.0,0.0,0.0,0.0,0.0,0.0,0.0,0.0,0.0,0.0,0.0,0.0,0.0,0.0,0.0,0.0,0.0,0.0,0.0,0.0,0.0,0.0,0.0,0.0,0.0,0.0,0.0,0.0,0.0,0.0,0.0,0.0,0.0,0.0,0.0,0.0,0.0,0.0,0.0,0.0,0.0,0.0,0.0,0.0,0.0,0.0,0.0,0.0,0.0,0.0,0.0,0.0,0.0,0.0,0.0,0.0,0.0,0.0,0.0,0.0,0.0,0.0,0.0,0.0,0.0,0.0,0.0,0.0,0.0,0.0,0.0,0.0,0.0,0.0,0.0,0.0,0.0,0.0,0.0,0.0,0.0,0.0,0.0,0.0,0.0,0.0,0.0,0.0,0.0,0.0,0.0,0.0,0.0,0.0,0.0,0.0,0.0,0.0,0.0,0.0,0.0,0.0,0.0,0.0,0.0,0.0,0.0,0.0,0.0,0.0,0.0,0.0,0.0,0.0,0.0,0.0,0.0,0.0,0.0,0.0,0.0,0.0,0.0,0.0,0.0,0.0,0.0,0.0,0.0,0.0,0.0,0.0,0.0,0.0,0.0,0.0,0.0,0.0,0.0,0.0,0.0,0.0,0.0,0.0,0.0,0.0,0.0,0.0,0.0,0.0,0.0,0.0,0.0,0.0,0.0,0.0,0.0,0.0,0.0,0.0,0.0,0.0,0.0,0.0,0.0,0.0,0.0,0.0,0.0,0.0,0.0,0.0,0.0,0.0,0.0,0.0,0.0,0.0,0.0,0.0,0.0,0.0,0.0,0.0,0.0,0.0,0.0,0.0,0.0,0.0,0.0,0.0,0.0,0.0,0.0,0.0,0.0,0.0,0.0,0.0,0.0,0.0,0.0,0.0,0.0,0.0,0.0,0.0,0.0,0.0,0.0,0.0,0.0,0.0,0.0,0.0,0.0,0.0,0.0,0.0,0.0,0.0,0.0,0.0,0.0,0.0,0.0,0.0,0.0,0.0,0.0,0.0,0.0,0.0,0.0,0.0,0.0,0.0,-4.2709,-4.1977,0.0,0.0,0.0,0.0,0.0,0.0,0.0,0.0,0.0,0.0,0.0,0.0,0.0,0.0,0.0,0.0,0.0,0.0,0.0,0.0,0.0,0.0,0.0,-4.9714,-4.9897,-4.9897,-4.9897,-5.0002,-5.0315,-5.0315,0.0,0.0,0.0,0.0,-5.1126,-5.0864,-5.0995,-5.157,-5.1596,-5.1753,-5.204,-5.1439,-5.0995,-5.0707,0.0,0.0,0.0,0.0,0.0,0.0,0.0,0.0,0.0,0.0,0.0,0.0,0.0,0.0,0.0,0.0,0.0,0.0,0.0,0.0,0.0,0.0,0.0,0.0,0.0,0.0,0.0,0.0,0.0,0.0,0.0,0.0,0.0,0.0,0.0,0.0,0.0,0.0,0.0,0.0,0.0,0.0,0.0,0.0,0.0,0.0,0.0,0.0,0.0,0.0,0.0,0.0,0.0,0.0,0.0,0.0,0.0,0.0,0.0,0.0,0.0,0.0,0.0,0.0,0.0,0.0,0.0,0.0,0.0,0.0,-4.5846,-4.4068,0.0,0.0,0.0,0.0,0.0,0.0,0.0,0.0,0.0,0.0,0.0,0.0,0.0,0.0,0.0,0.0,0.0,0.0,0.0,0.0,0.0,-4.9584,-5.0132,-5.0289,-5.0394,-5.0498,-5.0498,-5.0707,-5.1204,-5.1256,-5.1439,-5.1884,-5.191,-5.2145,-5.2642,-5.2171,-5.2406,-5.34,-5.34,-5.3792,-5.4602,-5.4785,-5.4367,-5.3373,-5.2354,0.0,0.0,0.0,0.0,0.0,0.0,0.0,0.0,0.0,0.0,0.0,0.0,0.0,0.0,0.0,0.0,0.0,0.0,0.0,0.0,0.0,0.0,0.0,0.0,0.0,0.0,0.0,0.0,0.0,0.0,0.0,0.0,0.0,0.0,0.0,0.0,0.0,0.0,0.0,0.0,0.0,0.0,0.0,0.0,0.0,0.0,0.0,0.0,0.0,0.0,0.0,0.0,0.0,0.0,0.0,0.0,0.0,0.0,0.0,0.0,0.0,0.0,0.0,-5.2302,-5.3191,-5.4288,-5.4288,-5.4576,-5.4863,-5.0577,-4.7937,-4.6604,-4.5611,0.0,0.0,0.0,0.0,0.0,0.0,0.0,0.0,0.0,0.0,0.0,0.0,0.0,0.0,0.0,0.0,0.0,0.0,0.0,-5.076,-5.1309,-5.1831,-5.2354,-5.2877,-5.2929,-5.2955,-5.3034,-5.306,-5.3086,-5.3164,-5.3164,-5.3191,-5.3269,-5.3191,-5.3243,-5.34,-5.5804,-5.7791,-5.9333,-6.0378,-6.0744,-6.0378,-5.5386,-5.3922,-5.5072,0.0,0.0,0.0,0.0,0.0,0.0,0.0,0.0,0.0,0.0,0.0,0.0,0.0,0.0,0.0,0.0,0.0,0.0,0.0,0.0,0.0,0.0,0.0,0.0,0.0,0.0,0.0,0.0,0.0,0.0,0.0,0.0,0.0,0.0,0.0,0.0,0.0,0.0,0.0,0.0,0.0,-4.3363,-4.2866,0.0,0.0,0.0,0.0,0.0,0.0,0.0,0.0,0.0,0.0,0.0,0.0,0.0,-5.0551,-5.1701,-5.4759,-5.5935,-5.5282,-5.8314,-5.9072,-5.7843,-5.7843,-5.8157,-5.8653,-5.7948,0.0,-5.0603,-4.8041,0.0,0.0,0.0,0.0,0.0,0.0,0.0,0.0,0.0,0.0,0.0,0.0,0.0,0.0,0.0,0.0,0.0,0.0,0.0,0.0,0.0,-5.3217,-5.3818,-5.3426,-5.5465,-5.5935,-5.3975,-5.536,-5.57,-5.4419,-5.4367,-5.4367,-5.4367,-5.4367,-5.5308,-5.7242,-5.9464,-6.145,-6.3123,-6.3646,-6.3881,-6.3776,-6.1267,-5.8915,-5.6798,-5.5203,0.0,0.0,0.0,0.0,0.0,0.0,0.0,0.0,0.0,0.0,0.0,0.0,0.0,0.0,0.0,0.0,0.0,0.0,0.0,0.0,0.0,0.0,0.0,0.0,0.0,0.0,0.0,0.0,0.0,0.0,0.0,0.0,0.0,0.0,0.0,0.0,0.0,0.0,0.0,-4.4513,-4.5349,-4.4121,-4.5349,-4.5323,0.0,0.0,0.0,0.0,0.0,0.0,0.0,0.0,0.0,-5.1988,-5.3452,-5.4863,-5.6353,-5.8523,-5.9986,-6.0771,-6.2313,-6.3149,-6.3332,-6.3332,-6.3306,-6.3254,-6.3254,-6.1215,-5.7582,-5.3426,-5.0315,-4.7885,0.0,0.0,0.0,0.0,-4.4591,-4.5245,0.0,0.0,0.0,0.0,0.0,0.0,0.0,0.0,0.0,0.0,0.0,0.0,-5.3269,-5.4942,-5.5883,-5.5621,-5.7895,-5.8392,-5.6118,-5.7033,-5.7007,-5.5595,-5.5255,-5.5099,-5.5099,-5.5961,-5.8026,-6.1319,-6.3515,-6.5475,-6.7148,-6.7462,-6.7592,-6.7566,-6.7279,-6.4351,-5.9542,-5.8078,-5.5961,-5.3478,0.0,0.0,0.0,0.0,0.0,0.0,0.0,0.0,0.0,0.0,0.0,0.0,0.0,0.0,0.0,0.0,0.0,0.0,0.0,0.0,0.0,0.0,0.0,0.0,0.0,0.0,0.0,0.0,0.0,0.0,0.0,0.0,0.0,0.0,0.0,0.0,0.0,-4.6473,-4.7519,-4.5555,-4.7963,-4.825,0.0,0.0,0.0,0.0,0.0,0.0,-5.1282,-5.2433,-5.4262,-5.6981,-5.847,-5.9986,-6.1555,-6.2731,-6.409,-6.5632,-6.5789,-6.6521,-6.7749,-6.7462,-6.7174,-6.6939,-6.6782,-6.558,-6.3306,-5.8104,-5.4445,-5.1805,-4.893,-4.7702,-4.7571,-4.7571,-4.7858,-4.846,0.0,0.0,0.0,0.0,0.0,0.0,0.0,0.0,0.0,0.0,0.0,-5.3295,-5.5491,-5.7294,-5.9202,-6.1346,-6.0195,-5.9777,-6.0718,-5.732,-5.57,-5.6693,-5.5674,-5.5099,-5.5099,-5.8287,-6.1398,-6.4325,-6.7697,-7.0232,-7.1984,-7.3055,-7.3578,-7.3526,-7.2428,-6.937,-6.4743,-6.0875,-5.915,-5.8549,-5.3583,0.0,0.0,0.0,0.0,0.0,0.0,0.0,0.0,0.0,0.0,0.0,0.0,0.0,0.0,0.0,0.0,0.0,0.0,0.0,0.0,0.0,0.0,0.0,0.0,0.0,0.0,0.0,0.0,0.0,0.0,0.0,0.0,0.0,0.0,0.0,0.0,0.0,0.0,-4.7409,-5.1178,0.0,0.0,0.0,0.0,-5.0394,-5.1518,-5.3164,-5.5491,-5.7739,-6.0039,-6.2365,-6.4639,-6.6364,-6.754,-6.869,-6.9056,-6.8555,-6.9187,-6.9474,-6.9527,-6.8429,-6.822,-6.869,-6.8141,-6.7227,-6.5711,-6.0483,-5.7294,-5.536,-5.2459,-5.1021,-5.0577,-5.0577,-5.0603,-5.0629,0.0,0.0,0.0,0.0,0.0,-4.71,-4.8041,-4.9165,-5.0028,-5.042,-5.2929,-5.5569,-5.7895,-6.1006,-6.341,-6.4639,-6.5528,-6.524,-6.3437,-6.0927,-5.9202,-5.8497,-5.6301,-5.5961,-5.7817,-6.0875,-6.4404,-6.8429,-7.1539,-7.3944,-7.5643,-7.6035,-7.6244,-7.6218,-7.58,-7.4101,-7.1147,-6.558,-6.1529,-5.8601,-5.5987,-5.3844,0.0,0.0,0.0,0.0,0.0,0.0,0.0,0.0,0.0,0.0,0.0,0.0,0.0,0.0,0.0,0.0,0.0,0.0,0.0,0.0,0.0,0.0,0.0,0.0,0.0,0.0,0.0,0.0,0.0,0.0,0.0,0.0,0.0,0.0,0.0,0.0,0.0,-5.4497,-5.7608,0.0,-5.4863,-5.4236,-5.468,-5.6196,-5.7033,-5.8784,-6.1842,-6.3489,-6.5423,-6.7749,-6.8978,-6.9788,-7.018,-7.0232,-7.018,-6.9971,-6.9422,-6.9135,-6.9135,-6.835,-6.788,-6.7697,-6.7514,-6.6991,-6.6076,-6.3463,-6.1581,-5.9986,-5.6379,-5.5046,-5.5151,-5.4785,-5.4654,-5.4759,0.0,0.0,0.0,0.0,-4.6342,-4.6813,-4.7754,-4.9035,-5.0028,-5.042,-5.4001,-5.7373,-5.9699,-6.4064,-6.7305,-6.8481,-6.9082,-6.8507,-6.6416,-6.2835,-6.0378,-5.9411,-5.7373,-5.7608,-6.0483,-6.3933,-6.7802,-7.2062,-7.4754,-7.6741,-7.8048,-7.8048,-7.8048,-7.8021,-7.7839,-7.7002,-7.5434,-7.0415,-6.5632,-6.1189,-5.8679,-5.6771,-5.4994,0.0,0.0,0.0,0.0,0.0,0.0,0.0,0.0,0.0,0.0,0.0,0.0,0.0,0.0,0.0,0.0,0.0,0.0,0.0,0.0,0.0,0.0,0.0,0.0,0.0,0.0,0.0,0.0,0.0,0.0,0.0,0.0,0.0,0.0,-5.4785,-5.8392,-5.9542,-6.2914,-6.4012,-6.111,-6.0326,-6.0718,-6.2443,-6.2914,-6.4299,-6.6991,-6.822,-6.9474,-7.0834,-7.1801,-7.2088,-7.1696,-7.1539,-7.1147,-7.0598,-6.9814,-6.9239,-6.8738,-6.8246,-6.788,-6.7671,-6.7279,-6.7017,-6.673,-6.5188,-6.4325,-6.3646,-6.0195,-5.8967,-5.9045,-5.847,-5.8,-5.7686,0.0,0.0,0.0,-4.5451,-4.6081,-4.6656,-4.7231,-4.8773,-4.9871,-4.9949,-5.4524,-5.8653,-6.1032,-6.6416,-7.0781,-7.3081,-7.0624,-6.9161,-6.9684,-6.2731,-5.881,-5.9307,-5.8889,-5.9986,-6.294,-6.7462,-7.1513,-7.499,-7.7237,-7.8623,-7.9172,-7.9172,-7.9172,-7.9145,-7.8597,-7.8048,-7.7368,-7.5094,-7.1539,-6.6965,-6.1711,-6.0195,-6.0561,0.0,0.0,0.0,0.0,0.0,0.0,0.0,0.0,0.0,0.0,0.0,0.0,0.0,0.0,0.0,0.0,0.0,0.0,0.0,0.0,0.0,0.0,0.0,0.0,0.0,0.0,0.0,0.0,0.0,0.0,0.0,0.0,0.0,-5.1622,-5.7765,-6.213,-6.2313,-6.6782,-6.8769,-6.5972,-6.6207,-6.72,-6.879,-6.8946,-6.9527,-7.0651,-7.1801,-7.214,-7.1539,-7.316,-7.35,-7.2376,-7.282,-7.2245,-7.0624,-7.0546,-6.9919,-6.8711,-6.822,-6.8272,-6.8716,-6.7566,-6.741,-6.7749,-6.5449,-6.5188,-6.5972,-6.3698,-6.2469,-6.1921,-6.1346,-6.0378,-5.9124,0.0,0.0,-4.4905,-4.5451,-4.5767,-4.6186,-4.7122,-4.846,-4.974,-5.0969,-5.6405,-6.1372,-6.4508,-7.0023,-7.4388,-7.6688,-7.35,-7.1069,-7.0389,-6.3698,-5.9464,-5.8784,-6.0222,-6.2966,-6.7015,-7.0468,-7.3683,-7.6767,-7.8231,-7.9015,-7.9172,-7.9172,-7.9172,-7.9172,-7.9015,-7.8858,-7.8623,-7.7577,-7.593,-7.3447,-6.6991,-6.3071,-6.0771,0.0,0.0,0.0,0.0,0.0,0.0,0.0,0.0,0.0,0.0,0.0,0.0,0.0,0.0,0.0,0.0,0.0,0.0,0.0,0.0,0.0,0.0,0.0,0.0,0.0,0.0,0.0,0.0,0.0,0.0,0.0,-5.3269,-5.6379,-5.766,-6.1659,-6.5841,-6.9605,-7.2062,-7.3317,-7.2925,-7.2271,-7.2088,-7.2559,-7.3003,-7.3186,-7.3081,-7.4153,-7.4519,-7.397,-7.4414,-7.4284,-7.3552,-7.2428,-7.1644,-7.1147,-6.9501,-6.8533,-6.8194,-6.7619,-6.7436,-6.754,-6.6808,-6.6599,-6.6599,-6.4691,-6.4116,-6.4247,-6.2783,-6.2365,-6.2469,-6.1476,-6.0378,-5.9228,0.0,-4.4668,-4.4826,-4.5192,-4.5454,-4.5924,-4.6839,-4.7963,-4.9322,-5.1021,-5.7216,-6.2522,-6.524,-7.1356,-7.5591,-7.6427,-7.35,-7.0781,-6.8926,-6.3646,-6.0405,-5.9986,-6.2862,-6.6416,-7.0546,-7.3238,-7.5878,-7.8544,-7.8962,-7.9276,-7.9511,-7.9276,-7.9302,-7.9511,-7.9276,-7.9302,-7.9485,-7.8675,-7.7943,-7.6924,-7.214,-6.8586,-6.5763,-6.2234,-6.0561,-5.9856,-5.7739,-5.7373,-5.7582,-5.5517,0.0,0.0,0.0,0.0,0.0,0.0,0.0,0.0,0.0,0.0,0.0,0.0,0.0,0.0,0.0,0.0,0.0,0.0,0.0,0.0,0.0,0.0,0.0,0.0,-5.7765,-6.1764,-6.4848,-6.72,-7.0102,-7.4101,-7.5617,-7.6558,-7.7107,-7.614,-7.5565,-7.58,-7.5904,-7.5617,-7.478,-7.5355,-7.5355,-7.4545,-7.478,-7.4493,-7.363,-7.2611,-7.1748,-7.1043,-6.9474,-6.8455,-6.7985,-6.7619,-6.7331,-6.7044,-6.6259,-6.605,-6.6129,-6.4142,-6.3593,-6.3907,0.0,0.0,0.0,0.0,-5.9803,-5.8889,0.0,-4.4668,-4.4668,-4.4668,-4.5111,-4.5741,-4.6395,-4.7388,-4.8773,-5.0629,-5.7242,-6.2443,-6.4142,-7.0807,-7.4833,-7.4075,-7.1748,-6.9108,-6.6259,-6.3018,-6.1711,-6.2783,-6.6599,-7.0232,-7.363,-7.593,-7.81,-8.0113,-7.9616,-7.9616,-8.0113,-7.959,-7.9642,-8.0113,-7.959,-7.9616,-7.9956,-7.8936,-7.8466,-7.8283,-7.6715,-7.4937,-7.2663,-6.7828,-6.6521,-6.6861,-6.362,-6.1581,-6.0143,-5.8235,0.0,0.0,0.0,0.0,0.0,0.0,0.0,0.0,0.0,0.0,0.0,0.0,0.0,0.0,0.0,0.0,0.0,0.0,0.0,0.0,0.0,0.0,0.0,0.0,-6.2051,-6.6312,-7.1905,-7.3264,-7.4467,-7.6558,-7.776,-7.8623,-7.9119,-7.8257,-7.7839,-7.8283,-7.7917,-7.7107,-7.5878,-7.593,0.0,0.0,0.0,-7.4284,-7.3029,-7.2898,-7.2036,-7.0494,-6.9762,-6.8899,-6.7985,-6.7906,-6.7566,-6.6939,-6.5998,-6.5737,-6.5841,-6.3776,-6.3358,-6.3907,-6.2443,-6.1842,-6.1581,-5.9882,-5.8915,-5.8287,0.0,-4.4668,-4.4668,-4.4668,-4.4826,-4.5271,-4.6316,-4.7048,-4.8433,-5.11,-5.6771,-6.1215,-6.2966,-6.8194,-7.2245,-7.3866,-7.0624,-6.7462,-6.5031,-6.294,-6.3724,-6.8011,-7.1173,-7.4258,-7.7237,-7.9119,-8.0269,-8.0714,-8.0609,-8.0609,-8.0714,-8.0609,-8.0609,-8.0714,-8.0609,-8.0348,-8.0008,-7.9799,-7.9433,-7.8989,-7.8649,-7.6636,-7.3526,-7.0677,-6.9135,-6.8246,-6.6181,-6.6129,-6.6547,-6.341,-6.2522,-6.2051,-5.834,-5.5517,0.0,0.0,0.0,0.0,0.0,0.0,0.0,0.0,0.0,0.0,0.0,0.0,0.0,0.0,0.0,0.0,0.0,0.0,0.0,-6.1816,-6.5972,-7.0049,-7.4441,-7.6349,-7.7473,-7.7943,-7.8597,-7.9041,-7.9172,-7.8962,-7.8701,-7.8335,-7.8649,-7.8126,-7.6532,-7.7316,-7.6871,-7.4807,-7.4833,-7.4127,-7.248,-7.1539,-7.0677,-6.984,-6.8324,0.0,-6.7958,-6.7488,-6.6965,-6.6442,-6.6678,-6.5789,-6.4142,-6.3698,-6.2548,-6.1058,-6.1215,-6.098,-6.0405,-5.915,-5.8314,-5.7791,0.0,-4.4304,-4.4382,-4.467,-4.4487,-4.4696,-4.5872,-4.6525,-4.7832,-5.042,-5.5282,-5.9072,-6.0509,-6.4796,-6.7566,-6.7566,-6.5188,-6.3541,-6.328,-6.4325,-6.7174,-7.2088,-7.478,-7.7237,-7.9537,-8.0426,-8.1027,-8.1315,-8.1027,-8.1027,-8.1315,-8.1027,-8.1027,-8.1315,-8.1001,-8.0714,-8.0426,-8.0139,-7.9694,-7.9172,-7.9172,-7.8126,-7.6401,-7.4676,-7.3291,-7.214,-7.099,-7.0389,-6.9762,-6.7462,-6.6286,-6.5214,-6.1764,-5.9281,-5.7085,0.0,0.0,0.0,0.0,0.0,0.0,0.0,0.0,0.0,0.0,0.0,0.0,0.0,0.0,-5.1936,-5.4236,0.0,-6.1398,-6.6338,-7.0049,-7.3395,-7.6584,-7.8021,-7.8753,-7.8753,-7.8989,-7.9172,-7.9172,-7.9172,-7.9067,-7.8753,-7.9015,-7.8675,-7.7525,-7.7473,-7.6793,-7.5355,-7.4754,-7.3892,-7.2716,-7.1565,-7.0703,-7.0128,-6.8664,-6.8115,-6.8403,-6.7802,-6.7227,-6.6678,-6.6364,-6.5423,-6.4038,-6.3175,-6.1973,-6.064,-6.0352,-5.9882,-5.9307,-5.8732,-5.834,-5.8052,0.0,-4.3781,-4.3885,-4.446,-4.4173,-4.4278,-4.5454,-4.6107,-4.7257,-4.9453,-5.3373,-5.6379,-5.7399,-6.0718,-6.2156,-6.0431,-6.0039,-6.0797,-6.2992,-6.6599,-7.086,-7.5852,-7.8048,-7.9903,-8.1524,-8.155,-8.1733,-8.2099,-8.1629,-8.1576,-8.1916,-8.1446,-8.1472,-8.1916,-8.1446,-8.1158,-8.1001,-8.0426,-7.9851,-7.9328,-7.9224,-7.9172,-7.9067,-7.8152,-7.7211,-7.6296,-7.5512,-7.3578,-7.1252,-7.0337,-6.8716,-6.6704,-6.4534,-6.2966,-6.1163,-5.7111,-5.5099,0.0,0.0,0.0,0.0,0.0,0.0,0.0,0.0,0.0,-5.0054,-5.191,-5.3766,-5.604,-5.9255,-6.2496,-6.6155,-7.0677,-7.3578,-7.5957,-7.8021,-7.8806,-7.9172,-7.9172,-7.9172,-7.9172,-7.9172,-7.9172,-7.9172,-7.9172,-7.9172,-7.8884,-7.8178,-7.7394,-7.6453,-7.5408,-7.4597,-7.3683,-7.2637,-7.1696,-7.0912,-7.0232,-6.9187,-6.8743,-6.8738,-6.8246,-6.7592,-6.6861,-6.5475,-6.4639,-6.4064,-6.2339,-6.1293,-6.0666,-5.962,-5.8915,-5.8523,-5.8523,-5.8366,-5.8131,0.0,-4.3467,-4.3284,-4.3885,-4.3912,-4.4278,-4.5454,-4.6107,-4.7127,-4.893,-5.1387,-5.3243,-5.3896,-5.57,-5.6981,-5.7268,-5.9986,-6.328,-6.707,-6.9631,-7.3761,-7.993,-8.1446,-8.27,-8.3929,-8.3955,-8.3746,-8.3301,-8.3223,-8.2962,-8.2543,-8.2465,-8.2465,-8.2543,-8.2465,-8.2151,-8.1629,-8.1027,-8.0452,-7.9877,-7.9381,-7.9172,-7.9145,-7.9015,-7.891,-7.857,-7.7002,-7.4258,-7.1382,-7.1252,-6.937,-6.7122,-6.7357,-6.6259,-6.4116,-6.0065,-5.6667,-5.3452,-5.0028,-4.7963,-4.7336,-4.9714,-4.9244,-4.9505,0.0,-5.502,-5.4968,-5.719,-5.9437,-6.1738,-6.4168,-6.6625,-6.9605,-7.3709,-7.5538,-7.6871,-7.8152,-7.8806,-7.9172,-7.9172,-7.9172,-7.9172,-7.9172,-7.9172,-7.9172,-7.9172,-7.9172,-7.8701,-7.7629,-7.7917,-7.6924,-7.4284,-7.4597,-7.3552,-7.0912,-7.0755,-7.0128,-6.903,-6.8377,-6.835,-6.8738,-6.8246,-6.741,-6.6259,-6.4064,-6.3071,-6.2888,-6.1136,-6.0065,-5.949,-5.8862,-5.8575,-5.8523,-5.8523,-5.7869,-5.7059,0.0,0.0,-4.2709,-4.3284,-4.3389,-4.365,-4.4487,-4.5401,-4.6473,-4.7885,-4.9505,-5.0734,-5.1282,-5.1988,-5.2511,-5.2746,-5.6876,-6.145,-6.6155,-7.0834,-7.5983,-8.1655,-8.3014,-8.385,-8.4321,-8.4347,-8.4216,-8.3981,-8.3981,-8.3693,-8.3118,-8.3118,-8.2962,-8.2622,-8.2622,-8.2308,-8.1759,-8.1498,-8.0871,-8.0008,-7.9773,-7.9459,-7.9093,-7.844,-7.7107,-7.5538,-7.4833,-7.2559,0.0,-6.8769,-6.7619,-6.6678,-6.6913,-6.5789,-6.3803,-6.0744,-5.7425,0.0,-5.0498,-4.9505,-4.974,-5.0969,-5.2223,-5.4001,-5.7085,-5.8209,-5.915,-6.111,-6.362,-6.6181,-6.8455,-7.0807,-7.3238,-7.593,-7.7054,-7.7891,-7.8701,-7.844,-7.7812,-7.6819,-7.6688,-7.7211,-7.8544,-7.8675,-7.8675,-7.8675,-7.8675,-7.8309,-7.7499,-7.7368,-7.6296,-7.4075,-7.4258,-7.3317,-7.1095,-7.0755,-7.018,-6.9344,-6.8769,-6.8429,-6.8324,-6.7723,-6.6652,-6.5188,-6.3881,-6.294,-6.2208,-6.0797,-5.9882,-5.9307,-5.8732,-5.8523,-5.8523,-5.8523,-5.8209,-5.7843,0.0,0.0,0.0,-4.2709,-4.2788,-4.3075,-4.3964,-4.4983,-4.5924,-4.6704,-4.7728,-4.8512,-4.8904,-4.9087,-4.9244,-4.9401,-5.3896,-5.8967,-6.4325,-7.0494,-7.6401,-8.1916,-8.3563,-8.4478,-8.4817,-8.4817,-8.4739,-8.4582,-8.4582,-8.4268,-8.372,-8.372,-8.3406,-8.2857,-8.2857,-8.2543,-8.1994,-8.1838,-8.1184,-8.0243,-8.0086,-7.959,-7.8727,-7.695,-7.4362,-7.167,-7.1513,-6.9108,-6.5815,-6.456,-6.3829,-6.3567,-6.4351,-6.375,-6.2287,-6.0143,-5.685,-5.3347,-5.0812,-5.11,-5.2276,-5.306,-5.5517,-5.8209,-6.0013,-6.1633,-6.3306,-6.5188,-6.7514,-6.984,-7.1984,-7.3761,-7.5512,-7.7394,-7.8048,-7.8466,-7.8884,-7.7682,-7.6166,-7.4597,-7.3709,-7.4022,-7.5983,-7.7054,-7.7682,-7.7839,-7.7839,-7.7603,-7.7002,-7.6453,-7.5408,-7.3813,-7.3604,-7.2768,-7.12,-7.0624,-7.0049,-6.9448,-6.8873,-6.8403,-6.7958,-6.7044,-6.5946,-6.4717,-6.3829,-6.2783,-6.1659,-6.064,-5.9803,-5.9098,-5.8679,-5.8523,-5.8523,-5.8523,-5.8418,-5.8314,0.0,0.0,0.0,0.0,-4.2238,-4.2762,-4.4434,-4.5164,-4.5637,-4.5663,-4.6186,-4.6552,-4.6578,-4.7074,-4.7623,-4.8198,-5.1962,-5.6745,-6.2522,-6.8298,-7.4336,-8.0661,-8.3118,-8.487,-8.602,-8.6046,-8.5758,-8.5157,-8.5157,-8.487,-8.4321,-8.4321,-8.4007,-8.3458,-8.3458,-8.3145,-8.2569,-8.2021,-8.1419,-8.0792,-8.0243,-7.9355,-7.7969,-7.4545,-7.1121,-6.8063,-6.7488,-6.362,-5.881,-5.8758,-5.7634,-5.6719,-5.9516,-6.0378,0.0,-5.8235,-5.4497,-5.089,-5.0786,-5.2014,-5.4001,-5.684,-5.881,-6.1006,-6.4404,-6.6076,-6.7566,-6.9893,-7.133,-7.2716,-7.4467,-7.4859,-7.5643,-7.7917,-7.8309,-7.8335,-7.8335,-7.6401,-7.4545,-7.3317,-7.0703,-6.9501,0.0,-7.3839,-7.6035,-7.661,-7.6662,-7.6401,-7.58,-7.5251,-7.4388,-7.3186,-7.2611,-7.1801,-7.0624,-7.0023,-6.9448,-6.879,-6.8298,-6.8011,-6.7932,-6.6207,-6.5397,-6.5266,-6.3593,-6.2208,-6.1084,-6.0483,-5.9568,-5.8549,-5.8523,-5.8523,-5.8523,-5.8523,-5.8157,-5.7835,0.0,0.0,0.0,0.0,0.0,-4.25,-4.3441,-4.4095,-4.4748,-4.5532,-4.6133,0.0,0.0,0.0,0.0,0.0,-5.0603,-5.4602,-5.9647,-6.6076,-7.1853,-7.6715,-8.0949,-8.338,-8.3798,-8.453,-8.5,-8.5183,-8.5183,-8.5105,-8.4896,-8.453,-8.4033,-8.3458,-8.3092,-8.2805,-8.2596,-8.2021,-8.1419,-8.0714,-7.9015,-7.7865,-7.6793,-7.3317,-6.8664,-6.362,0.0,-5.7451,-5.4341,-5.3191,-5.2668,-5.2825,-5.455,-5.4811,-5.4079,-5.1988,-5.1622,-5.2014,-5.2406,-5.4602,-5.7582,-6.0849,-6.2966,-6.4953,-6.7645,-6.8847,-6.9631,-7.0442,-6.9971,-6.9736,-7.0703,-7.0886,-7.1748,-7.4414,-7.5826,-7.6871,-7.7656,-7.6767,-7.4467,-7.0206,-6.9527,0.0,0.0,0.0,0.0,-7.4754,-7.5251,-7.5225,-7.4624,-7.4414,-7.3604,-7.201,-7.1801,-7.1147,-6.9997,-6.9788,-6.9422,-6.8764,-6.788,-6.741,-6.7331,-6.5606,-6.4404,-6.362,-6.2679,-6.1372,-5.9934,-5.9725,-5.9202,-5.8523,-5.8523,-5.8523,-5.8523,-5.8523,-5.8392,-5.8261,0.0,0.0,0.0,0.0,0.0,0.0,0.0,0.0,0.0,0.0,0.0,0.0,0.0,0.0,0.0,0.0,0.0,-5.2067,-5.6092,-6.1685,-6.6652,-7.0729,-7.4676,-7.6976,-7.7394,-7.7917,-7.8858,-8.0269,-8.0478,-8.121,-8.2413,-8.2256,-8.2099,-8.1942,-8.1785,-8.1707,-8.1655,-8.0871,-7.972,-7.8204,-7.5695,-7.3604,-7.1565,-6.7671,-6.3018,0.0,-5.4001,-5.1204,-4.927,-4.8355,-4.8433,-4.9113,-5.0054,-5.0211,-4.9897,-4.9035,-5.0707,-5.3217,-5.5046,-5.8052,-6.1398,-6.4456,-6.6547,-6.822,-6.9684,-7.0468,-7.0651,-6.984,-6.8455,-6.7305,-6.7044,-6.6312,-6.6913,-7.0389,-7.1748,-7.3317,-7.614,-7.4807,-7.2297,-6.9004,-6.7985,-6.6599,0.0,0.0,0.0,-7.2271,-7.3395,-7.3813,-7.3421,-7.3186,-7.2559,-7.1435,-7.099,-7.0442,-6.971,-6.9501,-6.9004,-6.8137,-6.707,-6.639,-6.6103,-6.4404,-6.3227,-6.2469,-6.1685,-6.0588,-5.9359,-5.9359,-5.9019,-5.8523,-5.8523,-5.8523,-5.8497,-5.8287,-5.8209,-5.8209,0.0,0.0,0.0,0.0,0.0,0.0,0.0,0.0,0.0,0.0,0.0,0.0,0.0,0.0,0.0,0.0,0.0,0.0,-5.2093,-5.5517,-5.9176,-6.3071,-6.5057,-6.6599,-6.7697,-6.7227,-6.8324,-7.1095,-7.1696,-7.3683,-7.695,-7.7499,-7.8048,-7.8623,-7.9145,-7.9355,-7.9302,-7.8152,-7.6061,-7.3264,-7.0363,-6.6887,-6.2966,-5.847,-5.4942,-5.191,-4.8015,-4.5454,-4.399,-4.4513,-4.5114,-4.5767,-4.6342,-4.6944,-4.778,-4.9557,-5.1779,-5.4524,-5.8497,-6.2104,-6.5292,-6.7592,-6.9396,-7.0598,-7.0598,-7.0886,-7.0494,-6.8194,-6.6652,-6.5188,0.0,0.0,-6.1476,-6.6155,-6.6678,-6.8481,-7.4205,-7.12,-6.8769,0.0,0.0,0.0,0.0,0.0,0.0,-6.9318,-7.1173,-7.2193,-7.2245,-7.1748,-7.1409,-7.1356,-7.0285,-6.9684,-6.9657,-6.9082,-6.8246,-6.7174,-6.5972,-6.5083,-6.4482,-6.2757,-6.1947,-6.1816,-6.0666,-5.9856,-5.9307,-5.9307,-5.8993,-5.8523,-5.8523,-5.8497,-5.8392,-5.7869,-5.7704,-5.7678,0.0,0.0,0.0,0.0,0.0,0.0,0.0,0.0,0.0,0.0,0.0,0.0,0.0,0.0,0.0,0.0,0.0,0.0,-4.9139,-5.2537,-5.5308,-5.7216,-6.1006,-6.341,-6.4116,-6.4822,-6.5763,-6.6913,-6.7514,-6.8481,-6.9762,-6.9919,-7.0285,-7.0834,-7.0546,-7.0415,-7.0311,-6.9161,-6.8011,-6.6704,-6.3803,-6.1764,-6.0143,-5.7242,-5.4105,-5.0969,-4.9087,-4.6734,-4.446,-4.4173,-4.5062,-4.6369,-4.6944,-4.7806,-4.9139,-5.1753,0.0,-5.8,-6.1607,-6.5109,-6.8194,-7.0076,-7.0572,-7.0598,-7.0598,-6.903,-6.6939,-6.4613,-6.0849,-5.7556,0.0,0.0,0.0,-6.3672,-6.7331,0.0,-7.5538,-7.5146,0.0,-7.0677,0.0,-6.7854,-6.5397,-6.6338,0.0,-6.7723,-6.937,-7.0729,-7.1592,-7.1905,-7.167,-7.0834,-7.0076,-6.9474,-6.9056,-6.8481,-6.8063,-6.7749,-6.6155,-6.5083,-6.4482,-6.2757,-6.1502,-6.064,-5.9908,-5.9255,-5.8732,-5.8732,-5.8653,-5.8523,-5.8523,-5.8261,-5.7869,-5.7782,-5.7399,-5.6954,0.0,0.0,0.0,0.0,0.0,0.0,0.0,0.0,0.0,0.0,0.0,0.0,0.0,0.0,0.0,0.0,0.0,0.0,0.0,-4.8904,-5.0498,-5.1648,-5.3922,-5.5438,-5.6013,-5.6405,-5.7634,-5.9725,-5.9803,-6.1032,-6.3358,-6.3097,-6.341,-6.4221,-6.4404,-6.4639,-6.477,-6.3881,-6.26,0.0,0.0,-5.5726,-5.3896,-5.2093,-5.0028,-4.8015,-4.7127,-4.6081,-4.5192,0.0,0.0,-4.8198,-4.9557,-5.0969,-5.2694,-5.5857,0.0,-6.1894,-6.5371,-6.8298,-7.0651,-7.1853,-7.1356,-7.0128,-6.835,-6.6103,-6.3227,-5.9124,-5.536,0.0,-5.0655,-5.1282,-5.387,0.0,0.0,0.0,-7.3944,-7.4284,-7.3395,0.0,-7.1043,0.0,-6.7148,-6.7802,-6.8324,-6.8246,-6.9396,-7.0363,-7.1017,-7.1592,-7.1513,-7.0624,-6.9997,-6.9422,-6.8764,-6.8011,-6.7488,-6.7227,-6.5475,-6.4195,-6.3358,-6.1868,-6.0718,-5.9803,-5.9228,-5.881,-5.8523,-5.8523,-5.8523,-5.8497,-5.8235,-5.7948,-5.7678,-5.7085,-5.6693,-5.6301,0.0,0.0,0.0,0.0,0.0,0.0,0.0,0.0,0.0,0.0,-4.4408,0.0,0.0,0.0,0.0,0.0,0.0,0.0,0.0,0.0,-4.5872,-4.6887,-4.6525,-4.6525,-4.7043,-4.663,-4.8068,-5.157,-5.1126,-5.2981,-5.6902,-5.6484,-5.685,-5.7921,-5.8941,-5.9673,-6.0117,-5.9542,-5.7791,-5.5203,-5.2616,-4.974,-4.6834,0.0,-4.5192,-4.4643,-4.4068,-4.4565,-4.582,-4.7937,-4.9505,-5.1021,-5.3504,-5.5517,-5.7634,-6.111,-6.3593,-6.5946,-6.9239,-7.1382,-7.2716,-7.3029,-7.1722,-6.9318,-6.5318,-6.2679,-5.9359,-5.3295,0.0,-4.8564,-4.6421,-4.7074,-4.9766,-5.5255,0.0,-6.3985,-7.1592,-7.1722,-7.1644,-7.3264,-7.1958,-7.0494,-6.9396,-6.9239,-6.937,-6.9788,-7.0363,-7.0703,-7.0703,-7.1226,-7.1252,-7.0624,-6.9945,-6.9344,-6.8764,-6.7671,-6.6808,-6.6259,-6.4508,-6.3045,-6.1816,-6.0718,-5.9856,-5.9228,-5.8732,-5.8523,-5.8523,-5.8523,-5.8523,-5.8444,-5.7869,-5.7678,-5.7425,-5.6327,-5.5804,-5.5543,0.0,0.0,0.0,0.0,0.0,0.0,0.0,0.0,0.0,0.0,-4.4565,-4.4016,0.0,0.0,0.0,0.0,0.0,0.0,0.0,0.0,0.0,-4.5085,-4.5088,-4.5297,-4.5898,-4.582,-4.6107,-4.6813,-4.7179,-4.778,-4.8564,-4.8956,-4.9479,-5.0132,-5.0342,-5.0498,-5.0524,-4.9976,-4.9165,-4.8172,-4.7205,-4.6159,-4.5111,-4.4903,0.0,0.0,-4.4068,-4.4304,-4.5506,-4.961,-5.2433,-5.4759,-5.8,-6.0561,-6.3018,-6.6495,-6.8115,-6.9344,-7.1827,-7.3474,-7.4232,-7.3343,-7.1121,-6.822,-6.4639,-5.9908,0.0,0.0,-4.7519,-4.5245,-4.3859,-4.5349,-4.9087,-5.6196,-6.0274,-6.5318,-7.3317,-7.3866,-7.3866,0.0,-7.3735,-7.2428,-7.1775,-7.1252,0.0,-7.0468,-7.0938,-7.1252,-7.1252,-7.1827,-7.167,-7.0624,-6.9553,-6.8952,-6.8764,-6.7671,-6.6808,-6.6259,-6.4508,-6.2835,-6.1241,-6.0535,-5.9647,-5.8653,-5.8549,-5.8523,-5.8523,-5.8523,-5.8523,-5.8444,-5.7869,-5.7373,-5.6876,-5.617,-5.5308,-5.455,0.0,0.0,0.0,0.0,0.0,0.0,0.0,-4.4408,-4.5428,-4.8355,-4.7989,-4.6891,-4.5401,-4.3912,-4.3023,0.0,0.0,0.0,0.0,0.0,0.0,0.0,-4.4668,-4.4853,-4.5166,-4.5111,-4.5454,-4.6081,0.0,-4.5872,-4.6473,-4.6133,-4.6133,-4.6395,-4.6708,-4.6865,-4.6865,-4.6865,-4.6552,-4.6003,-4.5741,-4.5216,-4.4668,0.0,0.0,0.0,0.0,-4.4199,-4.5663,-4.8773,-5.2354,-5.6327,-6.1006,-6.4273,-6.6939,-6.9788,-7.1043,-7.1984,-7.431,-7.5355,-7.5434,-7.3944,-7.0729,-6.6547,-6.1293,0.0,0.0,0.0,-4.4147,-4.2814,-4.2239,-4.4278,0.0,-5.2798,-5.6771,-6.1842,-6.937,-7.0938,0.0,-7.4545,-7.4075,-7.3343,0.0,-7.2193,-7.1748,-7.1513,-7.1722,-7.1722,-7.1409,-7.1409,-7.1017,-7.0154,-6.9291,-6.869,-6.8403,-6.754,-6.6521,-6.5371,-6.4221,-6.2783,-6.111,-6.0509,-5.9751,-5.8941,-5.8653,-5.8523,-5.8523,-5.8523,-5.8523,-5.8444,-5.7869,-5.732,-5.6745,-5.6118,-5.5386,-5.4654,0.0,0.0,0.0,0.0,0.0,0.0,-4.6708,-4.6682,-4.7754,-5.2145,-5.2014,-5.0472,-4.7702,-4.5218,-4.3467,0.0,0.0,0.0,0.0,0.0,0.0,0.0,0.0,-4.4668,-4.4668,0.0,0.0,-4.6107,-4.5166,0.0,0.0,0.0,0.0,0.0,-4.5218,-4.5373,-4.5454,-4.5898,-4.5846,0.0,0.0,-4.5085,0.0,0.0,0.0,0.0,0.0,0.0,-4.5532,-4.7388,-5.0943,-5.5517,-6.0692,-6.524,-6.9082,-7.1304,-7.2585,-7.3787,-7.6009,-7.6793,-7.6505,-7.4493,-7.0337,-6.4979,-5.8314,-5.2825,0.0,-4.318,-4.1716,-4.1324,-4.1324,-4.3284,-4.5898,0.0,-5.2589,-5.7451,-6.4534,-6.7357,-6.9945,0.0,0.0,0.0,-7.3343,-7.2689,0.0,-7.2297,-7.2193,-7.1905,-7.1435,-7.0755,-7.018,-6.971,-6.9135,-6.856,-6.8011,-6.7383,-6.6286,-6.4691,-6.4012,-6.2835,-6.1293,-6.0535,-5.9908,-5.9333,-5.8758,-5.8523,-5.8523,-5.8523,-5.8523,-5.8444,-5.7869,-5.7373,-5.6902,-5.617,-5.5569,-5.502,0.0,0.0,0.0,0.0,0.0,0.0,-4.6708,-4.7675,-4.9976,-5.5595,-5.4916,-5.3008,-5.0655,-4.7858,-4.4879,0.0,0.0,0.0,0.0,0.0,0.0,0.0,0.0,0.0,0.0,0.0,0.0,-4.4879,-4.472,0.0,0.0,0.0,0.0,0.0,0.0,-4.4746,-4.4772,-4.4853,0.0,0.0,0.0,0.0,0.0,0.0,0.0,0.0,0.0,0.0,0.0,0.0,0.0,-5.0995,-5.4158,-6.1084,-6.8429,-7.0232,0.0,0.0,-7.6113,-7.7368,-7.7499,-7.4702,-6.9736,-6.4012,-5.8157,0.0,0.0,-4.2866,-4.1716,-4.1324,-4.1324,-4.1951,-4.3834,-4.7702,-5.0394,-5.4602,-6.2104,-6.5998,-6.9344,0.0,0.0,0.0,-7.3918,-7.2951,-7.2297,-7.2297,-7.1801,-7.1461,-7.1409,-7.0363,-6.9762,-6.9684,-6.9135,-6.856,-6.8011,-6.7383,-6.6495,-6.5292,-6.4195,-6.3045,-6.1868,-6.0744,-5.9908,-5.9333,-5.8758,-5.8523,-5.8523,-5.8523,-5.8523,-5.8444,-5.7869,-5.7704,-5.7451,-5.6327,-5.5569,-5.5099,0.0,0.0,0.0,0.0,0.0,0.0,-4.8094,-4.7597,-4.9453,-5.732,-5.685,-5.5569,-5.4994,-5.204,-4.7728,-4.1821,0.0,0.0,0.0,0.0,0.0,0.0,0.0,0.0,0.0,0.0,-4.4668,-4.4668,-4.4668,0.0,0.0,0.0,0.0,0.0,0.0,0.0,-4.4668,-4.4668,0.0,0.0,0.0,0.0,0.0,0.0,0.0,0.0,0.0,0.0,-4.3441,0.0,0.0,0.0,-4.8669,-5.3478,0.0,0.0,-6.856,-7.167,-7.512,-7.742,-7.7969,-7.4388,-6.9396,-6.3593,-5.6798,0.0,-4.5558,-4.2317,-4.1481,-4.1324,-4.1324,-4.1507,-4.2396,-4.4696,-4.5846,0.0,-5.5151,-5.7869,-6.1633,-6.822,-6.9814,0.0,0.0,0.0,-7.2663,-7.2323,-7.1435,-7.0912,-7.0912,-7.0128,-6.9527,-6.9187,-6.8638,-6.8063,-6.7488,-6.6887,-6.6024,-6.4874,-6.4064,-6.3071,-6.1921,-6.0744,-5.9908,-5.9333,-5.8758,-5.8523,-5.8523,-5.8523,-5.8523,-5.8497,-5.8261,-5.7974,-5.7678,-5.7137,-5.6379,-5.5595,0.0,0.0,0.0,0.0,0.0,-4.3127,-4.8564,-4.825,-5.0159,-5.7913,-5.7948,-5.7346,-5.7399,-5.3713,-4.9035,-4.3572,-4.216,0.0,0.0,0.0,0.0,0.0,0.0,0.0,0.0,0.0,-4.4668,-4.4668,-4.4668,-4.4668,0.0,0.0,0.0,0.0,0.0,0.0,0.0,0.0,0.0,0.0,0.0,0.0,0.0,0.0,0.0,0.0,0.0,0.0,0.0,0.0,0.0,0.0,0.0,-4.6813,-5.123,0.0,-6.443,-6.8743,-7.3029,-7.614,-7.7316,-7.3787,-6.8743,-6.2809,0.0,0.0,-4.5297,-4.2004,-4.1324,-4.1324,-4.1324,-4.1324,-4.1585,-4.2396,0.0,-4.5114,-5.0368,-5.2563,0.0,0.0,0.0,-6.7619,-7.1252,-7.2376,-7.2637,-7.2088,-7.0964,-7.0337,-7.0337,-6.9762,-6.9265,-6.8764,-6.8298,-6.7697,-6.7122,-6.639,-6.5528,-6.4534,-6.362,-6.2757,-6.1921,-6.0588,-5.9751,-5.9333,-5.8758,-5.8523,-5.8523,-5.8523,-5.8523,-5.8523,-5.8523,-5.8261,-5.7895,-5.7782,-5.7137,-5.6405,0.0,0.0,0.0,0.0,0.0,0.0,-4.7492,-5.0106,-5.3008,-5.7207,-5.8157,-5.8078,-5.6928,-5.1675,-4.7963,-4.7278,-4.4121,0.0,0.0,0.0,0.0,0.0,0.0,0.0,0.0,0.0,-4.4668,-4.4668,-4.4668,-4.4668,-4.4668,-4.4668,-4.4668,-4.4668,0.0,0.0,0.0,0.0,0.0,0.0,0.0,0.0,-4.3939,0.0,0.0,0.0,0.0,0.0,0.0,0.0,0.0,0.0,0.0,-4.216,-4.4826,-5.3452,-6.0457,-6.6181,-6.9684,-7.3134,-7.5199,-7.2872,-6.754,-6.1346,0.0,0.0,-4.48,-4.1925,-4.1324,-4.1324,-4.1324,-4.1324,-4.1324,-4.1324,-4.2762,0.0,-4.9348,-5.238,-5.57,0.0,0.0,-6.362,-6.7645,-7.0624,-7.2062,-7.1461,-7.0337,-6.971,-6.971,-6.9161,-6.8764,-6.8764,-6.8298,-6.7697,-6.7096,-6.5972,-6.5109,-6.4508,-6.2809,-6.1973,-6.1921,-6.0169,-5.9385,-5.9333,-5.8758,-5.8523,-5.8523,-5.8523,-5.8523,-5.8523,-5.8523,-5.8523,-5.8444,-5.7869,-5.773,-5.7625,0.0,0.0,0.0,0.0,0.0,0.0,-4.4826,-4.5506,-4.7466,-5.2328,-5.2433,-5.2981,-5.5386,-5.0838,-4.7858,-4.8486,-4.4643,0.0,0.0,0.0,0.0,0.0,0.0,0.0,0.0,-4.4668,-4.5114,-4.5924,-4.6316,-4.6443,-4.6443,-4.6443,-4.6025,-4.5323,-4.485,-4.4668,0.0,0.0,0.0,0.0,0.0,-4.4382,-4.3912,0.0,0.0,0.0,0.0,0.0,0.0,0.0,0.0,0.0,0.0,0.0,0.0,-4.7127,-5.3321,-5.9333,-6.1241,-6.456,-6.6756,-6.3646,-5.9594,-5.5282,-5.1047,0.0,-4.3833,-4.1742,-4.1324,-4.1324,-4.1324,-4.1324,-4.169,-4.2866,-4.3859,0.0,0.0,0.0,0.0,-5.9098,-6.5188,-6.984,0.0,-7.2219,-7.2062,-7.1461,-7.0729,-7.0128,-6.971,-6.9161,-6.8664,-6.8272,-6.7697,-6.7096,-6.6547,-6.5763,-6.49,-6.3933,-6.2992,-6.1921,-6.0744,-5.9803,-5.915,-5.8758,-5.8601,-5.8523,-5.8523,-5.8523,-5.8523,-5.8523,-5.8523,-5.8523,-5.8497,-5.8314,-5.8,-5.7704,0.0,0.0,0.0,0.0,0.0,0.0,0.0,-4.3859,-4.5401,-4.8433,-4.859,-4.9714,-5.3112,-4.8826,-4.6525,-4.8564,-4.5114,0.0,0.0,0.0,0.0,0.0,0.0,0.0,-4.4668,-4.4903,-4.595,-4.7754,-4.8355,-4.8982,-4.961,-4.9401,-4.8329,-4.6578,-4.5976,-4.5294,0.0,0.0,0.0,0.0,-4.4929,-4.4591,-4.3912,0.0,0.0,0.0,0.0,0.0,0.0,0.0,0.0,0.0,0.0,0.0,0.0,0.0,-4.7362,-5.2328,-5.5255,-5.8523,-6.0509,-5.8131,-5.5099,-5.1858,0.0,0.0,-4.3389,-4.1664,-4.1324,-4.1324,-4.1324,-4.1324,-4.1664,-4.2735,-4.3206,-4.4147,0.0,0.0,0.0,-5.8706,-6.5867,0.0,-7.133,-7.1748,-7.1801,-7.1435,-7.0494,-6.9866,-6.971,-6.8952,-6.8246,-6.7671,-6.7279,-6.6834,-6.6286,-6.5266,-6.4273,-6.3358,-6.2339,-6.1163,-5.9882,-5.9307,-5.8862,-5.8523,-5.8523,-5.8523,0.0,-5.8523,-5.8523,-5.8523,-5.8523,-5.8523,-5.8523,-5.8523,-5.8287,-5.7974,0.0,0.0,0.0,0.0,0.0,0.0,0.0,-4.4434,-4.5976,-4.5454,-4.6316,-4.7806,-5.0002,-4.5898,-4.4304,-4.7649,0.0,0.0,0.0,0.0,0.0,0.0,0.0,0.0,-4.4668,-4.5268,-4.7022,-4.9897,-5.0524,-5.1753,-5.3452,-5.2825,-5.1021,-4.8224,-4.7597,-4.6312,-4.4774,-4.5323,-4.519,-4.4774,-4.5294,-4.4853,0.0,0.0,0.0,0.0,0.0,0.0,0.0,0.0,0.0,0.0,0.0,0.0,0.0,0.0,0.0,0.0,0.0,-5.421,-5.5804,-5.5151,-5.2903,-5.0185,-4.7571,-4.5271,0.0,-4.1638,-4.1324,-4.1324,-4.1376,-4.135,-4.1376,-4.1533,-4.1585,-4.2762,-4.6081,-4.846,-5.238,0.0,-6.4404,-6.7436,-6.7357,-6.9814,-7.1382,-7.1356,-6.984,-6.9108,-6.9605,-6.8586,-6.7697,-6.7122,-6.7044,-6.6756,-6.6233,-6.456,-6.341,-6.2757,-6.1084,-5.9934,-5.9281,-5.8758,-5.8523,0.0,-5.8523,-5.8523,-5.8523,-5.8523,-5.8523,-5.8523,-5.8523,-5.8523,-5.8523,-5.8523,-5.8523,-5.8523,0.0,0.0,0.0,0.0,0.0,0.0,0.0,0.0,0.0,0.0,-4.3206,-4.3755,-4.4748,-4.3363,-4.3232,0.0,0.0,0.0,0.0,0.0,0.0,0.0,0.0,0.0,-4.4668,-4.5268,-4.7022,-4.9897,-5.0917,-5.2302,-5.4001,-5.3452,-5.1648,-4.8826,-4.7806,-4.6312,-4.4694,-4.4824,-4.4853,-4.4694,-4.4824,-4.4251,0.0,0.0,0.0,0.0,-4.135,-4.1324,0.0,0.0,0.0,0.0,0.0,0.0,0.0,0.0,-4.169,-4.2422,-4.3781,0.0,-4.7362,-4.6316,-4.4879,-4.3676,0.0,-4.2631,-4.1794,-4.1402,-4.1324,-4.1455,-4.1873,-4.1611,-4.1899,-4.365,-4.4304,-4.5218,-4.6891,-5.3164,-5.9673,-6.5292,-6.8978,-7.0729,-6.9866,-7.0755,-7.1226,-7.0807,-6.9997,-6.937,-6.9056,-6.8377,-6.7723,-6.7148,-6.6704,-6.6181,-6.5606,-6.4743,-6.362,-6.2156,-6.1319,-6.0143,-5.8706,-5.8575,-5.8523,-5.8523,-5.8523,-5.8523,-5.8523,-5.8523,-5.8523,-5.8523,-5.8523,-5.8523,-5.8523,-5.8523,-5.8523,-5.8523,0.0,0.0,0.0,0.0,0.0,0.0,0.0,0.0,0.0,0.0,-4.2239,-4.2474,-4.2265,-4.2657,0.0,0.0,0.0,0.0,0.0,0.0,0.0,0.0,0.0,-4.4668,-4.4668,-4.5584,-4.7675,-5.1073,-5.2223,-5.4079,-5.6562,-5.5726,-5.3661,-5.0524,-4.778,-4.5816,-4.4748,-4.5036,-4.4929,-4.4668,-4.4668,0.0,0.0,0.0,0.0,0.0,-4.1402,-4.1324,0.0,-4.2213,-4.2317,-4.2134,0.0,0.0,0.0,0.0,-4.1324,-4.1324,-4.1324,-4.2422,-4.3468,-4.2788,-4.216,-4.1794,-4.2159,-4.1716,-4.1324,-4.1324,-4.1324,-4.1402,-4.1716,-4.1533,-4.1794,-4.331,-4.4042,-4.5767,-4.9584,-5.5935,-6.2051,-6.6991,-6.9657,-7.1173,-7.1356,-7.1173,-7.0912,-7.0624,-6.9788,-6.9056,-6.8481,-6.7906,-6.72,-6.6364,-6.5789,-6.5318,-6.5005,-6.4168,-6.3018,-6.1581,-6.0718,-5.9673,-5.8523,-5.8523,-5.8523,-5.8523,-5.8523,-5.8523,-5.8523,-5.8523,-5.8523,-5.8523,-5.8523,-5.8523,-5.8523,-5.8523,-5.8523,-5.847,0.0,0.0,0.0,0.0,0.0,0.0,0.0,0.0,0.0,0.0,0.0,0.0,0.0,0.0,0.0,0.0,0.0,0.0,0.0,0.0,0.0,0.0,-4.4668,-4.48,-4.4983,-4.5976,-4.8381,-5.2223,-5.3739,-5.6092,-5.9228,-5.8601,-5.6275,-5.2459,-4.8172,-4.5794,-4.5009,-4.5399,-4.5268,-4.4853,-4.4774,0.0,0.0,0.0,0.0,0.0,0.0,0.0,0.0,-4.2997,-4.3206,-4.2971,-4.3363,0.0,0.0,0.0,0.0,0.0,-4.1742,-4.2265,-4.2579,-4.216,-4.2159,-4.2185,-4.2107,-4.1664,-4.1324,-4.1324,-4.1324,-4.135,-4.1428,-4.1585,-4.1925,-4.2579,-4.3624,-4.6734,-5.3609,-5.8131,-6.2365,-6.6704,-6.8926,-7.0546,-7.167,-7.1069,-7.0546,-7.0468,-6.937,-6.8507,-6.8011,-6.7331,-6.6521,-6.5554,-6.4874,-6.4456,-6.4273,-6.3227,-6.2156,-6.111,-5.9934,-5.9072,-5.8523,-5.8523,-5.8523,-5.8523,-5.8523,-5.8523,-5.8497,-5.8418,-5.8444,-5.8497,-5.8418,-5.8444,-5.8523,-5.8523,-5.8523,-5.8418,0.0,0.0,0.0,0.0,0.0,0.0,0.0,0.0,0.0,0.0,0.0,0.0,0.0,0.0,0.0,0.0,0.0,0.0,0.0,0.0,0.0,-4.4668,-4.4668,-4.5192,-4.6186,-4.6395,-4.7989,-5.1047,-5.4131,-5.6667,-5.8679,-6.0483,-5.8418,-5.3138,-5.0446,-4.812,-4.6186,-4.5794,-4.5584,-4.5399,-4.4957,0.0,0.0,0.0,0.0,0.0,0.0,0.0,0.0,-4.1611,-4.1977,-4.2239,-4.1821,0.0,0.0,0.0,0.0,0.0,-4.3676,-4.4643,-4.4513,-4.2056,-4.1794,-4.2107,-4.1559,-4.1376,-4.1324,-4.1324,-4.1324,-4.1455,-4.1951,-4.2814,-4.3833,-4.4931,-4.8015,-5.2537,-5.9019,-6.179,-6.4325,-6.7488,-7.0232,-7.1226,-6.9527,-7.0102,-7.0389,-6.9866,-6.8769,-6.8089,-6.7985,-6.6991,-6.6338,-6.6155,-6.5083,-6.4064,-6.3097,-6.2443,-6.1764,-6.111,-5.9934,-5.9072,-5.8523,-5.8523,-5.8523,-5.8523,-5.8523,-5.8523,-5.847,-5.8,-5.8078,-5.847,-5.7974,-5.8078,-5.8523,-5.8523,-5.8523,-5.8418,0.0,0.0,0.0,0.0,0.0,0.0,0.0,0.0,0.0,0.0,0.0,0.0,0.0,0.0,0.0,0.0,0.0,0.0,0.0,0.0,-4.5428,-4.7022,-4.6473,-4.6395,-4.6917,-4.846,-5.0812,-5.4053,-5.7503,-6.0222,-6.2182,-6.0771,-5.7869,-5.3687,-5.042,-4.8041,-4.6447,-4.6186,-4.5924,-4.5584,0.0,0.0,0.0,0.0,0.0,0.0,0.0,0.0,0.0,0.0,-4.2866,-4.3101,-4.2788,0.0,0.0,0.0,0.0,0.0,-4.2605,-4.331,-4.3572,-4.2866,-4.3363,-4.3624,-4.2108,-4.1533,-4.1481,-4.2108,-4.2004,-4.2239,-4.3755,-4.4983,-4.6734,-4.9766,-5.3112,-5.6693,-6.0588,-6.26,-6.4874,-6.8063,-6.9631,-7.0389,-7.0232,-7.0154,-6.9997,-6.971,-6.8638,-6.7854,-6.7514,-6.673,-6.5841,-6.49,-6.4064,-6.3071,-6.1921,-6.1006,-6.0431,-6.0169,-5.9307,-5.8758,-5.8523,-5.8523,-5.8523,-5.8523,-5.8523,-5.8523,-5.8497,-5.8235,-5.8287,-5.8497,-5.8235,-5.8287,-5.8523,-5.8523,-5.8314,-5.8026,0.0,0.0,0.0,0.0,0.0,0.0,0.0,0.0,0.0,0.0,0.0,0.0,0.0,0.0,0.0,0.0,0.0,0.0,0.0,-4.4668,-4.5898,-4.8564,-4.8329,-4.859,-4.9471,-5.157,-5.4393,-5.8026,-6.1764,-6.477,-6.6887,-6.2156,-5.8235,-5.502,-5.0838,-4.8198,-4.6865,-4.6734,-4.6421,-4.595,0.0,0.0,0.0,0.0,0.0,0.0,0.0,0.0,0.0,0.0,0.0,0.0,0.0,0.0,0.0,-4.1768,-4.1402,-4.1611,-4.2004,-4.2448,-4.2971,-4.3859,-4.4434,-4.4591,-4.3781,-4.2918,-4.2762,-4.4304,-4.4068,-4.4121,-4.5898,-4.7702,-5.0368,-5.4707,-5.7948,-6.0588,-6.2469,-6.3959,-6.5972,-6.8899,-6.9239,-6.971,-7.0886,-7.0206,-6.9579,-6.9318,-6.835,-6.754,-6.6939,-6.6259,-6.5188,-6.3724,-6.2992,-6.2077,-6.0927,-5.9882,-5.9359,-5.9359,-5.8784,-5.8523,-5.8523,-5.8523,-5.8523,-5.8497,-5.8366,-5.8314,-5.8314,-5.8157,-5.8209,-5.8314,-5.8314,-5.8392,-5.8523,-5.8523,-5.8157,-5.7756,0.0,0.0,0.0,0.0,0.0,0.0,0.0,0.0,0.0,0.0,0.0,0.0,0.0,0.0,0.0,0.0,0.0,0.0,0.0,-4.4668,-4.5558,-4.733,-4.9427,-5.2302,-5.604,-5.5778,-5.7556,-6.1607,-6.6129,-6.9527,-7.1696,-6.6521,-6.1999,-5.8,-5.34,-5.0132,-4.8015,-4.7492,-4.7257,-4.7017,-4.5346,0.0,0.0,0.0,0.0,0.0,0.0,0.0,0.0,0.0,0.0,0.0,0.0,0.0,-4.284,-4.1664,-4.169,-4.2499,-4.4095,-4.4539,-4.4565,-4.4589,-4.352,-4.3415,-4.6944,-4.6499,-4.6081,-4.8826,-4.8512,-4.7806,-4.7963,-5.1126,-5.4863,-5.8418,-6.1868,-6.49,-6.7174,-6.8063,-6.8978,-7.0311,-7.0468,-7.0285,-6.9866,-6.9736,-6.9265,-6.8194,-6.754,-6.6939,-6.6364,-6.5266,-6.4351,-6.3698,-6.26,-6.1476,-6.03,-5.9673,-5.9359,-5.9359,-5.8784,-5.8523,-5.8523,-5.8523,-5.8523,-5.8497,-5.7948,-5.7782,-5.7686,-5.7137,-5.7242,-5.7782,-5.7782,-5.8052,-5.8523,-5.8523,-5.8157,-5.7739,0.0,0.0,0.0,0.0,0.0,0.0,0.0,0.0,0.0,0.0,0.0,0.0,0.0,0.0,0.0,0.0,0.0,0.0,0.0,-4.5401,-4.6917,-4.9374,-5.0655,-5.3347,-5.7765,-6.0457,-6.3959,-6.8403,-7.1226,-7.2506,-7.2167,-6.5867,-6.0771,-5.6719,-5.2433,-4.9871,-4.8695,-4.812,-4.7858,-4.7702,-4.5976,-4.4722,0.0,0.0,0.0,0.0,0.0,0.0,0.0,0.0,-4.2291,-4.2605,-4.2108,-4.2448,-4.2788,-4.1638,-4.1455,-4.1768,-4.2448,-4.3127,-4.3884,-4.5009,-4.48,-4.48,-4.6708,-4.7728,-4.9008,-5.1544,-5.1988,-5.2145,-5.2851,-5.57,-5.8732,-6.1136,-6.443,-6.7227,-6.8821,-6.9239,-6.9788,-7.0964,-7.0468,-6.9945,-6.971,-6.937,-6.8847,-6.8063,-6.7122,-6.6338,-6.5763,-6.4639,-6.3567,-6.2652,-6.1842,-6.0875,-5.9699,-5.9124,-5.8836,-5.8836,-5.8627,-5.8523,-5.8523,-5.8523,-5.8523,-5.8497,-5.8287,-5.8183,-5.8183,-5.7948,-5.8,-5.8183,-5.8183,-5.8314,-5.8523,-5.8523,-5.8366,-5.8235,0.0,0.0,0.0,0.0,0.0,0.0,0.0,0.0,0.0,0.0,0.0,0.0,0.0,0.0,0.0,0.0,0.0,0.0,-4.5036,-4.5584,-4.7127,-4.9845,-5.1021,-5.3922,-5.8941,-6.4116,-6.8481,-7.201,-7.4859,-7.4807,-7.1879,-6.5867,-6.1084,-5.7373,-5.3138,-5.1152,-5.089,-4.9557,-4.8799,-4.8303,-4.6395,-4.4931,0.0,0.0,0.0,0.0,0.0,0.0,0.0,0.0,-4.2134,-4.2448,-4.2186,-4.2526,-4.284,-4.1873,-4.1716,-4.1768,-4.1402,-4.1899,-4.2866,-4.4408,-4.5349,-4.6421,-4.846,-5.042,-5.2668,-5.5752,-5.6092,-5.6013,-5.6615,-5.8653,-6.0744,-6.2313,-6.592,-6.8743,-6.9344,-6.9736,-7.0206,-7.0781,-7.0023,-6.9422,-6.9422,-6.8899,-6.8324,-6.7749,-6.6652,-6.5737,-6.5136,-6.3855,-6.2705,-6.1738,-6.0953,-6.0091,-5.9098,-5.8706,-5.8523,-5.8523,-5.8523,-5.8523,-5.8523,-5.8523,-5.8523,-5.8497,-5.8131,-5.7974,-5.7948,-5.7765,-5.7895,-5.8235,-5.8235,-5.834,-5.8523,-5.8523,-5.8523,-5.8523,0.0,0.0,0.0,0.0,0.0,0.0,0.0,0.0,0.0,0.0,0.0,0.0,0.0,0.0,0.0,0.0,0.0,0.0,-4.5529,-4.5033,-4.5767,-4.8068,-5.0368,-5.4262,-6.0013,-6.6364,-7.0206,-7.1435,-7.6584,-7.6453,-7.1252,-6.7227,-6.3803,-6.0875,-5.6275,-5.455,-5.4889,-5.2014,-5.0132,-4.8878,-4.6578,-4.4931,-4.3808,0.0,0.0,0.0,0.0,0.0,0.0,0.0,-4.2265,-4.1611,-4.331,-4.3467,-4.2918,-4.2343,-4.2579,-4.2762,-4.1638,-4.1324,-4.1611,-4.2762,-4.48,-4.7885,-5.306,-5.5125,-5.7268,-6.1921,-6.1032,-5.9228,-5.8679,-5.949,-6.064,-6.1816,-6.6312,-6.9474,-6.8926,-6.984,-7.0363,-6.9762,-6.9187,-6.8764,-6.8764,-6.8324,-6.7749,-6.7122,-6.6024,-6.5109,-6.4534,-6.2888,-6.1685,-6.111,-5.996,-5.9098,-5.8523,-5.8523,-5.8523,-5.8523,-5.8497,-5.8497,-5.8523,-5.8497,-5.8497,-5.8444,-5.7294,-5.6798,-5.6771,-5.617,-5.6588,-5.773,-5.773,-5.8,-5.8497,-5.8523,-5.8523,-5.8523,0.0,0.0,0.0,0.0,0.0,0.0,0.0,0.0,0.0,0.0,0.0,0.0,0.0,0.0,0.0,0.0,0.0,0.0,-4.5009,-4.5921,-4.6808,-4.7545,-5.0159,-5.2406,-5.4105,-6.0797,-6.741,-7.3866,-7.4571,-7.2036,-6.6521,-6.3698,-6.0614,-5.7399,-5.6458,-5.4994,-5.3164,-5.1492,-5.0342,-4.9479,-4.7597,-4.6133,-4.5036,0.0,0.0,0.0,0.0,0.0,0.0,0.0,0.0,0.0,-4.2552,-4.3101,-4.3415,-4.2499,-4.2579,-4.2762,-4.1638,-4.2186,-4.3572,-4.5558,-4.8407,-5.1962,-5.6745,-5.8104,-5.9777,-6.4822,-6.4325,-6.2835,-6.226,-6.2417,-6.2888,-6.3646,-6.6442,-6.8716,-6.9344,-6.9736,-6.9893,-6.971,-6.9187,-6.869,-6.8272,-6.8089,-6.741,-6.5998,-6.5214,-6.4168,-6.2809,-6.1868,-6.0927,-5.9908,-5.9542,-5.9098,-5.8523,-5.8523,-5.8523,-5.8497,-5.8104,-5.8131,-5.8497,-5.8104,-5.7921,-5.7869,-5.7137,-5.6798,-5.6798,-5.6615,-5.6745,-5.7111,-5.7503,-5.7835,-5.7948,-5.8366,-5.8523,-5.8523,0.0,0.0,0.0,0.0,0.0,0.0,0.0,0.0,0.0,0.0,-4.4668,-4.4668,0.0,0.0,0.0,0.0,0.0,0.0,-4.5088,-4.6025,-4.6913,-4.7649,-4.9766,-5.2197,-5.4968,-6.0483,-6.5109,-6.8743,-7.0076,-6.8141,-6.3175,-6.3175,-6.179,-5.9411,-6.0901,-5.962,-5.617,-5.4785,-5.2668,-5.0132,-4.8852,-4.7388,-4.5898,0.0,0.0,0.0,0.0,0.0,0.0,0.0,0.0,0.0,-4.2133,-4.2682,-4.3101,-4.2421,-4.2422,-4.2474,-4.1559,-4.2735,-4.4826,-4.7388,-5.0812,-5.4916,-6.0222,-6.2313,-6.4142,-6.7775,-6.6939,-6.5397,-6.4822,-6.4325,-6.4116,-6.4482,-6.6678,-6.8481,-6.8952,-6.9396,-6.9527,-6.9082,-6.8716,-6.8272,-6.7697,-6.7227,-6.6521,-6.5475,-6.4221,-6.3071,-6.2025,-6.098,-6.0091,-5.9385,-5.915,-5.8862,-5.8523,-5.8287,-5.8183,-5.8157,-5.7582,-5.7503,-5.7817,-5.7477,-5.732,-5.7294,-5.6693,-5.6327,-5.6144,-5.6353,-5.6588,-5.6876,-5.7425,-5.7791,-5.8052,-5.8392,-5.8523,-5.8523,0.0,0.0,-4.4696,-4.4746,0.0,0.0,0.0,0.0,0.0,0.0,-4.4668,-4.4668,0.0,0.0,0.0,0.0,0.0,0.0,0.0,-4.5637,-4.6447,-4.812,-4.9531,-5.3269,-5.9699,-6.2809,-6.2574,-5.8889,-6.4064,-6.4534,-6.0666,-6.4378,-6.5528,-6.4587,-6.7357,-6.6076,-6.1685,-5.962,-5.5595,-5.0603,-5.008,-4.8512,-4.6421,-4.5976,0.0,0.0,0.0,0.0,0.0,0.0,0.0,0.0,-4.1977,-4.2238,-4.229,-4.2238,-4.2238,-4.216,-4.1742,-4.3232,-4.5689,-4.8852,-5.2851,-5.7582,-6.3515,-6.6965,-6.9213,-7.0232,-6.8795,-6.7174,-6.6547,-6.558,-6.4822,-6.477,-6.7017,-6.8612,-6.8141,-6.8926,-6.9161,-6.8115,-6.7906,-6.7592,-6.6991,-6.5946,-6.524,-6.5083,-6.3149,-6.1894,-6.1738,-6.0222,-5.9333,-5.9281,-5.8732,-5.8444,-5.8444,-5.7869,-5.7651,-5.7651,-5.7007,-5.6719,-5.6719,-5.6719,-5.6693,-5.6615,-5.6066,-5.5569,-5.5151,-5.5674,-5.6223,-5.6798,-5.7425,-5.7974,-5.8444,-5.8497,-5.8523,-5.8523,0.0,0.0,-4.4356,-4.5271,0.0,0.0,0.0,0.0,0.0,0.0,0.0,0.0,0.0,0.0,0.0,0.0,0.0,0.0,0.0,-4.5794,-4.6865,-4.812,-5.1465,-5.4393,-5.6771,-5.6693,-5.617,-5.5308,-6.0091,-6.0352,-5.651,-6.2234,-6.4534,-6.3959,-6.5946,-6.4508,-6.03,-5.5857,-5.2223,-4.9479,-4.9766,-4.8512,-4.6499,-4.6839,-4.5532,0.0,0.0,0.0,0.0,0.0,0.0,0.0,-4.1977,-4.2474,-4.2762,-4.2291,-4.2474,-4.2997,-4.3781,-4.5036,-4.7362,-5.2511,-5.8523,-6.3881,-6.6625,-6.8429,-6.9448,-6.9265,-6.9187,-6.8821,-6.7802,-6.741,-6.7096,-6.6652,-6.7462,-6.8298,-6.8612,-6.8481,-6.8272,-6.8011,-6.72,-6.6416,-6.5815,-6.5136,-6.4168,-6.2809,-6.226,-6.1372,-6.0013,-5.9568,-5.915,-5.8706,-5.8131,-5.7843,-5.7843,-5.7268,-5.6981,-5.6981,-5.6379,-5.6092,-5.6092,-5.6092,-5.5883,-5.5465,-5.5334,-5.5203,-5.5151,-5.5674,-5.5987,-5.6196,-5.7242,-5.7739,-5.7895,-5.834,-5.8523,-5.8523,0.0,0.0,0.0,0.0,0.0,0.0,0.0,0.0,0.0,0.0,0.0,0.0,0.0,0.0,0.0,0.0,0.0,0.0,0.0,0.0,-4.7466,-4.9714,-5.3164,-5.4916,-5.4707,-5.4131,-5.3138,-5.1753,-5.4184,-5.5412,-5.5621,-6.1136,-6.3985,-6.4587,-6.6887,-6.49,-5.962,-5.6641,-5.34,-5.0315,-5.0603,-4.9662,-4.8068,-4.7545,-4.5715,-4.3363,-4.2525,0.0,0.0,0.0,0.0,0.0,0.0,0.0,-4.2134,-4.1847,-4.216,-4.2814,-4.3676,-4.5976,-4.9819,-5.7007,-6.2522,-6.6573,-6.8063,-6.8847,-6.9213,-6.8899,-6.9291,-6.9422,-6.856,-6.8168,-6.7802,-6.72,-6.7357,-6.7671,-6.7958,-6.7514,-6.707,-6.6782,-6.5972,-6.5109,-6.4247,-6.3646,-6.2809,-6.1659,-6.1032,-6.0326,-5.9483,-5.9098,-5.8706,-5.8131,-5.7817,-5.7529,-5.7242,-5.6667,-5.6249,-5.5987,-5.5386,-5.5099,-5.5099,-5.5386,-5.536,-5.5099,-5.5099,-5.5099,-5.5151,-5.5674,-5.5909,-5.5987,-5.6902,-5.7425,-5.7756,-5.8,-5.8287,-5.8523,0.0,0.0,0.0,0.0,0.0,0.0,0.0,0.0,0.0,0.0,0.0,0.0,0.0,0.0,0.0,0.0,0.0,0.0,0.0,0.0,0.0,-5.1309,-5.4053,-5.4811,-5.3426,-5.3112,-5.1727,-4.9218,-4.9139,-5.157,-5.6458,-6.0692,-6.3698,-6.5632,-6.7723,-6.5266,-5.9411,-5.7739,-5.4628,-5.0864,-5.0864,-5.0185,-4.9008,-4.7571,-4.5425,-4.3206,-4.2448,-4.229,-4.2291,-4.2238,0.0,0.0,0.0,0.0,-4.1428,-4.135,-4.1638,-4.2213,-4.3075,-4.7048,-5.2825,-6.0718,-6.4822,-6.7279,-6.856,-6.8769,-6.869,-6.869,-6.9082,-6.9239,-6.8664,-6.8168,-6.7645,-6.7044,-6.7017,-6.7044,-6.6965,-6.639,-6.5763,-6.5162,-6.4404,-6.3567,-6.2626,-6.1999,-6.1424,-6.0849,-5.9908,-5.9307,-5.9228,-5.8679,-5.8157,-5.7756,-5.7547,-5.7085,-5.651,-5.5909,-5.5334,-5.4811,-5.4393,-5.421,-5.421,-5.4811,-5.5099,-5.5099,-5.5099,-5.5099,-5.5151,-5.5674,-5.5909,-5.5961,-5.6562,-5.7111,-5.7529,-5.7704,-5.7948,-5.8392,0.0,0.0,0.0,0.0,0.0,0.0,0.0,0.0,0.0,0.0,-4.6003,-4.6159,0.0,0.0,0.0,0.0,0.0,0.0,-4.4668,0.0,0.0,-5.0812,-5.272,-5.3635,-5.34,-5.191,-5.0681,-4.9793,-4.9322,-5.2197,-5.8235,-6.0849,-6.3541,-6.6103,-6.4979,-6.2862,-5.9699,-5.3609,-4.9819,-4.7853,-4.7853,-4.7205,-4.6159,-4.595,-4.5242,-4.4304,-4.2735,-4.2474,-4.284,-4.2343,-4.25,0.0,0.0,0.0,-4.1951,-4.1455,-4.1376,-4.1873,-4.3938,-4.9688,-5.6223,-6.0927,-6.4247,-6.6834,-6.8481,0.0,-6.8115,-6.8115,-6.8168,-6.8037,-6.7462,-6.7279,-6.7017,-6.6495,-6.6782,-6.6939,-6.6442,-6.5449,-6.456,-6.3959,-6.2522,-6.1502,-6.1372,-6.0797,-6.0222,-5.9647,-5.9464,-5.915,-5.8653,-5.8078,-5.7739,-5.773,-5.6667,-5.5883,-5.5334,-5.4733,-5.4158,-5.3635,-5.4027,-5.421,-5.421,-5.4811,-5.5099,-5.5099,-5.5099,-5.5099,-5.5151,-5.5674,-5.5909,-5.5961,-5.6562,-5.685,-5.6981,-5.7477,-5.7782,-5.7843,0.0,0.0,0.0,0.0,0.0,0.0,0.0,0.0,0.0,0.0,0.0,-4.6264,0.0,0.0,0.0,-4.472,-4.4668,-4.4824,-4.5164,-4.6499,-4.8015,-4.9766,-5.0864,-5.1282,-5.0995,-4.9897,-4.9035,-4.846,-4.7911,-5.1675,-5.949,-6.0849,-6.3358,-6.6625,-6.3907,-6.1267,-5.8418,-5.2772,-4.9766,-4.8695,-4.7728,-4.7414,-4.7414,-4.6107,-4.5454,-4.5036,-4.3624,-4.3284,-4.3415,-4.284,-4.3023,-4.3284,-4.2082,0.0,0.0,0.0,-4.1533,-4.2631,-4.6552,-5.0498,-5.4863,-6.0561,-6.3175,-6.4979,-6.7357,-6.7671,-6.741,-6.7096,-6.6756,-6.6652,-6.7044,-6.6573,-6.605,-6.5815,-6.5449,-6.4979,-6.443,-6.362,-6.2888,-6.2313,-6.1293,-6.0483,-6.0169,-5.9908,-5.9516,-5.8941,-5.8889,-5.8653,-5.8052,-5.7791,-5.7346,-5.6693,-5.617,-5.5491,-5.4602,-5.4341,-5.3766,-5.2877,-5.2798,-5.3086,-5.3766,-5.4027,-5.4497,-5.5099,-5.5099,-5.5099,-5.5125,-5.536,-5.5465,-5.5491,-5.5752,-5.6249,-5.685,-5.7085,-5.7582,-5.8183,0.0,0.0,0.0,0.0,0.0,0.0,0.0,0.0,0.0,0.0,0.0,0.0,0.0,0.0,0.0,0.0,-4.4668,-4.4905,-4.5375,-4.595,-4.6917,-4.8355,-4.9087,-4.9139,-4.8433,-4.812,-4.7623,-4.6834,-4.6917,-5.1701,-6.0901,-6.1502,-6.4456,-6.9108,-6.5083,-6.1529,-5.8235,-5.3478,-5.1282,-5.076,-4.8172,-4.7545,-4.8041,-4.6604,-4.5816,-4.5532,-4.48,-4.4539,-4.4434,-4.3702,-4.3833,-4.4042,-4.2474,-4.216,0.0,0.0,0.0,-4.2892,-4.7205,-4.9427,-5.2014,-5.8235,-6.0771,-6.2496,0.0,0.0,-6.6103,0.0,-6.5136,-6.4953,-6.5658,-6.5214,-6.4743,-6.4743,-6.3907,-6.3045,-6.2469,-6.1894,-6.1319,-6.0744,-6.0143,-5.962,-5.9202,-5.915,-5.8915,-5.834,-5.8314,-5.8052,-5.7477,-5.7294,-5.6824,-5.5935,-5.5621,-5.4994,-5.4001,-5.3687,-5.3112,-5.2276,-5.1962,-5.2302,-5.3191,-5.3478,-5.4079,-5.4889,-5.5046,-5.5099,-5.5099,-5.5099,-5.5099,-5.5099,-5.5099,-5.57,-5.6588,-5.6745,-5.7451,-5.8314,0.0,0.0,0.0,0.0,0.0,0.0,0.0,0.0,0.0,0.0,0.0,0.0,-4.5689,-4.5581,-4.5375,-4.472,-4.4668,-4.4694,-4.472,-4.5294,-4.595,-4.6578,-4.7675,0.0,-4.663,-4.7127,-4.6782,-4.566,-4.731,-5.3112,-6.2705,-6.328,-6.7749,-7.5016,-6.937,-6.4665,-6.0614,-5.5438,-5.353,-5.353,-4.8538,-4.6238,-4.5924,-4.6834,-4.6521,-4.5689,-4.6159,-4.6342,-4.6159,-4.5036,-4.5036,-4.5323,-4.4121,-4.3389,-4.2866,0.0,0.0,0.0,-4.3676,-4.5846,-4.8564,-5.2798,-5.6301,-5.949,0.0,0.0,-6.3855,-6.3829,-6.3358,-6.2809,-6.2339,-6.2626,-6.2966,-6.2966,-6.2443,-6.1868,-6.1293,-6.0692,-6.0091,-5.9516,-5.8967,-5.8601,-5.8549,-5.8549,-5.8314,-5.7808,-5.7782,-5.7451,-5.6876,-5.6301,-5.5961,-5.5909,-5.4863,-5.4027,-5.3452,-5.2302,-5.1701,-5.1648,-5.2197,-5.2485,-5.2589,-5.3661,-5.4184,-5.4288,-5.4863,-5.5099,-5.5099,-5.5099,-5.5099,-5.5099,-5.5099,-5.5465,-5.604,-5.6588,-5.719,-5.7791,0.0,0.0,0.0,0.0,0.0,0.0,0.0,0.0,0.0,0.0,0.0,0.0,0.0,-4.5581,-4.5375,-4.472,-4.4668,-4.4668,-4.4668,-4.4931,-4.5323,-4.5898,-4.6316,-4.6342,-4.595,-4.6133,-4.5973,-4.5581,-4.6238,-5.0995,-5.9542,-6.0849,-6.4404,-6.9553,-6.7096,-6.4587,-6.1764,-5.5072,-5.2145,-5.1753,-4.8773,-4.7675,-4.7806,-4.7466,-4.731,-4.7205,-4.6656,-4.6473,-4.6342,-4.5558,-4.5399,0.0,0.0,0.0,0.0,-4.2499,-4.2081,-4.2239,-4.3964,-4.5036,0.0,-5.1152,-5.3739,-5.5883,-5.8392,-6.0248,-6.1346,-6.098,-6.1346,-6.1555,-6.0953,-6.1346,-6.1738,-6.1738,-6.1241,-6.064,-6.0065,-5.9803,-5.9464,-5.8889,-5.8627,-5.8366,-5.8,-5.7974,-5.7739,-5.7163,-5.7111,-5.6693,-5.5778,-5.5517,-5.5046,-5.4314,-5.3896,-5.34,-5.2825,-5.2014,-5.1596,-5.1596,-5.1805,-5.2119,-5.2537,-5.3321,-5.387,-5.4236,-5.4837,-5.5099,-5.5099,-5.5099,-5.5099,-5.5125,-5.5491,-5.5987,-5.6562,-5.7137,-5.7712,-5.8235,0.0,0.0,0.0,-4.5924,0.0,-4.5323,-4.5323,-4.4929,-4.4824,-4.5271,0.0,0.0,0.0,0.0,-4.519,-4.5036,-4.4853,-4.4772,-4.5009,-4.4826,-4.485,-4.5297,-4.5451,-4.5532,-4.5268,-4.5842,-4.5869,-4.5323,-4.6316,-5.0315,-5.7111,-5.9045,-6.2417,-6.6756,-6.4613,-6.3776,-6.3593,-5.7608,-5.4654,-5.3687,-5.0577,-4.9557,-4.9923,-4.9923,-4.9819,-4.961,-4.9427,-4.8878,-4.8041,-4.71,-4.6656,0.0,0.0,0.0,0.0,0.0,0.0,0.0,-4.3625,0.0,0.0,0.0,-5.0917,-5.2171,-5.5229,-5.7111,-5.8209,-5.8209,-5.915,-5.983,-5.9437,-5.9699,-6.0091,-6.0483,-5.9882,-5.9307,-5.9098,-5.8758,-5.8444,-5.8261,-5.8052,-5.7791,-5.7399,-5.7373,-5.7059,-5.6301,-5.6223,-5.5726,-5.4602,-5.4524,-5.4079,-5.3138,-5.3086,-5.2798,-5.2197,-5.1805,-5.1596,-5.1596,-5.1596,-5.1805,-5.2223,-5.3034,-5.3583,-5.3975,-5.4759,-5.5099,-5.5099,-5.5099,-5.5099,-5.5151,-5.5491,-5.6118,-5.685,-5.7242,-5.7869,-5.8523,-4.4772,-4.5192,-4.5373,-4.4826,-4.4668,-4.4668,-4.4668,-4.4668,-4.4668,-4.4668,0.0,0.0,0.0,0.0,0.0,-4.5634,-4.5111,-4.5062,-4.5584,-4.5062,-4.4668,-4.4668,-4.5297,-4.5268,-4.4694,-4.6338,-4.6365,-4.4668,-4.7571,-5.1256,-5.5726,-5.8052,-6.2156,-6.7383,-6.2391,-6.2339,-6.5815,-6.2888,-6.1084,-5.9647,-5.3922,-5.1675,-5.1988,-5.4184,-5.4001,-5.2772,-5.4445,-5.3609,-5.1439,-4.9766,-4.8799,0.0,0.0,0.0,0.0,0.0,0.0,0.0,0.0,0.0,0.0,0.0,-4.7675,0.0,-5.2929,-5.4001,-5.4367,-5.5517,-5.6693,-5.7599,-5.7651,-5.7651,-5.8018,-5.9045,-5.834,-5.7843,-5.8392,-5.7503,-5.7007,-5.7625,-5.7137,-5.6798,-5.6771,-5.6745,-5.6275,-5.5151,-5.5046,-5.455,-5.3426,-5.3347,-5.3086,-5.2485,-5.2459,-5.2197,-5.1596,-5.1596,-5.1596,-5.1596,-5.1596,-5.1596,-5.1648,-5.2851,-5.34,-5.3452,-5.4602,-5.5099,-5.5099,-5.5099,-5.5099,-5.5099,-5.5151,-5.583,-5.6798,-5.685,-5.7556,-5.8523,-4.4147,-4.4591,-4.4931,-4.4748,-4.4668,-4.4668,-4.4668,-4.4668,-4.4668,0.0,0.0,0.0,-4.5428,-4.6865,-4.7937,-4.812,-4.7571,-4.6761,-4.5634,-4.5062,-4.4668,-4.4668,-4.4824,-4.485,-4.4668,-4.5138,-4.5164,-4.4668,-4.5532,-4.744,-5.0368,-5.1831,-5.4707,-5.8679,-5.8889,-5.915,-5.9202,-5.5883,-5.5961,-5.8,-5.3896,-5.3504,-5.5203,-5.3766,-5.3426,-5.3739,-5.3844,-5.3975,-5.3922,-5.2642,-5.1518,-5.0159,0.0,0.0,0.0,0.0,0.0,0.0,-4.2788,0.0,0.0,0.0,0.0,0.0,-4.7702,-4.9296,-5.0812,-5.1962,-5.3478,-5.4837,-5.5647,-5.5804,-5.5909,-5.6223,-5.6719,-5.7085,-5.7268,-5.7007,-5.6876,-5.7033,-5.6902,-5.6484,-5.5647,-5.5569,-5.5099,0.0,-5.387,-5.353,-5.2772,-5.2328,-5.2014,-5.1858,-5.1858,-5.1779,-5.1596,-5.1596,-5.1596,-5.1596,-5.1596,-5.1596,-5.1648,-5.2851,-5.34,-5.3452,-5.4602,-5.5099,-5.5099,-5.5099,-5.5099,-5.5177,-5.6013,-5.6536,-5.6902,-5.7739,-5.8235,-5.8523,-4.3912,-4.433,-4.4879,-4.5375,-4.5846,-4.6159,-4.6159,-4.6159,-4.6081,0.0,0.0,0.0,-4.6996,-4.9348,-5.0603,-4.9845,-4.9035,-4.7937,-4.6447,-4.5503,-4.4929,-4.4694,-4.4903,-4.5218,-4.5454,-4.5689,-4.5689,-4.5454,-4.5454,-4.6264,-4.7858,-4.8747,-5.076,-5.3687,-5.4524,-5.4942,-5.4837,-5.2067,-5.3086,-5.651,-5.5438,-5.6013,-5.7477,-5.6981,-5.7059,-5.7425,-5.7346,-5.7608,-5.7686,-5.5804,-5.3739,0.0,0.0,0.0,0.0,0.0,0.0,0.0,0.0,0.0,0.0,0.0,0.0,0.0,-4.5715,-4.6656,-4.7675,-4.9061,-5.0551,-5.1936,-5.3086,-5.3295,-5.3295,-5.3295,-5.4053,-5.4968,-5.5961,-5.5674,-5.5465,-5.57,-5.5517,-5.5125,-5.4445,-5.4393,-5.4001,-5.3086,-5.3008,-5.2746,-5.2145,-5.1779,-5.1492,-5.1256,-5.1256,-5.1256,-5.1256,-5.1256,-5.1361,-5.1596,-5.1596,-5.1596,-5.1648,-5.2851,-5.34,-5.3452,-5.4602,-5.5099,-5.5099,-5.5099,-5.5229,-5.5517,-5.617,-5.6745,-5.7242,-5.7921,-5.8314,-5.8523,0.0,-4.4434,-4.5218,-4.6447,-4.7571,-4.8355,-4.8538,-4.846,-4.8277,0.0,-4.7179,-4.7597,-5.0054,-5.2511,-5.3295,-5.1596,-5.0237,-4.8904,-4.7623,-4.6395,-4.548,-4.4957,-4.5506,-4.6029,-4.6473,-4.7048,-4.7022,-4.6395,-4.6395,-4.6604,-4.6991,-4.7623,-4.9008,-5.0995,-5.0106,-5.0551,-5.1936,-5.076,-5.204,-5.502,-5.7294,-5.8523,-5.9255,-6.1711,-6.2469,-6.2313,-6.2757,-6.2679,-6.1894,-5.8941,-5.57,0.0,0.0,0.0,0.0,0.0,-4.446,0.0,0.0,0.0,0.0,0.0,-4.4591,0.0,-4.5584,-4.5428,-4.5164,-4.6656,-4.7832,-4.8956,-5.0106,-5.0368,-5.042,-5.042,-5.0917,-5.2145,-5.4471,-5.4001,-5.3583,-5.4053,-5.3687,-5.3347,-5.3217,-5.3269,-5.3034,-5.2354,-5.2354,-5.2145,-5.1544,-5.1518,-5.1256,-5.0707,-5.0681,-5.0707,-5.0786,-5.0786,-5.1073,-5.1596,-5.1596,-5.1596,-5.1648,-5.2851,-5.34,-5.3452,-5.4602,-5.5099,-5.5099,-5.5099,-5.5412,-5.5909,-5.5987,-5.6693,-5.773,-5.7808,-5.8078,-5.8523,-4.446,-4.5036,-4.595,-4.7571,-4.8433,-4.9374,-5.0734,-5.0159,-5.0028,-5.1309,-5.2511,-5.4471,-5.7686,-5.7739,-5.7007,-5.5752,-5.3295,-5.0943,-4.8878,-4.7205,-4.6264,-4.6133,-4.6682,-4.6839,-4.6499,-4.7048,-4.6839,-4.5794,-4.5794,-4.5611,-4.519,-4.5846,-4.6604,-4.7519,-4.8198,-4.8695,-4.9191,-5.1675,-5.2825,-5.3217,-5.5491,-5.8653,-6.1947,-6.1581,-6.2522,-6.3985,-6.3646,-6.4038,-6.4195,-6.0849,-5.7739,-5.4654,0.0,0.0,0.0,-4.5924,0.0,0.0,0.0,0.0,0.0,0.0,0.0,0.0,-4.4199,-4.4617,-4.5271,-4.467,-4.5088,-4.5924,-4.71,-4.7702,-4.8015,-4.8015,-4.8904,-5.0368,-5.2694,-5.3243,-5.3426,-5.353,-5.3452,-5.3008,-5.204,-5.238,-5.225,-5.1204,-5.1518,-5.1544,-5.0969,-5.0943,-5.0681,-5.008,-5.008,-5.0289,-5.0786,-5.0786,-5.1073,-5.1596,-5.1596,-5.1596,-5.1648,-5.2851,-5.34,-5.3452,-5.4602,-5.5099,-5.5099,-5.5099,-5.5412,-5.5961,-5.6432,-5.7059,-5.7712,-5.8183,-5.8418,-5.8523,-4.4304,-4.5245,-4.6682,-4.8695,-5.0002,-5.1361,-5.3086,-5.2851,-5.3008,-5.4445,-5.6667,-5.8418,-5.9281,-5.9359,-5.8444,-5.6144,-5.4105,-5.1858,-4.9244,-4.7989,-4.7074,-4.6499,-4.7022,-4.7597,-4.8172,-4.7623,-4.7336,-4.7362,-4.6473,-4.5898,-4.5611,-4.6212,-4.6787,-4.7362,-4.7937,-4.8355,-4.8773,-5.0786,-5.1962,-5.2851,-5.6876,-6.0065,-6.2496,-6.3358,-6.4587,-6.5763,-6.5475,-6.5371,-6.4953,-6.2051,-5.9542,0.0,-5.2903,-5.1047,-4.9949,0.0,-4.7127,-4.6787,0.0,0.0,0.0,-4.6417,0.0,0.0,0.0,-4.3885,-4.3807,-4.352,-4.3441,-4.3807,-4.4957,-4.5192,-4.5375,-4.595,-4.6787,-4.7963,-4.9688,-5.0681,-5.1126,-5.0838,-5.1073,-5.1021,-5.0394,-5.0864,-5.0969,-5.0394,-5.0603,-5.0629,-5.0368,-5.0342,-5.008,-4.9505,-4.9479,-4.9766,-5.0342,-5.0342,-5.076,-5.1596,-5.1596,-5.1596,-5.1648,-5.2851,-5.34,-5.3452,-5.4602,-5.5099,-5.5099,-5.5099,-5.5595,-5.6379,-5.6693,-5.732,-5.8131,-5.8418,-5.8523,-5.8523,-4.4304,-4.5349,-4.6996,-4.9191,-5.1204,-5.3086,-5.4837,-5.5282,-5.5935,-5.7294,-5.9594,-6.0718,-5.962,-5.983,-5.9072,-5.6641,-5.4471,-5.238,-5.0368,-4.9165,-4.8068,-4.7022,-4.7519,-4.8433,-4.9714,-4.8381,-4.8015,-4.8747,-4.7336,-4.6578,-4.6499,-4.7074,-4.7571,-4.8041,-4.825,-4.8695,-4.9296,-4.9949,-5.1282,-5.3452,-5.8679,-6.098,-6.1633,-6.477,-6.6286,-6.6808,-6.7148,-6.6599,-6.5345,-6.294,-6.1058,-5.8941,-5.455,-5.3086,0.0,0.0,0.0,0.0,0.0,0.0,0.0,0.0,0.0,-4.5532,0.0,0.0,0.0,0.0,0.0,0.0,0.0,0.0,0.0,0.0,0.0,0.0,0.0,-4.7414,0.0,-4.8172,-4.8616,-4.8878,-4.8747,-4.9139,-4.9453,-4.9557,-4.9662,-4.9688,-4.9557,-4.9662,-4.9479,-4.893,-4.8904,-4.9218,-4.9871,-4.9897,-5.0472,-5.1596,-5.1596,-5.1648,-5.1805,-5.2903,-5.3452,-5.3609,-5.4654,-5.5099,-5.5125,-5.5229,-5.5883,-5.6798,-5.6798,-5.7503,-5.8523,-5.8523,-5.8523,-5.8523,-4.5454,-4.5584,-4.629,-4.8068,-5.0655,-5.3086,-5.4837,-5.5961,-5.7399,-5.9542,-6.0588,-6.1633,-6.294,-6.0927,-5.9934,-6.1084,-5.5935,-5.3112,-5.4341,-5.1465,-4.9427,-4.8826,-4.9322,-4.9453,-4.9191,-4.8982,-4.8433,-4.7487,-4.7336,-4.697,-4.6499,-4.7074,-4.7304,-4.7466,-4.8512,-4.9296,-4.9871,-5.0943,-5.272,-5.5099,-5.8287,-5.9307,-5.9333,-6.3254,-6.5083,-6.5789,-6.7331,-6.7462,-6.6469,0.0,-6.1921,-6.03,0.0,-5.5203,-5.4445,-5.2642,0.0,0.0,0.0,0.0,0.0,0.0,-5.0969,0.0,0.0,0.0,-4.5428,-4.3441,0.0,0.0,0.0,0.0,0.0,0.0,0.0,0.0,-4.3572,-4.4068,-4.5401,-4.7885,-4.825,-4.8094,-4.7597,-4.7539,-4.7832,-4.8329,-4.8878,-4.893,-4.8407,-4.8878,-4.8904,-4.8303,-4.8277,-4.8799,-4.9871,-4.9897,-5.0472,-5.1596,-5.1596,-5.1884,-5.2406,-5.3086,-5.3661,-5.4158,-5.4811,-5.5099,-5.5151,-5.5621,-5.6196,-5.6798,-5.6798,-5.7503,-5.8523,-5.8523,-5.8523,-5.8523,-4.5114,-4.5663,-4.6552,-4.7937,-4.974,-5.1805,-5.421,-5.7843,-6.064,-6.1607,-6.3123,-6.4404,-6.5109,-6.2914,-6.1267,-6.098,-5.7608,-5.4942,-5.3687,-5.1596,-5.0159,-4.9584,-4.9479,-4.9636,-5.0054,-4.9427,-4.8852,-4.8355,-4.7989,-4.7545,-4.6996,-4.7571,-4.8015,-4.8381,-4.8852,-4.9949,-5.1439,-5.191,-5.3269,-5.5282,-5.7503,-5.8444,-5.9019,-6.375,-6.6103,-6.6991,-6.7723,-6.7592,-6.6704,0.0,-6.2548,0.0,0.0,0.0,0.0,0.0,0.0,0.0,0.0,0.0,0.0,0.0,0.0,0.0,-4.7466,0.0,-4.5192,0.0,0.0,0.0,0.0,0.0,0.0,0.0,-4.3284,0.0,0.0,0.0,-4.3833,0.0,0.0,0.0,-4.6787,-4.6839,-4.6944,-4.7179,-4.744,-4.7597,-4.7675,-4.7937,-4.8094,-4.8172,-4.8172,-4.8721,-4.9871,-4.9897,-5.0472,-5.1596,-5.1936,-5.2067,-5.2014,-5.3295,-5.3818,-5.3792,-5.4707,-5.5099,-5.5125,-5.5334,-5.5987,-5.6798,-5.6798,-5.7503,-5.8523,-5.8523,-5.8523,-5.8523,-4.4877,0.0,-4.6264,-4.71,-4.859,-5.0812,-5.4158,-5.8235,-6.1267,-6.2234,-6.3672,-6.4979,-6.592,-6.4116,-6.2705,-6.2365,-6.0065,-5.7399,-5.4576,-5.2877,-5.1413,-5.0185,-4.9766,-4.9871,-5.0524,-4.9584,-4.9008,-4.8826,-4.8407,-4.8068,-4.7832,-4.8068,-4.859,-4.9322,-4.9793,-5.1126,-5.3008,-5.3818,-5.5151,-5.6902,-5.8627,-5.9856,-6.1032,-6.4482,-6.6599,-6.7723,-6.7566,-6.7253,-6.6547,-6.4404,-6.3018,0.0,-6.0143,0.0,0.0,0.0,0.0,0.0,-5.4105,0.0,0.0,0.0,0.0,0.0,0.0,0.0,0.0,0.0,0.0,0.0,0.0,0.0,0.0,0.0,0.0,-4.3101,0.0,0.0,0.0,0.0,0.0,0.0,0.0,-4.6003,-4.6003,-4.6003,-4.6159,-4.6499,-4.7074,-4.7257,-4.7597,-4.8172,-4.8172,-4.8721,-4.9871,-4.9897,-5.0472,-5.1596,-5.204,-5.2197,-5.2145,-5.34,-5.3949,-5.3896,-5.4733,-5.5099,-5.5125,-5.5255,-5.5909,-5.6824,-5.6981,-5.7634,-5.8523,-5.8523,-5.8523,-5.8523,-4.548,-4.5111,-4.48,-4.4826,-4.7205,-5.0629,-5.5177,-5.6013,-5.7346,-6.0744,-6.0744,-6.1685,-6.5057,-6.3881,-6.4142,-6.7462,-6.362,-6.0483,-5.9228,-5.651,-5.3713,-5.089,0.0,-5.0472,0.0,-4.9374,-4.8799,-4.8224,-4.8198,-4.8486,-4.9008,-4.8433,-4.8773,-4.9949,-5.1622,-5.3034,-5.4341,-5.7137,-5.9333,-6.1084,-6.2783,-6.4508,-6.592,-6.4953,-6.5632,-6.7044,-6.6521,0.0,0.0,-6.4273,-6.328,-6.2496,-6.0744,0.0,0.0,0.0,0.0,0.0,0.0,0.0,0.0,-5.4184,0.0,0.0,0.0,0.0,-4.9087,0.0,0.0,0.0,0.0,0.0,0.0,0.0,0.0,0.0,0.0,0.0,0.0,0.0,0.0,0.0,0.0,-4.4774,-4.4774,-4.4774,-4.5323,-4.5898,-4.6473,-4.7022,-4.7597,-4.8172,-4.8172,-4.8721,-4.9871,-4.9897,-5.0472,-5.1596,-5.1622,-5.2223,-5.3347,-5.34,-5.4027,-5.5046,-5.5072,-5.5099,-5.5151,-5.5674,-5.6249,-5.6876,-5.7425,-5.8,-5.8523,-5.8523,-5.8523,-5.8523,-4.5529,-4.5767,-4.5898,-4.5898,-4.7022,-4.9348,-5.3609,-5.5857,-5.8732,-6.3332,-6.443,-6.639,-7.0624,-7.0206,-6.9788,-7.0206,-6.7775,-6.5083,-6.2391,-5.9176,-5.6745,-5.5386,-5.387,-5.2589,0.0,0.0,0.0,-4.8773,-4.8773,-4.8669,-4.8486,-4.8277,-4.8616,-4.9427,-5.1152,-5.2746,-5.4419,-5.7686,-5.9647,-6.0744,-6.3227,-6.5292,-6.6756,0.0,-6.605,-6.6547,-6.6338,-6.6286,-6.6129,-6.5136,-6.4168,-6.328,-6.2705,-6.1319,-5.9856,-5.9464,-5.9228,-5.8915,0.0,0.0,-5.881,-5.5386,0.0,0.0,0.0,0.0,0.0,0.0,0.0,0.0,0.0,0.0,0.0,0.0,0.0,0.0,0.0,0.0,0.0,0.0,0.0,0.0,0.0,0.0,-4.4565,-4.4199,-4.4696,-4.5297,-4.5872,-4.6473,-4.7022,-4.7597,-4.8381,-4.9139,-4.9871,-5.0289,-5.0864,-5.1596,-5.2406,-5.2798,-5.2825,-5.4001,-5.4524,-5.4524,-5.4942,-5.5099,-5.5151,-5.5674,-5.6275,-5.6876,-5.7425,-5.8,-5.8523,-5.8523,-5.8523,-5.8523,-4.6182,-4.6525,-4.6708,-4.6499,-4.7466,-4.9401,-5.2877,-5.651,-6.0378,-6.4534,-6.6991,-6.9788,-7.3604,-7.3839,-7.3526,-7.2977,-7.1748,-6.9004,-6.4299,-6.2469,0.0,-5.7835,-5.6432,-5.502,0.0,0.0,0.0,0.0,-4.9584,-4.9479,-4.9087,-4.8486,-4.8721,-4.9766,-5.1256,-5.2877,-5.4785,-5.8653,-6.0744,-6.1659,0.0,-6.5841,0.0,0.0,-6.6207,-6.6521,-6.6103,-6.5972,-6.5894,-6.5528,-6.477,-6.3933,-6.375,-6.2365,-6.0771,-6.0352,-5.996,-5.949,-5.8732,-5.9202,0.0,-5.6667,-5.6013,0.0,-5.238,0.0,0.0,0.0,0.0,0.0,0.0,0.0,0.0,0.0,0.0,0.0,0.0,-4.3258,0.0,0.0,0.0,0.0,0.0,0.0,-4.4356,-4.4199,-4.4513,-4.4929,-4.5584,-4.6159,-4.6734,-4.7252,-4.8486,-4.9348,-4.9871,-5.0498,-5.1073,-5.1596,-5.2616,-5.2981,-5.2851,-5.4184,-5.468,-5.455,-5.4942,-5.5099,-5.5151,-5.5674,-5.6275,-5.6876,-5.7425,-5.8,-5.8523,-5.8523,-5.8523,-5.8523,-4.7278,-4.733,-4.7257,-4.6734,-4.8433,-5.0681,-5.3034,-5.7739,-6.1921,-6.4378,-6.822,-7.1644,-7.4049,-7.478,-7.5329,-7.5852,-7.5355,-7.2193,-6.5475,-6.6469,0.0,0.0,-5.8575,-5.7739,-5.5412,0.0,0.0,0.0,0.0,-5.0812,-5.0786,-4.9008,-4.9087,-5.0812,-5.1962,-5.3452,-5.536,-5.9934,-6.26,-6.3881,-6.558,-6.6312,-6.6259,-6.5632,-6.6103,-6.6939,-6.5789,-6.5371,-6.5371,-6.5371,-6.5031,-6.4482,-6.3933,-6.2966,-6.1842,-6.0718,-6.0352,-6.0091,-5.9019,-5.9098,-5.9228,-5.8175,-5.7835,0.0,0.0,0.0,-5.5177,0.0,0.0,0.0,0.0,0.0,0.0,0.0,0.0,0.0,0.0,0.0,0.0,0.0,0.0,0.0,0.0,-4.4173,-4.4095,-4.4591,-4.475,-4.5038,0.0,-4.6215,-4.6791,-4.7283,-4.8486,-4.9374,-4.9897,-5.0498,-5.11,-5.1648,-5.225,-5.2851,-5.3452,-5.4001,-5.455,-5.5099,-5.5125,-5.5151,-5.5177,-5.5752,-5.6327,-5.6902,-5.7477,-5.8026,-5.8523,-5.8523,-5.8523,-5.8523,-4.7357,-4.8041,-4.8721,-4.8982,-4.9505,-5.0681,-5.3034,-5.7059,-6.1581,-6.6469,-7.0232,-7.3996,-7.8048,-7.8231,-7.8126,-7.8283,-7.7368,-7.5512,0.0,0.0,0.0,-6.5475,-6.3829,-6.1711,-5.8967,-5.7921,0.0,-5.3766,0.0,-5.0995,-5.1335,-4.9191,-4.8878,-5.0185,-5.1779,-5.3217,-5.4707,-5.8889,-6.2077,-6.443,-6.5763,-6.6521,-6.6782,0.0,-6.6103,-6.6939,-6.5789,-6.5371,-6.5371,-6.5371,-6.5292,-6.5136,-6.5005,-6.4168,-6.3175,-6.2888,-6.2182,-6.1555,-6.1685,-6.1529,-6.1136,-6.0405,-5.9255,-5.7869,0.0,0.0,0.0,0.0,0.0,0.0,0.0,0.0,0.0,0.0,0.0,0.0,0.0,0.0,0.0,-4.3912,0.0,0.0,-4.3467,-4.3702,-4.3755,-4.3493,-4.5023,-4.5662,-4.4957,0.0,-4.7393,-4.6739,-4.8643,-4.974,-4.9897,-5.089,-5.1675,-5.2276,-5.2877,-5.3452,-5.4001,-5.4602,-5.4968,-5.5125,-5.5517,-5.57,-5.5778,-5.6798,-5.7294,-5.7503,-5.8078,-5.8392,-5.8523,-5.8523,-5.8523,-5.8523,-4.8172,-4.9218,-5.0211,-5.0263,-5.1962,-5.3818,-5.5386,-5.8209,-6.1921,-6.6939,-7.0807,-7.4101,-7.6715,-7.8309,-7.9172,-7.9172,-7.857,0.0,-7.4284,0.0,0.0,-6.8481,-6.7122,-6.4953,-6.179,-6.0117,0.0,-5.4707,0.0,-5.1178,-5.1204,-4.9139,-4.8799,-4.9949,-5.1204,-5.2668,-5.4471,-5.8784,-6.213,-6.456,-6.4979,-6.5475,0.0,-6.4979,-6.5031,-6.5554,-6.5162,-6.5188,-6.5345,-6.5109,-6.5188,-6.5345,-6.5083,-6.456,-6.4064,-6.4064,-6.341,-6.2731,-6.2809,-6.26,-6.2208,-6.1633,-6.0744,-5.9594,-5.7921,-5.7791,-5.7529,0.0,-5.4811,-5.4001,0.0,0.0,0.0,0.0,0.0,0.0,0.0,0.0,0.0,0.0,-4.4016,0.0,-4.4068,-4.3993,-4.4045,-4.4492,-4.5681,-4.6111,0.0,0.0,-4.7618,-4.6529,-4.9817,-5.1062,-4.9897,-5.2201,-5.3012,-5.2511,-5.3112,-5.3687,-5.421,-5.4811,-5.5229,-5.5465,-5.5778,-5.6066,-5.6379,-5.7294,-5.773,-5.7712,-5.8287,-5.8523,-5.8523,-5.8523,-5.8523,-5.8523,-4.9296,-5.0603,-5.1544,-5.0995,-5.4654,-5.8026,-5.9124,-6.098,-6.3541,-6.7174,-7.1226,-7.3787,-7.3787,-7.7002,-7.9172,-7.9172,-7.9093,-7.7525,-7.3918,-7.4885,-7.3761,-6.9579,-6.9265,-6.7592,-6.4195,-6.179,-5.8706,0.0,0.0,-5.1387,-5.0969,-4.9087,-4.8826,-5.0028,-5.0551,0.0,0.0,-5.9019,-6.2077,-6.3933,-6.3672,-6.3959,-6.4482,-6.3985,-6.3829,-6.3959,-6.4456,-6.49,-6.5214,-6.4796,-6.4979,-6.5292,-6.4796,-6.4639,-6.4639,-6.456,-6.4168,-6.3672,-6.3097,-6.2888,-6.2679,-6.2104,-6.1842,-6.1189,-5.9098,-5.8575,-5.8235,-5.7242,-5.5282,-5.4001,-5.4942,0.0,0.0,0.0,0.0,0.0,0.0,0.0,0.0,0.0,0.0,0.0,-4.5511,-4.4677,-4.4784,-4.6367,-4.6684,0.0,0.0,0.0,-4.7728,-4.6529,-5.0885,-5.2286,-5.0132,-5.3458,-5.4333,-5.2851,-5.3295,-5.3792,-5.4341,-5.4863,-5.536,-5.5804,-5.5961,-5.6327,-5.685,-5.7503,-5.7765,-5.7817,-5.8314,-5.8523,-5.8523,-5.8523,-5.8523,-5.8523,-5.0394,-5.1492,-5.2145,-5.157,-5.4889,-5.8967,-6.2888,-6.6155,-6.8769,-7.0442,-7.4597,-7.7394,-7.7394,-7.8466,-7.9172,-7.9172,-7.8727,0.0,0.0,0.0,0.0,-7.2428,-7.1461,-6.9553,-6.6547,-6.3776,-6.1084,0.0,-5.3844,-5.1805,-5.2145,-4.9453,-4.9061,-5.0629,0.0,0.0,-5.5151,-5.8314,0.0,-6.1084,-6.2443,-6.3593,-6.4534,-6.443,-6.4665,-6.5083,-6.5188,-6.5005,-6.4743,-6.5109,-6.5292,-6.5371,-6.5266,-6.524,-6.5136,-6.4665,-6.4456,-6.4247,-6.3672,-6.3175,-6.2679,-6.2104,-6.1241,-6.03,-5.9411,-5.8862,-5.847,-5.8261,-5.6745,-5.5386,-5.5151,0.0,0.0,0.0,0.0,0.0,0.0,0.0,0.0,0.0,0.0,-4.5549,0.0,-4.5621,-4.5738,-4.6857,0.0,0.0,0.0,0.0,-4.8544,0.0,-4.9173,-5.0769,0.0,0.0,-5.3579,-5.4654,-5.4262,-5.4367,-5.4942,-5.5046,-5.5151,-5.5308,-5.6249,-5.6719,-5.6876,-5.7948,-5.8366,-5.8366,-5.847,-5.8523,-5.8523,-5.8523,-5.8523,-5.8523,-5.2511,-5.3243,-5.4131,-5.502,-5.8523,-6.2469,-6.6207,-6.9971,-7.2271,-7.1905,-7.4049,-7.5512,-7.5225,-7.7316,-7.8727,-7.8727,-7.8204,-7.7629,-7.7054,-7.5695,-7.4362,-7.316,-7.2323,-7.0651,-6.8063,-6.49,-6.1842,-5.8915,-5.4314,-5.1753,-5.1126,-4.9427,-4.9244,-5.0394,0.0,-5.3661,0.0,0.0,-5.9594,-6.0771,-6.1607,-6.2626,-6.362,-6.3306,-6.3567,-6.409,-6.4404,-6.4508,-6.456,-6.4848,-6.5136,-6.5266,-6.4691,-6.4691,-6.4822,-6.4247,-6.4299,-6.4351,-6.3463,-6.3254,-6.3045,-6.2182,-6.1319,-6.0535,-5.9934,-5.9359,-5.8862,-5.8575,-5.7608,-5.6379,-5.4916,-5.2511,0.0,0.0,0.0,0.0,0.0,0.0,0.0,0.0,0.0,0.0,0.0,0.0,0.0,0.0,0.0,0.0,0.0,0.0,-4.8843,0.0,0.0,0.0,-5.1596,0.0,-5.4543,-5.4628,-5.4341,-5.4524,-5.5099,-5.5099,-5.5412,-5.6013,-5.6562,-5.7137,-5.7739,-5.8287,-5.8523,-5.8523,-5.8523,-5.8523,-5.8523,-5.8523,-5.8523,-5.8523,-5.4916,-5.5621,-5.6798,-5.8732,-6.26,-6.6259,-6.8664,-7.2585,-7.4728,-7.3238,-7.3604,-7.3787,-7.3108,-7.6296,-7.8361,-7.7995,-7.7656,-7.7159,-7.6479,-7.5355,-7.4232,-7.316,-7.2585,-7.1278,-6.9082,-6.5737,-6.2339,0.0,-5.4837,-5.191,-5.008,-4.9505,0.0,0.0,0.0,0.0,-5.5857,-5.7582,-5.9255,-6.0771,-6.1136,-6.1973,-6.2966,-6.2652,-6.2862,-6.3437,-6.3881,-6.4325,-6.4717,-6.4717,-6.5005,-6.5214,-6.4325,-6.4351,-6.4587,-6.4038,-6.4168,-6.4273,-6.3149,-6.3149,-6.3227,-6.2077,-6.145,-6.0927,-6.0195,-5.9699,-5.9202,-5.8627,-5.8052,-5.6981,-5.4811,-5.3269,0.0,0.0,0.0,0.0,0.0,0.0,0.0,0.0,0.0,0.0,-4.7684,0.0,0.0,0.0,0.0,0.0,-4.6816,0.0,0.0,0.0,0.0,-5.3039,-5.2375,0.0,-5.5301,-5.455,-5.4445,-5.4707,-5.5282,-5.5282,-5.583,-5.6824,-5.6928,-5.7582,-5.8523,-5.8523,-5.8523,-5.8523,-5.8523,-5.8523,-5.8523,-5.8523,-5.8523,-5.8523,-5.7242,-5.8627,-5.9986,-6.0744,-6.5083,-6.8716,-6.9501,-7.35,-7.6192,-7.5486,-7.6375,-7.6636,-7.5512,-7.7603,-7.8466,-7.6924,-7.7185,-7.7002,-7.5878,-7.4728,-7.3787,-7.3134,-7.2585,-7.1461,-6.9657,-6.673,-6.3515,0.0,-5.6013,-5.2903,-5.0681,0.0,0.0,-5.1492,-5.2877,-5.4105,-5.5282,-5.7007,-5.8444,-5.9673,-6.1267,-6.2574,-6.3646,-6.4116,-6.4639,-6.5162,-6.5214,-6.5266,-6.5318,-6.5318,-6.5345,-6.5371,-6.5266,-6.5266,-6.5188,-6.4613,-6.4482,-6.4273,-6.3149,-6.2862,-6.2626,-6.1476,-6.1163,-6.0823,-5.9699,-5.9411,-5.9202,-5.8627,-5.8052,-5.7111,-5.5334,-5.4889,-5.4053,0.0,0.0,0.0,0.0,0.0,0.0,0.0,0.0,0.0,0.0,-4.7688,0.0,0.0,-4.8993,0.0,0.0,0.0,0.0,-4.9006,-5.0905,-5.2881,-5.4835,-5.4092,-5.4367,-5.5752,-5.5255,-5.5308,-5.583,-5.583,-5.6196,-5.685,-5.7346,-5.7948,-5.8523,-5.8523,-5.8523,-5.8523,-5.8523,-5.8523,-5.8523,-5.8523,-5.8523,-5.8601,-6.1163,-6.1555,-6.2522,-6.4822,-6.6965,-6.9108,-7.1382,-7.3944,-7.5512,-7.5251,-7.6532,-7.729,-7.6819,-7.729,-7.7211,-7.6166,-7.627,-7.593,-7.4754,-7.4258,-7.3604,-7.2663,-7.2062,-7.1278,-7.0259,-6.7749,-6.4743,0.0,0.0,0.0,0.0,-5.1727,-5.1701,-5.2197,-5.3739,-5.4863,-5.5726,-5.7791,-5.9359,-6.0535,-6.1921,-6.2966,-6.3698,-6.3933,-6.4378,-6.4874,-6.4874,-6.5083,-6.5371,-6.5371,-6.5371,-6.5318,-6.4979,-6.4639,-6.4299,-6.409,-6.3776,-6.341,-6.294,-6.2835,-6.2626,-6.1842,-6.111,-6.0457,-5.9986,-5.9359,-5.8784,-5.8549,-5.8052,-5.7521,-5.6771,-5.5804,-5.4785,-5.3844,0.0,0.0,0.0,0.0,0.0,0.0,0.0,0.0,0.0,0.0,0.0,0.0,0.0,0.0,0.0,-4.9655,0.0,-5.1294,0.0,-5.2826,-5.5184,-5.4308,-5.4393,-5.5412,-5.5543,-5.57,-5.5909,-5.6275,-5.6771,-5.7346,-5.7921,-5.8314,-5.8523,-5.8523,-5.8523,-5.8523,-5.8523,-5.8523,-5.8523,-5.8523,-5.8732,-5.9045,-6.4273,-6.4378,-6.5292,-6.8246,-6.9161,-7.0311,-7.2742,-7.397,-7.4702,-7.4885,-7.58,-7.6584,-7.6898,-7.6898,-7.6479,-7.5565,-7.5617,-7.5146,-7.3839,-7.3735,-7.3317,-7.235,-7.1905,0.0,-7.0624,-6.8664,-6.6103,-6.2966,-6.0326,0.0,0.0,-5.3269,-5.3034,-5.3556,-5.4968,-5.6013,-5.6824,-5.8967,-6.0457,-6.1476,-6.2809,-6.3567,-6.3933,-6.4116,-6.443,-6.477,-6.477,-6.5031,-6.5371,-6.5371,-6.5371,-6.5318,-6.49,-6.4508,-6.4142,-6.3985,-6.3515,-6.3045,-6.2862,-6.2705,-6.2469,-6.2077,-6.1346,-6.064,-6.03,-5.9594,-5.8915,-5.8575,-5.8183,-5.7869,-5.7756,-5.6536,-5.5491,-5.5151,0.0,0.0,0.0,0.0,0.0,0.0,-4.9308,-4.8881,-4.8734,-4.8966,0.0,0.0,0.0,0.0,-4.9559,-5.0413,-5.1456,0.0,0.0,0.0,-5.5456,-5.4599,-5.4576,-5.5334,-5.5726,-5.6092,-5.6432,-5.7033,-5.7529,-5.7921,-5.834,-5.8523,-5.8523,-5.8523,-5.8523,-5.8523,-5.8523,-5.8523,-5.8523,-5.8706,-5.9019,-5.9411,-6.592,-6.7148,-6.8481,-7.0259,-7.1931,-7.3055,-7.3108,-7.363,-7.4232,-7.4833,-7.4414,-7.4493,-7.5617,-7.6767,-7.6767,-7.5068,-7.5408,-7.4963,-7.3238,-7.3108,-7.2872,0.0,0.0,-7.1748,-7.0624,-6.9422,-6.7671,-6.5345,0.0,0.0,-5.6719,-5.4445,-5.4262,-5.5883,-5.651,-5.7425,-5.8601,-6.0352,-6.1424,-6.2104,-6.3829,-6.4508,-6.4587,-6.5136,-6.5371,-6.5371,-6.5371,-6.5371,-6.5371,-6.5371,-6.5371,-6.5371,-6.5371,-6.5371,-6.524,-6.4691,-6.4116,-6.3541,-6.2966,-6.2417,-6.1973,-6.1973,-6.1973,-6.1659,-6.0483,-6.0222,-5.9882,-5.8758,-5.8497,-5.834,-5.7835,-5.719,-5.6432,-5.5282,0.0,0.0,0.0,0.0,0.0,0.0,-5.1851,-5.0607,-5.0096,-4.9907,0.0,0.0,-4.9633,-5.064,-5.0694,-5.1337,-5.1961,-5.2593,-5.3125,0.0,-5.6042,-5.4811,-5.4785,-5.5909,-5.5909,-5.651,-5.773,-5.8235,-5.8497,-5.8497,-5.8523,-5.8523,-5.8523,-5.8523,-5.8523,-5.8523,-5.8523,-5.8523,-5.8575,-5.915,-5.9359,-5.9542,-6.7854,-6.8638,-6.9448,-7.0415,-7.133,-7.2088,-7.2506,-7.3029,-7.3474,-7.3656,-7.3866,-7.4153,-7.4519,-7.4885,-7.4728,0.0,-7.4205,-7.3996,0.0,-7.2898,-7.2872,-7.2323,-7.1565,-7.0964,-7.0598,-6.9448,-6.7906,-6.5998,0.0,0.0,-5.9124,-5.8392,-5.8131,-5.8314,-5.9307,-6.0169,-6.0953,-6.2287,-6.3201,-6.3803,-6.4743,-6.5109,-6.5136,-6.5318,-6.5371,-6.5371,-6.5371,-6.5371,-6.5371,-6.5371,-6.5371,-6.5371,-6.5371,-6.4848,-6.4273,-6.4482,-6.3855,-6.3149,-6.3358,-6.2992,-6.2469,-6.2077,-6.1685,-6.1293,-6.0927,-6.0222,-5.9542,-5.9176,-5.8784,-5.8444,-5.8287,-5.7451,-5.6693,-5.6327,-5.5099,0.0,0.0,0.0,0.0,0.0,-5.1134,-5.0578,-5.0029,-5.0216,0.0,0.0,0.0,-5.2601,-5.1367,-5.1873,-5.2825,0.0,-5.41,0.0,-5.607,-5.5604,-5.5543,-5.5909,-5.6719,-5.7503,-5.8261,-5.8418,-5.8523,-5.8523,-5.8523,-5.8523,-5.8523,-5.8523,-5.8523,-5.8523,-5.8523,-5.8758,-5.9124,-5.9307,-5.9882,-6.0614,-6.8685,-6.9501,-7.0076,-7.0232,-7.1069,-7.1801,-7.1931,-7.2454,-7.2794,-7.2794,-7.3134,-7.3369,-7.3369,-7.3369,-7.3291,-7.3134,-7.3447,-7.3291,-7.2376,-7.2611,-7.2663,-7.2323,-7.1409,-7.0807,-7.0598,-6.9657,-6.8533,-6.7253,-6.5998,-6.4064,-6.1502,-6.1084,-6.0797,-6.0692,-6.1424,-6.1947,-6.2365,-6.3515,-6.4195,-6.4587,-6.5397,-6.558,-6.5397,-6.5632,-6.558,-6.5371,-6.5371,-6.5371,-6.5371,-6.5371,-6.5371,-6.5345,-6.5136,-6.4587,-6.4038,-6.4168,-6.3567,-6.2862,-6.2992,-6.2783,-6.2417,-6.2051,-6.1711,-6.1319,-6.0875,-6.0039,-5.9307,-5.9098,-5.8758,-5.8523,-5.8523,-5.7582,-5.6798,-5.6798,-5.5543,-5.4419,-5.4079,0.0,0.0,0.0,0.0,-5.1652,-5.1255,-5.1352,-5.1665,0.0,0.0,0.0,-5.1662,-5.2787,-5.3882,-5.4828,-5.4421,-5.4787,-5.6034,-5.5945,-5.6118,-5.6588,-5.7529,-5.8157,-5.8523,-5.8523,-5.8523,-5.8523,-5.8523,-5.8523,-5.8523,-5.8523,-5.8523,-5.8523,-5.8523,-5.8862,-5.9385,-5.9594,-6.03,-6.1136,-6.8847,-6.9762,-7.0363,-6.984,-7.1121,-7.2062,-7.1539,-7.1931,-7.2297,-7.2297,-7.2297,-7.2297,-7.2297,-7.2297,-7.2506,-7.3003,-7.3055,-7.2846,-7.2323,-7.2297,-7.2297,-7.2297,-7.1696,-7.1095,-7.0598,-6.9971,-6.937,-6.8764,-6.6652,-6.5005,-6.3881,-6.2835,-6.26,-6.3071,-6.3097,-6.3123,-6.3201,-6.4247,-6.4691,-6.4743,-6.5841,-6.592,-6.5449,-6.5998,-6.5894,-6.5449,-6.5397,-6.5423,-6.5449,-6.5397,-6.5371,-6.5292,-6.477,-6.456,-6.443,-6.3855,-6.3306,-6.2757,-6.2182,-6.2025,-6.2025,-6.1973,-6.1973,-6.1685,-6.0588,-5.9908,-5.9333,-5.8758,-5.8601,-5.8549,-5.8523,-5.7608,-5.685,-5.6824,-5.5883,-5.5125,-5.5046,0.0,0.0,0.0,0.0,-5.3437,-5.3525,-5.295,-5.2172,0.0,0.0,0.0,0.0,0.0,-5.5038,-5.4407,-5.4354,-5.4904,-5.6097,-5.6081,-5.6588,-5.7739,-5.8261,-5.8523,-5.8523,-5.8523,-5.8523,-5.8523,-5.8523,-5.8523,-5.8523,-5.8523,-5.8523,-5.8523,-5.8523,-5.8889,-5.949,-6.0013,-6.064,-6.1267,-6.9071,-6.9422,-6.9997,-7.0337,-7.1069,-7.1722,-7.2036,-7.2219,-7.2297,-7.2297,-7.2297,-7.2297,-7.2297,-7.2297,-7.235,-7.248,-7.248,-7.2428,-7.2323,-7.2297,-7.2297,-7.2297,-7.133,-7.0729,-7.0598,-6.9579,-6.8978,-6.8764,-6.7854,-6.6991,-6.6286,-6.5998,-6.5737,-6.5475,-6.5894,-6.6076,-6.6103,-6.6364,-6.6233,-6.5894,-6.6181,-6.592,-6.5397,-6.5554,-6.5789,-6.6024,-6.5554,-6.5684,-6.5998,-6.5528,-6.5371,-6.5371,-6.5214,-6.4874,-6.443,-6.3855,-6.3593,-6.3358,-6.2783,-6.2626,-6.2522,-6.2077,-6.1973,-6.1894,-6.1633,-6.111,-6.0535,-5.9934,-5.9464,-5.9045,-5.8601,-5.7948,-5.732,-5.6876,-5.6196,-5.5412,-5.455,-5.4184,0.0,0.0,-5.3561,-5.3403,-5.3403,-5.3271,-5.3482,0.0,0.0,-5.4832,-5.6486,-5.6519,-5.6541,-5.6488,-5.5855,-5.6369,-5.8173,-5.7599,-5.7608,-5.8314,-5.8444,-5.8523,-5.8523,-5.8523,-5.8523,-5.8523,-5.8523,-5.8523,-5.8523,-5.8523,-5.8523,-5.8523,-5.8523,-5.9124,-6.0039,-6.0169,-6.0875,-6.1842,-7.1745,-7.2287,-7.2909,-7.2991,-7.3695,-7.3952,-7.3181,-7.3362,-7.3203,-7.2385,-7.2297,-7.2297,-7.2297,-7.2297,-7.2297,-7.2297,-7.2297,-7.2297,-7.2297,-7.2297,-7.2297,-7.2297,-7.12,-7.0598,-7.0598,-6.9448,-6.8764,-6.8764,-6.8533,-6.822,-6.788,-6.7619,-6.7357,-6.707,-6.707,-6.7096,-6.7096,-6.7096,-6.6782,-6.6338,-6.6861,-6.639,-6.5449,-6.5972,-6.605,-6.5841,-6.5501,-6.558,-6.5815,-6.5501,-6.5371,-6.5371,-6.5371,-6.5188,-6.4822,-6.4221,-6.3881,-6.3541,-6.2966,-6.2835,-6.2757,-6.2443,-6.2156,-6.1973,-6.1973,-6.1529,-6.0875,-6.0013,-5.9568,-5.9202,-5.8627,-5.8052,-5.7477,-5.6902,-5.6301,-5.5595,-5.4733,-5.4367,-5.4105,-5.3792,-5.3766,-5.387,-5.4158,-5.4184,-5.459,-5.5427,-5.5252,0.0,-5.7021,-5.6658,-5.6754,-5.7499,-5.6729,-5.6999,-5.8346,-5.8157,-5.8209,-5.8523,-5.8523,-5.8523,-5.8523,-5.8523,-5.8523,-5.8523,-5.8523,-5.8523,-5.8523,-5.8523,-5.8523,-5.8523,-5.8523,-5.9228,-6.0222,-6.0222,-6.0953,-6.2051,-7.4794,-7.5751,-7.6426,-7.6004,-7.6605,-7.6537,-7.4772,-7.451,-7.4096,-7.2882,-7.2472,-7.2297,-7.2297,-7.2297,-7.2297,-7.2297,-7.2297,-7.2297,-7.2297,-7.2219,-7.2167,-7.2167,-7.1069,-7.0468,-7.0468,-6.9396,-6.8764,-6.8764,-6.8764,-6.8764,-6.8764,-6.835,-6.8115,-6.8089,-6.7592,-6.7357,-6.7357,-6.7357,-6.7044,-6.6625,-6.7592,-6.7044,-6.5737,-6.673,-6.6495,-6.5632,-6.5554,-6.5528,-6.5501,-6.5423,-6.5371,-6.5371,-6.5371,-6.5371,-6.5292,-6.4796,-6.4325,-6.3803,-6.3123,-6.2966,-6.294,-6.2835,-6.2522,-6.2234,-6.2234,-6.179,-6.1084,-5.9986,-5.962,-5.9307,-5.8758,-5.8183,-5.7582,-5.6902,-5.6379,-5.583,-5.5203,0.0,-5.4367,-5.4445,-5.4471,-5.4707,-5.5308,-5.536,-5.5543,-5.6013,-5.5621,-5.561,-5.6258,-5.6254,-5.6821,-5.8127,-5.7391,-5.7216,-5.7791,-5.8261,-5.8523,-5.8523,-5.8523,-5.8523,-5.8523,-5.8523,-5.8523,-5.8523,-5.8523,-5.8523,-5.8523,-5.8523,-5.8523,-5.8523,-5.8601,-5.9281,-6.0222,-6.0326,-6.1084,-6.2182,-7.4945,-7.5334,-7.598,-7.6482,-7.5848,-7.5707,-7.684,-7.4527,-7.3116,-7.4352,-7.3203,-7.2297,-7.2297,-7.2297,-7.2297,-7.2297,-7.2297,-7.2297,-7.2297,-7.1827,-7.1539,-7.1539,-7.0442,-6.984,-6.984,-6.9187,-6.8764,-6.8764,-6.8764,-6.8764,-6.8764,-6.8743,-6.8716,-6.8716,-6.8612,-6.8586,-6.8586,-6.8586,-6.8246,-6.7749,-6.7906,-6.7514,-6.6834,-6.7017,-6.6991,-6.6756,-6.6312,-6.6129,-6.6076,-6.5554,-6.5371,-6.5371,-6.5371,-6.5371,-6.5371,-6.5266,-6.5188,-6.49,-6.3829,-6.3541,-6.3437,-6.294,-6.3123,-6.341,-6.341,-6.2966,-6.2365,-6.1711,-6.0771,-5.9908,-5.9333,-5.8758,-5.8026,-5.6981,-5.6719,-5.6301,-5.5255,0.0,-5.5125,-5.5595,-5.5647,-5.5883,-5.6484,-5.6536,-5.6588,-5.6667,-5.6588,-5.7082,-5.8254,-5.7773,-5.8064,-5.9373,-5.8212,-5.7791,-5.8366,-5.847,-5.8523,-5.8523,-5.8523,-5.8523,-5.8523,-5.8523,-5.8523,-5.8523,-5.8523,-5.8523,-5.8523,-5.8523,-5.8523,-5.8549,-5.9045,-5.9647,-6.0274,-6.0797,-6.1711,-6.2783,-7.8558,-7.9075,-7.9599,-7.989,-7.9552,-7.9089,-7.8929,-7.6704,-7.5089,-7.492,-7.3376,-7.2297,-7.2297,-7.2297,-7.2297,-7.2297,-7.2297,-7.2297,-7.2297,-7.2036,-7.1748,-7.1409,-7.0624,-6.9893,-6.9239,-6.8978,-6.8764,-6.8764,-6.8764,-6.8764,-6.8764,-6.8764,-6.8764,-6.8764,-6.8764,-6.8764,-6.8764,-6.8764,-6.8507,-6.8011,-6.8324,-6.7906,-6.7096,-6.7096,-6.7096,-6.7017,-6.6469,-6.6286,-6.6233,-6.5972,-6.5658,-6.5371,-6.5371,-6.5371,-6.5371,-6.5371,-6.5162,-6.4822,-6.4273,-6.3907,-6.3698,-6.3724,-6.3724,-6.3672,-6.3672,-6.3227,-6.2496,-6.1293,-6.0588,-5.996,-5.9072,-5.8706,-5.8235,-5.7399,-5.7268,-5.6981,-5.6144,-5.6013,-5.6118,-5.6379,-5.6379,-5.6615,-5.7216,-5.7268,-5.7399,-5.7712,-5.7739,-5.8312,-5.967,-5.8759,-5.9445,-6.2418,-5.9651,-5.8261,-5.8523,-5.8523,-5.8523,-5.8523,-5.8523,-5.8523,-5.8523,-5.8523,-5.8523,-5.8523,-5.8523,-5.8523,-5.8523,-5.8523,-5.8706,-5.8993,-5.9255,-5.9908,-6.0771,-6.1372,-6.2104,-6.2966,-8.1422,-8.208,-8.2589,-8.2739,-8.2435,-8.187,-8.0883,-7.8929,-7.7198,-7.6235,-7.4581,-7.3522,-7.3522,-7.3116,-7.2882,-7.2882,-7.256,-7.2297,-7.2297,-7.2297,-7.1984,-7.1252,-7.0546,-6.9762,-6.879,-6.8764,-6.8764,-6.8764,-6.8764,-6.8764,-6.8764,-6.8764,-6.8764,-6.8764,-6.8764,-6.8764,-6.8764,-6.8764,-6.8586,-6.822,-6.8664,-6.8298,-6.7488,-6.7488,-6.741,-6.7253,-6.6834,-6.6599,-6.6469,-6.6469,-6.6155,-6.5789,-6.5789,-6.5789,-6.5763,-6.5632,-6.5292,-6.4874,-6.4613,-6.4299,-6.4142,-6.4456,-6.4299,-6.4038,-6.3907,-6.3437,-6.26,-6.1136,-6.0614,-6.0117,-5.9098,-5.881,-5.847,-5.7835,0.0,-5.7451,-5.6876,-5.6798,-5.685,-5.6981,-5.7007,-5.7354,-5.8253,-5.8375,-5.8699,-5.9402,-5.9175,-5.9429,-6.0551,-5.9245,-6.0054,-6.33,-6.0852,-5.9175,-5.8523,-5.8523,-5.8523,-5.8523,-5.8653,-5.8653,-5.8523,-5.8653,-5.8627,-5.8523,-5.8523,-5.8523,-5.8523,-5.8653,-5.8967,-5.9457,-5.9673,-6.0326,-6.1215,-6.1921,-6.2548,-6.3175,-8.0734,-8.1392,-8.205,-8.2649,-8.1455,-8.0805,-8.2359,-7.9725,-7.8014,-7.9488,-7.8176,-7.7116,-7.7116,-7.565,-7.4666,-7.4666,-7.3203,-7.2297,-7.2297,-7.2297,-7.1801,-7.0703,-6.9579,-6.8842,-6.8764,-6.8764,-6.8764,-6.8764,-6.8764,-6.8764,-6.8764,-6.8764,-6.8764,-6.8764,-6.8764,-6.8764,-6.8764,-6.8764,-6.8821,-6.8711,-6.8738,-6.8711,-6.8633,-6.8633,-6.8377,-6.7906,-6.788,-6.7514,-6.7017,-6.7017,-6.6991,-6.6965,-6.6965,-6.6991,-6.6913,-6.6364,-6.6181,-6.592,-6.4822,-6.4874,-6.5136,-6.4665,-6.49,-6.5109,-6.4587,-6.4012,-6.3437,-6.2757,-6.179,-6.0849,-6.0222,-5.9673,-5.9012,-5.7913,0.0,0.0,-5.6876,-5.6798,-5.7007,-5.7529,-5.7651,-5.8349,-6.0237,-6.036,-6.0975,-6.2375,-6.1233,-6.0483,-6.062,-5.9245,-5.8638,-5.8965,-6.126,-6.1193,-5.8523,-5.8523,-5.8523,-5.8523,-5.9045,-5.9019,-5.8523,-5.9072,-5.9019,-5.8523,-5.8523,-5.8523,-5.8549,-5.9072,-5.9333,-5.9464,-6.0561,-6.1032,-6.1241,-6.2365,-6.3123,-6.3698,-8.1901,-8.223,-8.2469,-8.2784,-8.2253,-8.2023,-8.2663,-8.0727,-7.9328,-7.9963,-7.8579,-7.7526,-7.7526,-7.6869,-7.6456,-7.6456,-7.5901,-7.4926,-7.3474,-7.3041,-7.2186,-7.071,-7.018,-6.9605,-6.879,-6.9187,-6.9187,-6.8764,-6.8764,-6.8764,-6.8764,-6.8764,-6.8764,-6.8764,-6.8764,-6.8764,-6.8764,-6.8764,-6.8764,-6.8764,-6.8764,-6.8764,-6.8711,-6.8455,-6.8403,-6.8481,-6.8115,-6.7854,-6.7645,-6.7645,-6.741,-6.7096,-6.7096,-6.7096,-6.6991,-6.6442,-6.6521,-6.6599,-6.5841,-6.5789,-6.5789,-6.5214,-6.5214,-6.524,-6.4665,-6.4351,-6.3933,-6.3018,-6.2208,-6.1476,-6.0901,-6.03,-5.9647,-5.8908,0.0,-5.8523,-5.7948,-5.7869,-5.7948,-5.8157,-5.8183,-5.8473,-5.9219,-5.9315,-5.9498,-6.0123,-5.9638,-5.9707,-6.0551,-6.0961,-6.0784,-5.9846,-6.1206,-6.1078,-5.9117,-5.9045,-5.9228,-5.9568,-5.9803,-5.9777,-5.9568,-5.9803,-5.9777,-5.9568,-5.9568,-5.9568,-5.9594,-5.9803,-6.0117,-6.0509,-6.0953,-6.1346,-6.179,-6.294,-6.3489,-6.3803,-8.232,-8.2694,-8.2844,-8.2844,-8.2844,-8.2844,-8.2844,-8.1764,-8.0961,-8.0961,-7.9884,-7.9169,-7.9169,-7.866,-7.8338,-7.8338,-7.7851,-7.6866,-7.5186,-7.4249,-7.2731,-7.0422,-7.0494,-7.0206,-6.9422,-6.9605,-6.9501,-6.9108,-6.8926,-6.8764,-6.8764,-6.8764,-6.8764,-6.8764,-6.8764,-6.8764,-6.8764,-6.8764,-6.8764,-6.8764,-6.8764,-6.8764,-6.8711,-6.8403,-6.8507,-6.8711,-6.8403,-6.8246,-6.8246,-6.8246,-6.7985,-6.7645,-6.7645,-6.7514,-6.7305,-6.6939,-6.707,-6.7253,-6.6678,-6.6678,-6.6625,-6.5867,-6.5528,-6.524,-6.4665,-6.4534,-6.4247,-6.3306,-6.2783,-6.2339,-6.1764,-6.1163,-6.0588,-6.0013,-5.9594,-5.9443,-5.9449,-5.8911,-5.8638,-5.9105,-5.9175,-5.9315,-5.9777,-6.0234,-6.0715,-6.1165,-6.0784,-6.0578,-6.062,-6.1975,-6.1991,-6.0296,-6.1048,-6.0988,-5.9908,-5.9725,-5.983,-6.0222,-6.0405,-6.0405,-6.0222,-6.0431,-6.0405,-6.0222,-6.0222,-6.0222,-6.0248,-6.0431,-6.0744,-6.1136,-6.1319,-6.1738,-6.2365,-6.3332,-6.3803,-6.409,-8.1661,-8.232,-8.2844,-8.2844,-8.2844,-8.2844,-8.2844,-8.2844,-8.2844,-8.2844,-8.2844,-8.2844,-8.2844,-8.1194,-8.0149,-8.0149,-7.8499,-7.7526,-7.7526,-7.5901,-7.3376,-6.9957,-7.0285,-7.0598,-7.0572,-6.9997,-6.971,-6.9684,-6.9108,-6.8764,-6.8764,-6.8764,-6.8764,-6.8764,-6.8764,-6.8764,-6.8764,-6.8764,-6.8764,-6.8764,-6.8764,-6.8764,-6.8764,-6.8764,-6.8764,-6.8764,-6.8764,-6.8764,-6.8764,-6.8764,-6.8764,-6.8764,-6.8764,-6.8455,-6.8011,-6.8011,-6.8011,-6.788,-6.7279,-6.754,-6.7723,-6.6573,-6.5841,-6.524,-6.4665,-6.4534,-6.4378,-6.3803,-6.3698,-6.3515,-6.294,-6.2365,-6.179,-6.1215,-6.0143,-5.9932,-6.1291,-5.9757,-5.9061,-6.0441,-6.0578,-6.1165,-6.2641,-6.4045,-6.548,-6.6846,-6.5668,-6.3627,-6.0756,-6.1975,-6.1739,-5.9477,-6.0756,-6.1389,-6.111,-6.0535,-6.0222,-6.0248,-6.0849,-6.0823,-6.0248,-6.0849,-6.0797,-6.0222,-6.0222,-6.0222,-6.0274,-6.0875,-6.1136,-6.1189,-6.1764,-6.2339,-6.2914,-6.3463,-6.4038,-6.4613,-8.235,-8.2619,-8.2844,-8.2844,-8.2844,-8.2844,-8.2844,-8.2844,-8.2844,-8.2844,-8.2844,-8.2844,-8.2844,-8.2359,-8.2023,-8.2023,-8.1533,-8.0522,-7.8854,-7.7122,-7.5679,-7.4635,-7.3995,-7.308,-7.1818,-7.2033,-7.11,-6.9108,-6.8926,-6.8764,-6.8764,-6.9239,-6.9239,-6.879,-6.9265,-6.9213,-6.8764,-6.8764,-6.8764,-6.8764,-6.8764,-6.8764,-6.8764,-6.8764,-6.8764,-6.8764,-6.8764,-6.8764,-6.8764,-6.8764,-6.8764,-6.8899,-6.9318,-6.9318,-6.9187,-6.9187,-6.9474,-6.9684,-6.9082,-6.9056,-6.8821,-6.7253,-6.6416,-6.5972,-6.5789,-6.5423,-6.5083,-6.49,-6.456,-6.4221,-6.4064,-6.3567,-6.2992,-6.2417,-6.1685,-6.1206,-6.1225,-6.0355,-5.9843,-6.0249,-5.9951,-6.0322,-6.1754,-6.1887,-6.2081,-6.248,-6.1617,-6.0672,-5.9784,-6.051,-6.1158,-6.1487,-6.1342,-6.1668,-6.2568,-6.1416,-6.1058,-6.145,-6.1633,-6.1633,-6.145,-6.1633,-6.1607,-6.145,-6.145,-6.145,-6.1476,-6.1633,-6.1947,-6.2339,-6.2496,-6.2914,-6.3489,-6.4064,-6.4378,-6.4613,-8.2694,-8.2844,-8.2844,-8.2844,-8.2844,-8.2844,-8.2844,-8.2844,-8.2844,-8.2844,-8.2844,-8.2844,-8.2844,-8.2844,-8.2844,-8.2844,-8.2844,-8.1845,-7.9754,-7.8595,-7.8038,-7.8038,-7.7329,-7.6094,-7.4415,-7.3814,-7.2632,-7.088,-6.9968,-6.9527,-6.9527,-7.0361,-7.0452,-7.019,-7.0956,-7.1122,-7.0718,-7.0091,-6.9763,-6.9707,-6.9071,-6.8764,-6.8764,-6.8764,-6.8764,-6.8764,-6.8764,-6.8764,-6.8764,-6.8764,-6.9004,-6.9239,-6.9579,-6.9866,-6.9997,-6.9762,-7.0128,-7.052,-7.0154,-7.0531,-7.0607,-6.8595,-6.754,-6.7049,-6.7508,-6.7323,-6.7135,-6.7572,-6.7376,-6.7053,-6.6734,-6.6298,-6.5813,-6.5436,-6.4493,-6.3875,-6.4072,-6.2882,-6.2199,-6.2735,-6.2504,-6.2701,-6.3524,-6.3768,-6.3676,-6.3073,-6.255,-6.2007,-6.1474,-6.2291,-6.2801,-6.2763,-6.2236,-6.2299,-6.3045,-6.1974,-6.1633,-6.1973,-6.1973,-6.2077,-6.2313,-6.2077,-6.2104,-6.2287,-6.2077,-6.1973,-6.1999,-6.2208,-6.2522,-6.2835,-6.3071,-6.3515,-6.4064,-6.4404,-6.4822,-6.5266,-8.2694,-8.2844,-8.2844,-8.2844,-8.2844,-8.2844,-8.2844,-8.2844,-8.2844,-8.2844,-8.2844,-8.2844,-8.2844,-8.2844,-8.2844,-8.2844,-8.2844,-8.21,-8.0463,-8.0306,-8.0306,-8.0306,-8.0306,-7.9567,-7.8014,-7.5682,-7.4359,-7.4166,-7.2116,-7.1084,-7.1057,-7.2147,-7.256,-7.2505,-7.3503,-7.3929,-7.3661,-7.2032,-7.1338,-7.1177,-6.9459,-6.8764,-6.8764,-6.8764,-6.879,-6.8899,-6.879,-6.8899,-6.9004,-6.9145,-6.9428,-6.9846,-7.0183,-7.0435,-7.0631,-7.042,-7.0598,-7.0986,-7.1156,-7.2235,-7.2771,-7.0567,-6.9119,-6.8369,-6.9318,-6.9577,-6.9802,-7.0664,-7.0903,-7.0726,-7.0082,-6.9669,-6.945,-6.9394,-6.7974,-6.7308,-6.8575,-6.6532,-6.5397,-6.6698,-6.678,-6.6693,-6.6767,-6.7964,-6.8156,-6.6832,-6.6496,-6.5927,-6.4837,-6.5716,-6.5459,-6.3558,-6.3199,-6.2938,-6.2731,-6.2234,-6.1999,-6.2051,-6.1999,-6.226,-6.2809,-6.2287,-6.2339,-6.2809,-6.2339,-6.2077,-6.2025,-6.26,-6.2862,-6.2966,-6.3489,-6.4064,-6.4613,-6.4613,-6.5292,-6.6207,-8.2694,-8.2844,-8.2844,-8.2844,-8.2844,-8.2844,-8.2844,-8.2844,-8.2844,-8.2844,-8.2844,-8.2844,-8.2844,-8.2844,-8.2844,-8.2844,-8.2844,-8.2587,-8.2253,-8.2176,-8.2176,-8.2176,-8.2176,-8.2023,-8.1687,-7.9354,-7.7253,-7.5414,-7.4872,-7.4655,-7.4683,-7.542,-7.5191,-7.427,-7.4951,-7.4744,-7.3661,-7.2032,-7.1338,-7.1177,-6.9459,-6.8764,-6.8764,-6.8764,-6.9108,-6.9448,-6.9004,-6.9448,-7.0461,-7.181,-7.1415,-7.0873,-7.3595,-7.2958,-7.1775,-7.428,-7.4524,-7.4287,-7.5682,-7.491,-7.3588,-7.2688,-7.088,-6.9245,-6.9,-6.9321,-6.9419,-6.8786,-6.9315,-6.9712,-6.9083,-6.9929,-7.0501,-6.9995,-6.9253,-6.8835,-6.915,-6.7834,-6.6904,-6.7254,-6.6474,-6.6087,-6.6693,-6.6591,-6.6662,-6.6738,-6.509,-6.4693,-6.6074,-6.4181,-6.3538,-6.4763,-6.3138,-6.2242,-6.2156,-6.2025,-6.2182,-6.2626,-6.2182,-6.226,-6.2835,-6.2705,-6.2705,-6.2835,-6.3175,-6.2783,-6.2025,-6.26,-6.3097,-6.3515,-6.362,-6.4299,-6.5188,-6.5188,-6.5371,-6.5711,-8.2754,-8.2844,-8.2844,-8.2844,-8.2844,-8.2844,-8.2844,-8.2844,-8.2844,-8.2844,-8.2844,-8.2844,-8.2844,-8.2844,-8.2844,-8.2844,-8.2844,-8.2844,-8.2844,-8.2844,-8.2844,-8.2844,-8.2844,-8.2844,-8.2844,-8.1621,-7.9977,-7.7849,-7.7052,-7.657,-7.6651,-7.7196,-7.7028,-7.6449,-7.6963,-7.6949,-7.6526,-7.4889,-7.4356,-7.4451,-7.25,-7.1664,-7.1637,-7.1285,-7.1366,-7.1637,-7.1691,-7.2287,-7.3266,-7.4444,-7.428,-7.3812,-7.5585,-7.4774,-7.3389,-7.4884,-7.4515,-7.3866,-7.475,-7.4543,-7.3749,-7.2667,-7.2465,-7.2122,-7.036,-7.0234,-7.0415,-7.0283,-7.0751,-7.1086,-7.0903,-7.1839,-7.2642,-7.2416,-7.2153,-7.1834,-7.1544,-6.9729,-6.8621,-6.8837,-6.7197,-6.6113,-6.6554,-6.5952,-6.5652,-6.5962,-6.5066,-6.5054,-6.6153,-6.4775,-6.4343,-6.5504,-6.3456,-6.2652,-6.3201,-6.2652,-6.2809,-6.362,-6.2783,-6.2809,-6.362,-6.3358,-6.3384,-6.3646,-6.3672,-6.3332,-6.2835,-6.341,-6.3829,-6.4116,-6.4378,-6.4848,-6.5371,-6.5371,-6.5737,-6.6338,-8.2844,-8.2844,-8.2844,-8.2844,-8.2844,-8.2844,-8.2844,-8.2844,-8.2844,-8.2844,-8.2844,-8.2844,-8.2844,-8.2844,-8.2798,-8.2918,-8.2828,-8.2844,-8.2844,-8.2844,-8.2844,-8.2844,-8.2858,-8.2888,-8.2844,-8.2858,-8.2142,-8.0542,-7.9089,-7.8418,-7.839,-7.8697,-7.8762,-7.8663,-7.8892,-7.9297,-7.966,-7.7867,-7.7555,-7.7924,-7.5534,-7.4654,-7.4597,-7.4013,-7.3873,-7.4041,-7.4626,-7.5301,-7.6112,-7.6972,-7.709,-7.69,-7.7457,-7.6475,-7.5153,-7.4938,-7.404,-7.3044,-7.3044,-7.3675,-7.3918,-7.2484,-7.3732,-7.4768,-7.2606,-7.204,-7.2277,-7.3091,-7.3521,-7.3795,-7.4022,-7.4722,-7.5317,-7.523,-7.5198,-7.4929,-7.418,-7.1942,-7.0604,-7.1032,-6.8895,-6.728,-6.7086,-6.6346,-6.5929,-6.6011,-6.5916,-6.6169,-6.6844,-6.6047,-6.5673,-6.6053,-6.4065,-6.3437,-6.4378,-6.3437,-6.3489,-6.4534,-6.3567,-6.362,-6.4508,-6.4038,-6.409,-6.4508,-6.4142,-6.3855,-6.3724,-6.4299,-6.4534,-6.4587,-6.5057,-6.5292,-6.5371,-6.5371,-6.605,-6.7044,-8.2844,-8.2844,-8.2844,-8.2844,-8.2844,-8.2844,-8.2844,-8.2844,-8.2844,-8.2844,-8.2844,-8.2844,-8.2844,-8.2844,-8.2978,-8.3547,-8.3098,-8.2844,-8.2844,-8.2844,-8.2844,-8.2844,-8.3307,-8.3337,-8.2769,-8.3307,-8.3154,-8.2435,-8.2176,-8.21,-8.21,-8.1584,-8.1034,-8.0437,-7.9942,-7.9746,-7.963,-7.7369,-7.6782,-7.7257,-7.4881,-7.3957,-7.3929,-7.3845,-7.4075,-7.4581,-7.4716,-7.5582,-7.692,-7.8984,-7.8626,-7.7816,-8.0323,-7.8908,-7.6602,-7.8064,-7.7298,-7.598,-7.6089,-7.5805,-7.5411,-7.525,-7.4624,-7.4244,-7.5011,-7.5128,-7.51,-7.5254,-7.6514,-7.7394,-7.6869,-7.802,-7.8499,-7.6803,-7.6574,-7.6125,-7.4899,-7.3955,-7.3372,-7.3461,-7.2068,-7.0842,-7.0043,-6.935,-6.9223,-6.9741,-6.7356,-6.7295,-7.0606,-6.6413,-6.4854,-6.6725,-6.4648,-6.3646,-6.3803,-6.3646,-6.3881,-6.4534,-6.4378,-6.4378,-6.4534,-6.4456,-6.4456,-6.456,-6.4979,-6.4587,-6.3724,-6.4299,-6.4534,-6.4534,-6.4613,-6.4953,-6.5371,-6.5371,-6.5815,-6.6469,-8.2844,-8.2844,-8.2844,-8.2844,-8.2844,-8.2844,-8.2844,-8.2844,-8.2844,-8.2844,-8.3068,-8.3158,-8.2798,-8.2844,-8.3008,-8.3666,-8.3128,-8.2844,-8.2844,-8.2844,-8.2844,-8.2844,-8.3038,-8.3068,-8.2769,-8.3038,-8.3068,-8.2844,-8.2844,-8.2844,-8.2814,-8.1721,-8.1272,-8.1302,-7.9866,-7.9866,-8.0779,-7.9397,-7.9394,-8.0251,-7.8816,-7.8015,-7.7695,-7.7695,-7.7666,-7.759,-7.8015,-7.8715,-7.9715,-8.073,-8.0511,-8.0201,-8.1806,-8.0599,-7.8659,-7.9478,-7.8163,-7.6489,-7.657,-7.5896,-7.5198,-7.5615,-7.5025,-7.4726,-7.6229,-7.6891,-7.6721,-7.5459,-7.5796,-7.6453,-7.6689,-7.7967,-7.8715,-7.8047,-7.6877,-7.6069,-7.5956,-7.3304,-7.1201,-7.0824,-7.0622,-7.0169,-6.9421,-6.9365,-6.918,-6.8541,-6.753,-6.7332,-6.8031,-6.5858,-6.5108,-6.602,-6.4819,-6.4299,-6.4639,-6.4325,-6.443,-6.5005,-6.5005,-6.5005,-6.5005,-6.5005,-6.5005,-6.5031,-6.5266,-6.5083,-6.4639,-6.49,-6.5005,-6.5005,-6.5005,-6.5162,-6.5423,-6.5763,-6.605,-6.6364]},{"header":{"parameterUnit":"m.s-1","parameterCategory":1,"la1":30.6,"la2":28.766,"lo1":-90.7593,"lo2":-88.6598,"dy":0.0162,"dx":0.0183,"nx":116,"ny":114,"refTime":"2024-04-06T12:00:00:Z","depth":0,"parameterNumber":3,"parameterNumberName":"V-component_of_WINDS"},"data":[0.0,0.0,0.0,0.0,0.0,0.0,0.0,0.0,0.0,0.0,0.0,0.0,0.0,0.0,0.0,0.0,0.0,0.0,0.0,0.0,0.0,0.0,0.0,0.0,0.0,0.0,0.0,0.0,0.0,0.0,0.0,0.0,0.0,0.0,0.0,0.0,0.0,0.0,0.0,0.0,0.0,0.0,0.0,0.0,0.0,0.0,0.0,0.0,0.0,0.0,0.0,0.0,0.0,0.0,0.0,0.0,0.0,0.0,0.0,0.0,0.0,0.0,0.0,0.0,0.0,0.0,0.0,0.0,0.0,0.0,0.0,0.0,0.0,0.0,0.0,0.0,0.0,0.0,0.0,0.0,0.0,0.0,0.0,0.0,0.0,0.0,0.0,0.0,0.0,0.0,0.0,0.0,0.0,0.0,0.0,0.0,0.0,0.0,0.0,0.0,0.0,0.0,0.0,0.0,0.0,0.0,0.0,0.0,0.0,0.0,0.0,0.0,0.0,0.0,0.0,0.0,0.0,0.0,0.0,0.0,0.0,0.0,0.0,0.0,0.0,0.0,0.0,0.0,0.0,0.0,0.0,0.0,0.0,0.0,0.0,0.0,0.0,0.0,0.0,0.0,0.0,0.0,0.0,0.0,0.0,0.0,0.0,0.0,0.0,0.0,0.0,0.0,0.0,0.0,0.0,0.0,0.0,0.0,0.0,0.0,0.0,0.0,0.0,0.0,0.0,0.0,0.0,0.0,0.0,0.0,0.0,0.0,0.0,0.0,0.0,0.0,0.0,0.0,0.0,0.0,0.0,0.0,0.0,0.0,0.0,0.0,0.0,0.0,0.0,0.0,0.0,0.0,0.0,0.0,0.0,0.0,0.0,0.0,0.0,0.0,0.0,0.0,0.0,0.0,0.0,0.0,0.0,0.0,0.0,0.0,0.0,0.0,0.0,0.0,0.0,0.0,0.0,0.0,0.0,0.0,0.0,0.0,0.0,0.0,0.0,0.0,0.0,0.0,0.0,0.0,0.0,0.0,0.0,0.0,0.0,0.0,0.0,0.0,0.0,0.0,0.0,0.0,0.0,0.0,0.0,0.0,0.0,0.0,0.0,0.0,0.0,0.0,0.0,0.0,0.0,0.0,0.0,0.0,0.0,0.0,0.0,0.0,0.0,0.0,0.0,0.0,0.0,0.0,0.0,0.0,0.0,0.0,0.0,0.0,0.0,0.0,0.0,0.0,0.0,0.0,0.0,0.0,0.0,0.0,0.0,0.0,0.0,0.0,0.0,0.0,0.0,0.0,0.0,0.0,0.0,0.0,0.0,0.0,0.0,0.0,0.0,0.0,0.0,0.0,0.0,0.0,0.0,0.0,0.0,0.0,0.0,0.0,0.0,0.0,0.0,0.0,0.0,0.0,0.0,0.0,0.0,0.0,0.0,0.0,0.0,0.0,0.0,0.0,0.0,0.0,0.0,0.0,0.0,0.0,0.0,0.0,0.0,0.0,0.0,0.0,0.0,0.0,0.0,0.0,0.0,0.0,0.0,0.0,0.0,0.0,0.0,0.0,0.0,0.0,0.0,0.0,0.0,0.0,0.0,0.0,0.0,0.0,0.0,0.0,0.0,0.0,0.0,0.0,0.0,0.0,0.0,0.0,0.0,0.0,0.0,0.0,0.0,0.0,0.0,0.0,0.0,0.0,0.0,0.0,0.0,0.0,0.0,0.0,0.0,0.0,0.0,0.0,0.0,0.0,0.0,0.0,0.0,0.0,0.0,0.0,0.0,0.0,0.0,0.0,0.0,0.0,0.0,0.0,0.0,0.0,0.0,0.0,0.0,0.0,0.0,0.0,0.0,0.0,0.0,0.0,0.0,0.0,0.0,0.0,0.0,0.0,0.0,0.0,0.0,0.0,0.0,0.0,0.0,0.0,0.0,0.0,0.0,0.0,0.0,0.0,0.0,0.0,0.0,0.0,0.0,0.0,0.0,0.0,0.0,0.0,0.0,0.0,0.0,0.0,0.0,0.0,0.0,0.0,0.0,0.0,0.0,0.0,0.0,0.0,0.0,0.0,0.0,0.0,0.0,0.0,0.0,0.0,0.0,0.0,0.0,0.0,0.0,0.0,0.0,0.0,0.0,0.0,0.0,0.0,0.0,0.0,0.0,0.0,0.0,0.0,0.0,0.0,0.0,0.0,0.0,0.0,0.0,0.0,0.0,0.0,0.0,0.0,0.0,0.0,0.0,0.0,0.0,0.0,0.0,0.0,0.0,0.0,0.0,0.0,0.0,0.0,0.0,0.0,0.0,0.0,0.0,0.0,0.0,0.0,0.0,0.0,0.0,0.0,0.0,0.0,0.0,0.0,0.0,0.0,0.0,0.0,0.0,0.0,0.0,0.0,0.0,0.0,0.0,0.0,0.0,0.0,0.0,0.0,0.0,0.0,0.0,0.0,0.0,0.0,0.0,0.0,0.0,0.0,0.0,0.0,0.0,0.0,0.0,0.0,0.0,0.0,0.0,0.0,0.0,0.0,0.0,0.0,0.0,0.0,0.0,0.0,0.0,0.0,0.0,0.0,0.0,0.0,0.0,0.0,0.0,0.0,0.0,0.0,0.0,0.0,0.0,0.0,0.0,0.0,0.0,0.0,0.0,0.0,0.0,0.0,0.0,0.0,0.0,0.0,0.0,0.0,0.0,0.0,0.0,0.0,0.0,0.0,0.0,0.0,0.0,0.0,0.0,0.0,0.0,0.0,0.0,0.0,0.0,0.0,0.0,0.0,0.0,0.0,0.0,0.0,0.0,0.0,0.0,0.0,0.0,0.0,0.0,0.0,0.0,0.0,0.0,0.0,0.0,0.0,0.0,0.0,0.0,0.0,0.0,0.0,0.0,0.0,0.0,0.0,0.0,0.0,0.0,0.0,0.0,0.0,0.0,0.0,0.0,0.0,0.0,0.0,0.0,0.0,0.0,0.0,0.0,0.0,0.0,0.0,0.0,0.0,0.0,0.0,0.0,0.0,0.0,0.0,0.0,0.0,0.0,0.0,0.0,0.0,0.0,0.0,0.0,0.0,0.0,0.0,0.0,0.0,0.0,0.0,0.0,0.0,0.0,0.0,0.0,0.0,0.0,0.0,0.0,0.0,0.0,0.0,0.0,0.0,0.0,0.0,0.0,0.0,0.0,0.0,0.0,0.0,0.0,0.0,0.0,0.0,0.0,0.0,0.0,0.0,0.0,0.0,0.0,0.0,0.0,0.0,0.0,0.0,0.0,0.0,0.0,0.0,0.0,0.0,0.0,0.0,0.0,0.0,0.0,0.0,0.0,0.0,0.0,0.0,0.0,0.0,0.0,0.0,0.0,0.0,0.0,0.0,0.0,0.0,0.0,0.0,0.0,0.0,0.0,0.0,0.0,0.0,0.0,0.0,0.0,0.0,0.0,0.0,0.0,0.0,0.0,0.0,0.0,0.0,0.0,0.0,0.0,0.0,0.0,0.0,0.0,0.0,0.0,0.0,0.0,0.0,0.0,0.0,0.0,0.0,0.0,0.0,0.0,0.0,0.0,0.0,0.0,0.0,0.0,0.0,0.0,0.0,0.0,0.0,0.0,0.0,0.0,0.0,0.0,0.0,0.0,0.0,0.0,0.0,0.0,0.0,0.0,0.0,0.0,0.0,0.0,0.0,0.0,0.0,0.0,0.0,0.0,0.0,0.0,0.0,0.0,0.0,0.0,0.0,0.0,0.0,0.0,0.0,0.0,0.0,0.0,0.0,0.0,0.0,0.0,0.0,0.0,0.0,0.0,0.0,0.0,0.0,0.0,0.0,0.0,0.0,0.0,0.0,0.0,0.0,0.0,0.0,0.0,0.0,0.0,0.0,0.0,0.0,0.0,0.0,0.0,0.0,0.0,0.0,0.0,0.0,0.0,0.0,0.0,0.0,0.0,0.0,0.0,0.0,0.0,0.0,0.0,0.0,0.0,0.0,0.0,0.0,0.0,0.0,0.0,0.0,0.0,0.0,0.0,0.0,0.0,0.0,0.0,0.0,0.0,0.0,0.0,0.0,0.0,0.0,0.0,0.0,0.0,0.0,0.0,0.0,0.0,0.0,0.0,0.0,0.0,0.0,0.0,0.0,0.0,0.0,0.0,0.0,0.0,0.0,0.0,0.0,0.0,0.0,0.0,0.0,0.0,0.0,0.0,0.0,0.0,0.0,0.0,0.0,0.0,0.0,0.0,0.0,0.0,0.0,0.0,0.0,0.0,0.0,0.0,0.0,0.0,0.0,0.0,0.0,0.0,0.0,0.0,0.0,0.0,0.0,0.0,0.0,0.0,0.0,0.0,0.0,0.0,0.0,0.0,0.0,0.0,0.0,0.0,0.0,0.0,0.0,0.0,0.0,0.0,0.0,0.0,0.0,0.0,0.0,0.0,0.0,0.0,0.0,0.0,0.0,0.0,0.0,0.0,0.0,0.0,0.0,0.0,0.0,0.0,0.0,0.0,0.0,0.0,0.0,0.0,0.0,0.0,0.0,0.0,0.0,0.0,0.0,0.0,0.0,0.0,0.0,0.0,0.0,0.0,0.0,0.0,0.0,0.0,0.0,0.0,0.0,0.0,0.0,0.0,0.0,0.0,0.0,0.0,0.0,0.0,0.0,0.0,0.0,0.0,0.0,0.0,0.0,0.0,0.0,0.0,0.0,0.0,0.0,0.0,0.0,0.0,0.0,0.0,0.0,0.0,0.0,0.0,0.0,0.0,0.0,0.0,0.0,0.0,0.0,0.0,0.0,0.0,0.0,0.0,0.0,0.0,0.0,0.0,0.0,0.0,0.0,0.0,0.0,0.0,0.0,0.0,0.0,0.0,0.0,0.0,0.0,0.0,0.0,0.0,0.0,0.0,0.0,0.0,0.0,0.0,0.0,0.0,0.0,0.0,0.0,0.0,0.0,0.0,0.0,0.0,0.0,0.0,0.0,0.0,0.0,0.0,0.0,0.0,0.0,0.0,0.0,0.0,0.0,0.0,0.0,0.0,0.0,0.0,0.0,0.0,0.0,0.0,0.0,0.0,0.0,0.0,0.0,0.0,0.0,0.0,0.0,0.0,0.0,0.0,0.0,0.0,0.0,0.0,0.0,0.0,0.0,0.0,0.0,0.0,0.0,0.0,0.0,0.0,0.0,0.0,0.0,0.0,0.0,0.0,0.0,0.0,0.0,0.0,0.0,0.0,0.0,0.0,0.0,0.0,0.0,0.0,0.0,0.0,0.0,0.0,0.0,0.0,0.0,0.0,0.0,0.0,0.0,0.0,0.0,0.0,0.0,0.0,0.0,0.0,0.0,0.0,0.0,0.0,0.0,0.0,0.0,0.0,0.0,0.0,0.0,0.0,0.0,0.0,0.0,0.0,0.0,0.0,0.0,0.0,0.0,0.0,0.0,0.0,0.0,0.0,0.0,0.0,0.0,0.0,0.0,0.0,0.0,0.0,0.0,0.0,0.0,0.0,0.0,0.0,0.0,0.0,0.0,0.0,0.0,0.0,0.0,0.0,0.0,0.0,0.0,0.0,0.0,0.0,0.0,0.0,0.0,0.0,0.0,0.0,0.0,0.0,0.0,0.0,0.0,0.0,0.0,0.0,0.0,0.0,0.0,0.0,0.0,0.0,0.0,0.0,0.0,0.0,0.0,0.0,0.0,0.0,0.0,0.0,0.0,0.0,0.0,0.0,0.0,0.0,0.0,0.0,0.0,0.0,0.0,0.0,0.0,0.0,0.0,0.0,0.0,0.0,0.0,0.0,0.0,0.0,0.0,0.0,0.0,0.0,0.0,0.0,0.0,0.0,0.0,0.0,0.0,0.0,0.0,0.0,0.0,0.0,0.0,0.0,0.0,0.0,0.0,0.0,0.0,0.0,0.0,0.0,0.0,0.0,0.0,0.0,0.0,0.0,0.0,0.0,0.0,0.0,0.0,0.0,0.0,0.0,0.0,0.0,0.0,0.0,0.0,0.0,0.0,0.0,0.0,0.0,0.0,0.0,0.0,0.0,0.0,0.0,0.0,0.0,0.0,0.0,0.0,0.0,0.0,0.0,0.0,0.0,0.0,0.0,0.0,0.0,0.0,4.7433,4.6621,0.0,0.0,0.0,0.0,0.0,0.0,0.0,0.0,0.0,0.0,0.0,0.0,0.0,0.0,0.0,0.0,0.0,0.0,0.0,0.0,0.0,0.0,0.0,5.5213,5.5416,5.5416,5.5416,5.5533,5.5881,5.5881,0.0,0.0,0.0,0.0,5.6781,5.649,5.6636,5.7274,5.7303,5.7477,5.7797,5.7129,5.6636,5.6316,0.0,0.0,0.0,0.0,0.0,0.0,0.0,0.0,0.0,0.0,0.0,0.0,0.0,0.0,0.0,0.0,0.0,0.0,0.0,0.0,0.0,0.0,0.0,0.0,0.0,0.0,0.0,0.0,0.0,0.0,0.0,0.0,0.0,0.0,0.0,0.0,0.0,0.0,0.0,0.0,0.0,0.0,0.0,0.0,0.0,0.0,0.0,0.0,0.0,0.0,0.0,0.0,0.0,0.0,0.0,0.0,0.0,0.0,0.0,0.0,0.0,0.0,0.0,0.0,0.0,0.0,0.0,0.0,0.0,0.0,5.0917,4.8943,0.0,0.0,0.0,0.0,0.0,0.0,0.0,0.0,0.0,0.0,0.0,0.0,0.0,0.0,0.0,0.0,0.0,0.0,0.0,0.0,0.0,5.5068,5.5678,5.5852,5.5968,5.6084,5.6084,5.6316,5.6868,5.6926,5.7129,5.7623,5.7652,5.7913,5.8464,5.7942,5.8203,5.9306,5.9306,5.9742,6.0642,6.0845,6.038,5.9277,5.8145,0.0,0.0,0.0,0.0,0.0,0.0,0.0,0.0,0.0,0.0,0.0,0.0,0.0,0.0,0.0,0.0,0.0,0.0,0.0,0.0,0.0,0.0,0.0,0.0,0.0,0.0,0.0,0.0,0.0,0.0,0.0,0.0,0.0,0.0,0.0,0.0,0.0,0.0,0.0,0.0,0.0,0.0,0.0,0.0,0.0,0.0,0.0,0.0,0.0,0.0,0.0,0.0,0.0,0.0,0.0,0.0,0.0,0.0,0.0,0.0,0.0,0.0,0.0,5.8087,5.9074,6.0293,6.0293,6.0613,6.0932,5.6171,5.3239,5.1759,5.0656,0.0,0.0,0.0,0.0,0.0,0.0,0.0,0.0,0.0,0.0,0.0,0.0,0.0,0.0,0.0,0.0,0.0,0.0,0.0,5.6374,5.6984,5.7565,5.8145,5.8726,5.8784,5.8813,5.89,5.8929,5.8958,5.9045,5.9045,5.9074,5.9161,5.9074,5.9132,5.9306,6.1977,6.4183,6.5896,6.7057,6.7463,6.7057,6.1513,5.9887,6.1164,0.0,0.0,0.0,0.0,0.0,0.0,0.0,0.0,0.0,0.0,0.0,0.0,0.0,0.0,0.0,0.0,0.0,0.0,0.0,0.0,0.0,0.0,0.0,0.0,0.0,0.0,0.0,0.0,0.0,0.0,0.0,0.0,0.0,0.0,0.0,0.0,0.0,0.0,0.0,0.0,0.0,4.8159,4.7608,0.0,0.0,0.0,0.0,0.0,0.0,0.0,0.0,0.0,0.0,0.0,0.0,0.0,5.6142,5.7419,6.0816,6.2122,6.1396,6.4764,6.5606,6.4241,6.4241,6.459,6.5141,6.4357,0.0,5.62,5.3355,0.0,0.0,0.0,0.0,0.0,0.0,0.0,0.0,0.0,0.0,0.0,0.0,0.0,0.0,0.0,0.0,0.0,0.0,0.0,0.0,0.0,5.9103,5.9771,5.9335,6.16,6.2122,5.9945,6.1483,6.1861,6.0438,6.038,6.038,6.038,6.038,6.1425,6.3574,6.6041,6.8247,7.0105,7.0686,7.0947,7.0831,6.8044,6.5431,6.308,6.1309,0.0,0.0,0.0,0.0,0.0,0.0,0.0,0.0,0.0,0.0,0.0,0.0,0.0,0.0,0.0,0.0,0.0,0.0,0.0,0.0,0.0,0.0,0.0,0.0,0.0,0.0,0.0,0.0,0.0,0.0,0.0,0.0,0.0,0.0,0.0,0.0,0.0,0.0,0.0,4.9436,5.0365,4.9001,5.0365,5.0336,0.0,0.0,0.0,0.0,0.0,0.0,0.0,0.0,0.0,5.7739,5.9364,6.0932,6.2587,6.4996,6.6622,6.7492,6.9205,7.0134,7.0337,7.0337,7.0308,7.025,7.025,6.7986,6.3951,5.9335,5.5881,5.3181,0.0,0.0,0.0,0.0,4.9524,5.0249,0.0,0.0,0.0,0.0,0.0,0.0,0.0,0.0,0.0,0.0,0.0,0.0,5.9161,6.1019,6.2064,6.1774,6.4299,6.4851,6.2325,6.3341,6.3312,6.1745,6.1367,6.1193,6.1193,6.2151,6.4444,6.8102,7.0541,7.2718,7.4576,7.4924,7.5069,7.504,7.4721,7.1469,6.6128,6.4502,6.2151,5.9393,0.0,0.0,0.0,0.0,0.0,0.0,0.0,0.0,0.0,0.0,0.0,0.0,0.0,0.0,0.0,0.0,0.0,0.0,0.0,0.0,0.0,0.0,0.0,0.0,0.0,0.0,0.0,0.0,0.0,0.0,0.0,0.0,0.0,0.0,0.0,0.0,0.0,5.1614,5.2775,5.0705,5.3268,5.3588,0.0,0.0,0.0,0.0,0.0,0.0,5.6955,5.8232,6.0264,6.3283,6.4938,6.6622,6.8363,6.967,7.1179,7.2892,7.3066,7.3879,7.5243,7.4924,7.4605,7.4343,7.4169,7.2834,7.0308,6.4532,6.0467,5.7536,5.4342,5.2978,5.2833,5.2833,5.3152,5.382,0.0,0.0,0.0,0.0,0.0,0.0,0.0,0.0,0.0,0.0,0.0,5.919,6.1629,6.3632,6.5751,6.8131,6.6854,6.6389,6.7434,6.3661,6.1861,6.2964,6.1832,6.1193,6.1193,6.4735,6.8189,7.144,7.5185,7.8001,7.9946,8.1136,8.1717,8.1659,8.0439,7.7043,7.1905,6.7609,6.5693,6.5025,5.951,0.0,0.0,0.0,0.0,0.0,0.0,0.0,0.0,0.0,0.0,0.0,0.0,0.0,0.0,0.0,0.0,0.0,0.0,0.0,0.0,0.0,0.0,0.0,0.0,0.0,0.0,0.0,0.0,0.0,0.0,0.0,0.0,0.0,0.0,0.0,0.0,0.0,0.0,5.2768,5.6839,0.0,0.0,0.0,0.0,5.5968,5.7216,5.9045,6.1629,6.4125,6.668,6.9263,7.1789,7.3705,7.5011,7.6288,7.6695,7.6305,7.684,7.7159,7.7217,7.5998,7.5766,7.6288,7.5679,7.4663,7.2979,6.7173,6.3632,6.1483,5.8261,5.6665,5.6171,5.6171,5.62,5.6229,0.0,0.0,0.0,0.0,0.0,5.231,5.3355,5.4604,5.5562,5.5997,5.8784,6.1716,6.4299,6.7754,7.0424,7.1789,7.2776,7.2456,7.0453,6.7667,6.5751,6.4967,6.2529,6.2151,6.4212,6.7609,7.1528,7.5998,7.9452,8.2123,8.401,8.4445,8.4678,8.4649,8.4184,8.2297,7.9017,7.2834,6.8334,6.5083,6.218,5.98,0.0,0.0,0.0,0.0,0.0,0.0,0.0,0.0,0.0,0.0,0.0,0.0,0.0,0.0,0.0,0.0,0.0,0.0,0.0,0.0,0.0,0.0,0.0,0.0,0.0,0.0,0.0,0.0,0.0,0.0,0.0,0.0,0.0,0.0,0.0,0.0,0.0,6.0526,6.398,0.0,6.0932,6.0235,6.0729,6.2412,6.3341,6.5286,6.8683,7.0512,7.266,7.5243,7.6608,7.7507,7.7943,7.8001,7.7943,7.7711,7.7101,7.6782,7.6782,7.5911,7.5388,7.5185,7.4982,7.4401,7.3385,7.0482,6.8392,6.6622,6.2616,6.1135,6.1251,6.0845,6.07,6.0816,0.0,0.0,0.0,0.0,5.1468,5.1991,5.3036,5.4458,5.5562,5.5997,5.9974,6.3719,6.6302,7.115,7.475,7.6056,7.6724,7.6085,7.3763,6.9786,6.7057,6.5983,6.3719,6.398,6.7173,7.1005,7.5301,8.0033,8.3023,8.5229,8.6681,8.6681,8.6681,8.6652,8.6448,8.552,8.3778,7.8204,7.2892,6.7957,6.517,6.3051,6.1077,0.0,0.0,0.0,0.0,0.0,0.0,0.0,0.0,0.0,0.0,0.0,0.0,0.0,0.0,0.0,0.0,0.0,0.0,0.0,0.0,0.0,0.0,0.0,0.0,0.0,0.0,0.0,0.0,0.0,0.0,0.0,0.0,0.0,0.0,6.0845,6.4851,6.6128,6.9873,7.1092,6.787,6.6999,6.7434,6.935,6.9873,7.1411,7.4401,7.5766,7.7159,7.8669,7.9743,8.0062,7.9627,7.9452,7.9017,7.8407,7.7537,7.6898,7.6508,7.5795,7.5388,7.5156,7.4721,7.443,7.4111,7.2398,7.144,7.0686,6.6854,6.5489,6.5577,6.4938,6.4415,6.4067,0.0,0.0,0.0,5.0589,5.1178,5.1817,5.2455,5.4168,5.5387,5.5474,6.0555,6.5141,6.7783,7.3763,7.8611,8.1165,7.8436,7.6811,7.7391,6.967,6.5315,6.5867,6.5402,6.6622,6.9902,7.4924,7.9423,8.3284,8.5781,8.7319,8.7929,8.7929,8.7929,8.79,8.729,8.6681,8.5926,8.34,7.9452,7.4372,6.8538,6.6854,6.726,0.0,0.0,0.0,0.0,0.0,0.0,0.0,0.0,0.0,0.0,0.0,0.0,0.0,0.0,0.0,0.0,0.0,0.0,0.0,0.0,0.0,0.0,0.0,0.0,0.0,0.0,0.0,0.0,0.0,0.0,0.0,0.0,0.0,5.7332,6.4154,6.9002,6.9205,7.4169,7.6375,7.3269,7.3531,7.4634,7.6567,7.6741,7.7217,7.8465,7.9743,8.012,7.9452,8.1252,8.163,8.0381,8.0875,8.0236,7.8436,7.8349,7.7653,7.6479,7.5766,7.5824,7.6317,7.504,7.4866,7.5243,7.2689,7.2398,7.3269,7.0744,6.9379,6.877,6.8131,6.7057,6.5664,0.0,0.0,4.9872,5.0589,5.083,5.1294,5.2449,5.382,5.5242,5.6607,6.2645,6.816,7.1644,7.7769,8.2617,8.5171,8.163,7.893,7.8175,7.0744,6.6041,6.5286,6.6883,6.9931,7.4591,7.8262,8.1833,8.5258,8.6884,8.7755,8.7929,8.7929,8.7929,8.7929,8.7755,8.7581,8.7319,8.6158,8.4329,8.1572,7.4401,7.0047,6.7492,0.0,0.0,0.0,0.0,0.0,0.0,0.0,0.0,0.0,0.0,0.0,0.0,0.0,0.0,0.0,0.0,0.0,0.0,0.0,0.0,0.0,0.0,0.0,0.0,0.0,0.0,0.0,0.0,0.0,0.0,0.0,5.9161,6.2616,6.4038,6.8479,7.3124,7.7304,8.0033,8.1426,8.0991,8.0265,8.0062,8.0585,8.1078,8.1281,8.1165,8.2355,8.2762,8.2152,8.2646,8.25,8.1688,8.0439,7.9569,7.9017,7.7188,7.6114,7.5737,7.5098,7.4895,7.5011,7.4198,7.3966,7.3966,7.1847,7.1208,7.1353,6.9728,6.9263,6.9379,6.8276,6.7057,6.578,0.0,4.9717,4.9785,5.0191,5.0481,5.1004,5.202,5.3268,5.4778,5.6665,6.3545,6.9437,7.2456,7.9249,8.3952,8.4881,8.163,7.8611,7.655,7.0686,6.7086,6.6622,6.9815,7.3763,7.8349,8.1339,8.4271,8.7232,8.7697,8.8045,8.8306,8.8045,8.8074,8.8306,8.8045,8.8074,8.8277,8.7377,8.6565,8.5432,8.012,7.6172,7.3037,6.9118,6.726,6.6476,6.4125,6.3719,6.3951,6.1658,0.0,0.0,0.0,0.0,0.0,0.0,0.0,0.0,0.0,0.0,0.0,0.0,0.0,0.0,0.0,0.0,0.0,0.0,0.0,0.0,0.0,0.0,0.0,0.0,6.4154,6.8596,7.2021,7.4634,7.7856,8.2297,8.3981,8.5026,8.5636,8.4562,8.3923,8.4184,8.43,8.3981,8.3052,8.3691,8.3691,8.2791,8.3052,8.2733,8.1775,8.0643,7.9685,7.8901,7.7159,7.6027,7.5504,7.5098,7.4779,7.4459,7.3589,7.3356,7.3443,7.1237,7.0628,7.0976,0.0,0.0,0.0,0.0,6.6418,6.5402,0.0,4.9717,4.9717,4.9717,5.0211,5.0801,5.1527,5.263,5.4168,5.6229,6.3574,6.935,7.1237,7.864,8.311,8.2268,7.9685,7.6753,7.3589,6.9989,6.8538,6.9728,7.3966,7.8001,8.1775,8.4329,8.6739,8.8974,8.8422,8.8422,8.8974,8.8393,8.8451,8.8974,8.8393,8.8422,8.88,8.7668,8.7145,8.6942,8.52,8.3226,8.0701,7.533,7.3879,7.4256,7.0657,6.8392,6.6796,6.4677,0.0,0.0,0.0,0.0,0.0,0.0,0.0,0.0,0.0,0.0,0.0,0.0,0.0,0.0,0.0,0.0,0.0,0.0,0.0,0.0,0.0,0.0,0.0,0.0,6.8915,7.3647,7.9859,8.1368,8.2704,8.5026,8.6361,8.7319,8.7871,8.6913,8.6448,8.6942,8.6536,8.5636,8.4271,8.4329,0.0,0.0,0.0,8.25,8.1107,8.0962,8.0004,7.8291,7.7478,7.6521,7.5504,7.5417,7.504,7.4343,7.3298,7.3008,7.3124,7.0831,7.0366,7.0976,6.935,6.8683,6.8392,6.6506,6.5431,6.4735,0.0,4.9717,4.9717,4.9717,4.9785,5.0278,5.1439,5.2252,5.3791,5.6752,6.3051,6.7986,6.9931,7.5737,8.0236,8.2036,7.8436,7.4924,7.2224,6.9902,7.0773,7.5534,7.9046,8.2471,8.5781,8.7871,8.9148,8.9642,8.9526,8.9526,8.9642,8.9526,8.9526,8.9642,8.9526,8.9235,8.8858,8.8626,8.8219,8.7726,8.7348,8.5113,8.1659,7.8494,7.6782,7.5795,7.3501,7.3443,7.3908,7.0424,6.9437,6.8915,6.4793,6.1658,0.0,0.0,0.0,0.0,0.0,0.0,0.0,0.0,0.0,0.0,0.0,0.0,0.0,0.0,0.0,0.0,0.0,0.0,0.0,6.8654,7.3269,7.7798,8.2675,8.4794,8.6042,8.6565,8.729,8.7784,8.7929,8.7697,8.7406,8.7,8.7348,8.6768,8.4997,8.5868,8.5374,8.3081,8.311,8.2326,8.0497,7.9452,7.8494,7.7566,7.5882,0.0,7.5475,7.4953,7.4372,7.3792,7.4053,7.3066,7.1237,7.0744,6.9466,6.7812,6.7986,6.7725,6.7086,6.5693,6.4764,6.4183,0.0,4.9204,4.9291,4.9611,4.9407,4.964,5.0946,5.1672,5.3123,5.5997,6.1396,6.5606,6.7202,7.1963,7.504,7.504,7.2398,7.057,7.0279,7.144,7.4605,8.0062,8.3052,8.5781,8.8335,8.9322,8.999,9.0309,8.999,8.999,9.0309,8.999,8.999,9.0309,8.9961,8.9642,8.9322,8.9003,8.8509,8.7929,8.7929,8.6768,8.4852,8.2936,8.1397,8.012,7.8843,7.8175,7.7478,7.4924,7.3618,7.2427,6.8596,6.5838,6.3399,0.0,0.0,0.0,0.0,0.0,0.0,0.0,0.0,0.0,0.0,0.0,0.0,0.0,0.0,5.7681,6.0235,0.0,6.8189,7.3676,7.7798,8.1514,8.5055,8.6652,8.7464,8.7464,8.7726,8.7929,8.7929,8.7929,8.7813,8.7464,8.7755,8.7377,8.61,8.6042,8.5287,8.3691,8.3023,8.2065,8.0759,7.9481,7.8524,7.7885,7.6259,7.565,7.5969,7.5301,7.4663,7.4053,7.3705,7.266,7.1121,7.0163,6.8828,6.7347,6.7028,6.6506,6.5867,6.5228,6.4793,6.4473,0.0,4.8624,4.874,4.9378,4.9059,4.9175,5.0481,5.1207,5.2484,5.4923,5.9277,6.2616,6.3748,6.7434,6.9031,6.7115,6.668,6.7522,6.996,7.3966,7.8698,8.4242,8.6681,8.8742,9.0542,9.0571,9.0774,9.118,9.0658,9.06,9.0977,9.0454,9.0483,9.0977,9.0454,9.0135,8.9961,8.9322,8.8684,8.8103,8.7987,8.7929,8.7813,8.6797,8.5752,8.4736,8.3865,8.1717,7.9133,7.8117,7.6317,7.4082,7.1673,6.9931,6.7928,6.3428,6.1193,0.0,0.0,0.0,0.0,0.0,0.0,0.0,0.0,0.0,5.5591,5.7652,5.9713,6.2238,6.5809,6.9408,7.3472,7.8494,8.1717,8.4358,8.6652,8.7523,8.7929,8.7929,8.7929,8.7929,8.7929,8.7929,8.7929,8.7929,8.7929,8.761,8.6826,8.5955,8.491,8.3749,8.2849,8.1833,8.0672,7.9627,7.8756,7.8001,7.684,7.6346,7.6508,7.5795,7.5069,7.4256,7.2718,7.1789,7.115,6.9234,6.8073,6.7376,6.6215,6.5431,6.4996,6.4996,6.4822,6.4561,0.0,4.8275,4.8072,4.874,4.8769,4.9175,5.0481,5.1207,5.2339,5.4342,5.7071,5.9132,5.9858,6.1861,6.3283,6.3603,6.6622,7.0279,7.4488,7.7333,8.192,8.8771,9.0454,9.1848,9.3212,9.3241,9.3009,9.2516,9.2428,9.2138,9.1674,9.1587,9.1587,9.1674,9.1587,9.1238,9.0658,8.999,8.9351,8.8713,8.8161,8.7929,8.79,8.7755,8.7639,8.7261,8.552,8.2471,7.9278,7.9133,7.7043,7.4547,7.4808,7.3589,7.1208,6.6709,6.2935,5.9364,5.5562,5.3268,5.2572,5.5213,5.4691,5.4981,0.0,6.1106,6.1048,6.3516,6.6012,6.8567,7.1266,7.3995,7.7304,8.1862,8.3894,8.5374,8.6797,8.7523,8.7929,8.7929,8.7929,8.7929,8.7929,8.7929,8.7929,8.7929,8.7929,8.7406,8.6216,8.6536,8.5432,8.25,8.2849,8.1688,7.8756,7.8582,7.7885,7.6666,7.594,7.5911,7.6508,7.5795,7.4866,7.3589,7.115,7.0047,6.9844,6.7899,6.6709,6.607,6.5373,6.5054,6.4996,6.4996,6.427,6.337,0.0,0.0,4.7433,4.8072,4.8188,4.8478,4.9407,5.0423,5.1614,5.3181,5.4981,5.6345,5.6955,5.7739,5.8319,5.8581,6.3167,6.8247,7.3472,7.8669,8.4387,9.0687,9.2196,9.3125,9.3648,9.3677,9.3532,9.327,9.327,9.2951,9.2312,9.2312,9.2138,9.1761,9.1761,9.1412,9.0803,9.0513,8.9816,8.8858,8.8597,8.8248,8.7842,8.7116,8.5636,8.3894,8.311,8.0585,0.0,7.6375,7.5098,7.4053,7.4314,7.3066,7.086,6.7463,6.3777,0.0,5.6084,5.4981,5.5242,5.6607,5.8,5.9974,6.3399,6.4648,6.5693,6.787,7.0657,7.3501,7.6027,7.864,8.1339,8.4329,8.5578,8.6506,8.7406,8.7116,8.6419,8.5316,8.5171,8.5752,8.7232,8.7377,8.7377,8.7377,8.7377,8.6971,8.6071,8.5926,8.4736,8.2268,8.2471,8.1426,7.8959,7.8582,7.7943,7.7014,7.6375,7.5998,7.5882,7.5214,7.4024,7.2398,7.0947,6.9902,6.9089,6.7522,6.6506,6.5867,6.5228,6.4996,6.4996,6.4996,6.4648,6.4241,0.0,0.0,0.0,4.7433,4.7521,4.784,4.8827,4.9959,5.1004,5.1984,5.3007,5.3878,5.4313,5.4517,5.4691,5.4865,5.9858,6.5489,7.144,7.8291,8.4852,9.0977,9.2806,9.3822,9.4199,9.4199,9.4112,9.3938,9.3938,9.359,9.298,9.298,9.2632,9.2022,9.2022,9.1674,9.1064,9.089,9.0164,8.9119,8.8945,8.8393,8.7435,8.5461,8.2588,7.9598,7.9423,7.6753,7.3095,7.1702,7.0889,7.0599,7.1469,7.0802,6.9176,6.6796,6.3138,5.9248,5.6432,5.6752,5.8058,5.8929,6.1658,6.4648,6.6651,6.845,7.0308,7.2398,7.4982,7.7566,7.9946,8.192,8.3865,8.5955,8.6681,8.7145,8.761,8.6274,8.4591,8.2849,8.1862,8.221,8.4387,8.5578,8.6274,8.6448,8.6448,8.6187,8.552,8.491,8.3749,8.1978,8.1746,8.0817,7.9075,7.8436,7.7798,7.713,7.6491,7.5969,7.5475,7.4459,7.324,7.1876,7.0889,6.9728,6.8479,6.7347,6.6418,6.5635,6.517,6.4996,6.4996,6.4996,6.488,6.4764,0.0,0.0,0.0,0.0,4.6807,4.7491,4.9349,5.027,5.0685,5.0714,5.1294,5.1701,5.173,5.2281,5.2891,5.353,5.771,6.3022,6.9437,7.5853,8.2559,8.9584,9.2312,9.4257,9.5535,9.5564,9.5244,9.4577,9.4577,9.4257,9.3648,9.3648,9.3299,9.269,9.269,9.2341,9.1703,9.1093,9.0425,8.9729,8.9119,8.8132,8.6594,8.2791,7.8988,7.5592,7.4953,7.0657,6.5315,6.5257,6.4009,6.2993,6.6099,6.7057,0.0,6.4677,6.0526,5.652,5.6403,5.7768,5.9974,6.2989,6.5315,6.7754,7.1528,7.3385,7.504,7.7624,7.922,8.0759,8.2704,8.3139,8.401,8.6536,8.6971,8.7,8.7,8.4852,8.2791,8.1426,7.8524,7.7188,0.0,8.2007,8.4445,8.5084,8.5142,8.4852,8.4184,8.3575,8.2617,8.1281,8.0643,7.9743,7.8436,7.7769,7.713,7.6567,7.5853,7.5534,7.5446,7.3531,7.2631,7.2485,7.0628,6.9089,6.7841,6.7173,6.6157,6.5025,6.4996,6.4996,6.4996,6.4996,6.459,6.4091,0.0,0.0,0.0,0.0,0.0,4.7201,4.8246,4.8972,4.9698,5.0569,5.1236,0.0,0.0,0.0,0.0,0.0,5.62,6.0642,6.6244,7.3385,7.9801,8.52,8.9903,9.2603,9.3067,9.388,9.4402,9.4606,9.4606,9.4519,9.4286,9.388,9.3328,9.269,9.2283,9.1964,9.1732,9.1093,9.0425,8.9642,8.7755,8.6477,8.5287,8.1426,7.6259,7.0657,0.0,6.3806,6.0351,5.9074,5.8493,5.8668,6.0584,6.0874,6.0061,5.7739,5.7332,5.7768,5.8203,6.0642,6.3951,6.758,6.9931,7.2137,7.5127,7.6462,7.7333,7.8233,7.7711,7.7449,7.8524,7.8727,7.9685,8.2646,8.4213,8.5374,8.6245,8.5258,8.2704,7.7972,7.7217,0.0,0.0,0.0,0.0,8.3023,8.3575,8.3546,8.2878,8.2646,8.1746,7.9975,7.9743,7.9017,7.774,7.7507,7.7101,7.6538,7.5388,7.4866,7.4779,7.2863,7.1528,7.0657,6.9612,6.816,6.6564,6.6331,6.5751,6.4996,6.4996,6.4996,6.4996,6.4996,6.4851,6.4706,0.0,0.0,0.0,0.0,0.0,0.0,0.0,0.0,0.0,0.0,0.0,0.0,0.0,0.0,0.0,0.0,0.0,5.7826,6.2296,6.8509,7.4024,7.8553,8.2936,8.549,8.5955,8.6536,8.7581,8.9148,8.938,9.0193,9.1529,9.1354,9.118,9.1006,9.0832,9.0745,9.0687,8.9816,8.8539,8.6855,8.4068,8.1746,7.9481,7.5156,6.9989,0.0,5.9974,5.6868,5.472,5.3704,5.3791,5.4546,5.5591,5.5765,5.5416,5.4458,5.6316,5.9103,6.1135,6.4473,6.8189,7.1586,7.3908,7.5766,7.7391,7.8262,7.8465,7.7566,7.6027,7.475,7.4459,7.3647,7.4314,7.8175,7.9685,8.1426,8.4562,8.3081,8.0294,7.6637,7.5504,7.3966,0.0,0.0,0.0,8.0265,8.1514,8.1978,8.1543,8.1281,8.0585,7.9336,7.8843,7.8233,7.742,7.7188,7.6637,7.584,7.4488,7.3734,7.3414,7.1528,7.0221,6.9379,6.8509,6.7289,6.5925,6.5925,6.5548,6.4996,6.4996,6.4996,6.4967,6.4735,6.4648,6.4648,0.0,0.0,0.0,0.0,0.0,0.0,0.0,0.0,0.0,0.0,0.0,0.0,0.0,0.0,0.0,0.0,0.0,0.0,5.7855,6.1658,6.5722,7.0047,7.2253,7.3966,7.5185,7.4663,7.5882,7.8959,7.9627,8.1833,8.5461,8.6071,8.6681,8.7319,8.79,8.8132,8.8074,8.6797,8.4474,8.1368,7.8146,7.4285,6.9931,6.4938,6.1019,5.7652,5.3326,5.0481,4.8856,4.9436,5.0104,5.083,5.1468,5.2136,5.3065,5.5039,5.7507,6.0555,6.4967,6.8973,7.2515,7.5069,7.7072,7.8407,7.8407,7.8727,7.8291,7.5737,7.4024,7.2398,0.0,0.0,6.8276,7.3472,7.4053,7.6056,8.2413,7.9075,7.6375,0.0,0.0,0.0,0.0,0.0,0.0,7.6985,7.9046,8.0178,8.0236,7.9685,7.9307,7.9249,7.8059,7.7391,7.7362,7.6724,7.5795,7.4605,7.3269,7.2282,7.1615,6.9699,6.8799,6.8654,6.7376,6.6476,6.5867,6.5867,6.5519,6.4996,6.4996,6.4967,6.4851,6.427,6.3946,6.3917,0.0,0.0,0.0,0.0,0.0,0.0,0.0,0.0,0.0,0.0,0.0,0.0,0.0,0.0,0.0,0.0,0.0,0.0,5.4575,5.8348,6.1425,6.3545,6.7754,7.0424,7.1208,7.1992,7.3037,7.4314,7.4982,7.6056,7.7478,7.7653,7.8059,7.8669,7.8349,7.8204,7.8088,7.6811,7.5534,7.4082,7.086,6.8596,6.6796,6.3574,6.009,5.6607,5.4517,5.1904,4.9378,4.9059,5.0046,5.1497,5.2136,5.3094,5.4575,5.7477,0.0,6.4415,6.8421,7.2311,7.5737,7.7827,7.8378,7.8407,7.8407,7.6666,7.4343,7.176,6.758,6.3922,0.0,0.0,0.0,7.0715,7.4779,0.0,8.3894,8.3458,0.0,7.8494,0.0,7.5359,7.2631,7.3676,0.0,7.5214,7.7043,7.8553,7.9511,7.9859,7.9598,7.8669,7.7827,7.7159,7.6695,7.6056,7.5592,7.5243,7.3472,7.2282,7.1615,6.9699,6.8305,6.7347,6.6535,6.5809,6.5228,6.5228,6.5141,6.4996,6.4996,6.4706,6.427,6.4033,6.3748,6.3254,0.0,0.0,0.0,0.0,0.0,0.0,0.0,0.0,0.0,0.0,0.0,0.0,0.0,0.0,0.0,0.0,0.0,0.0,0.0,5.4313,5.6084,5.7361,5.9887,6.1571,6.2209,6.2645,6.4009,6.6331,6.6418,6.7783,7.0366,7.0076,7.0424,7.1324,7.1528,7.1789,7.1934,7.0947,6.9525,0.0,0.0,6.189,5.9858,5.7855,5.5562,5.3326,5.2339,5.1178,5.0191,0.0,0.0,5.353,5.5039,5.6607,5.8523,6.2035,0.0,6.8741,7.2602,7.5853,7.8465,7.9801,7.9249,7.7885,7.5911,7.3414,7.0221,6.5664,6.1483,0.0,5.6258,5.6955,5.9829,0.0,0.0,0.0,8.2123,8.25,8.1514,0.0,7.8901,0.0,7.4576,7.5301,7.5882,7.5795,7.7072,7.8146,7.8872,7.9511,7.9423,7.8436,7.774,7.7101,7.6538,7.5534,7.4953,7.4663,7.2718,7.1295,7.0366,6.8712,6.7434,6.6418,6.578,6.5315,6.4996,6.4996,6.4996,6.4967,6.4677,6.4357,6.3917,6.3399,6.2964,6.2529,0.0,0.0,0.0,0.0,0.0,0.0,0.0,0.0,0.0,0.0,4.932,0.0,0.0,0.0,0.0,0.0,0.0,0.0,0.0,0.0,5.0946,5.2187,5.1672,5.1672,5.2362,5.1788,5.3384,5.7274,5.6781,5.8842,6.3196,6.2732,6.3138,6.4328,6.546,6.6273,6.6767,6.6128,6.4183,6.1309,5.8435,5.5242,5.2129,0.0,5.0191,4.9582,4.8943,4.9494,5.0888,5.3239,5.4981,5.6665,5.9422,6.1658,6.4009,6.787,7.0628,7.324,7.6898,7.9278,8.0759,8.1107,7.9656,7.6985,7.2544,6.9612,6.5925,5.919,0.0,5.3936,5.1556,5.2281,5.5271,6.1367,0.0,7.1063,7.9511,7.9656,7.9569,8.1368,7.9917,7.8291,7.7072,7.6898,7.7043,7.7507,7.8146,7.8524,7.8524,7.9104,7.9133,7.8436,7.7682,7.7014,7.6538,7.5156,7.4198,7.3589,7.1644,7.0018,6.8654,6.7434,6.6476,6.578,6.5228,6.4996,6.4996,6.4996,6.4996,6.4909,6.427,6.3917,6.3777,6.2558,6.1977,6.1687,0.0,0.0,0.0,0.0,0.0,0.0,0.0,0.0,0.0,0.0,4.9494,4.8885,0.0,0.0,0.0,0.0,0.0,0.0,0.0,0.0,0.0,5.0182,5.0075,5.0307,5.0975,5.0888,5.1207,5.1991,5.2397,5.3065,5.3936,5.4371,5.4952,5.5678,5.591,5.6084,5.6113,5.5503,5.4604,5.35,5.2426,5.1265,5.0211,4.9979,0.0,0.0,4.8943,4.9204,5.054,5.5097,5.8232,6.0816,6.4415,6.726,6.9989,7.385,7.565,7.7014,7.9772,8.1601,8.2442,8.1455,7.8988,7.5766,7.1789,6.6535,0.0,0.0,5.2775,5.0249,4.8711,5.0365,5.4517,6.2412,6.6941,7.2544,8.1426,8.2036,8.2036,0.0,8.1891,8.0439,7.9714,7.9133,0.0,7.8262,7.8785,7.9133,7.9133,7.9772,7.9598,7.8436,7.7246,7.6579,7.6538,7.5156,7.4198,7.3589,7.1644,6.9786,6.8015,6.7231,6.6244,6.5141,6.5025,6.4996,6.4996,6.4996,6.4996,6.4909,6.427,6.3719,6.3167,6.2383,6.1425,6.0584,0.0,0.0,0.0,0.0,0.0,0.0,0.0,4.932,5.0452,5.3704,5.3297,5.2078,5.0423,4.8769,4.7782,0.0,0.0,0.0,0.0,0.0,0.0,0.0,4.9717,4.9814,5.0162,5.0211,5.0481,5.1178,0.0,5.0946,5.1614,5.1236,5.1236,5.1527,5.1875,5.2049,5.2049,5.2049,5.1701,5.1091,5.0801,5.0328,4.9717,0.0,0.0,0.0,0.0,4.9088,5.0714,5.4168,5.8145,6.2558,6.7754,7.1382,7.4343,7.7507,7.8901,7.9946,8.253,8.3691,8.3778,8.2123,7.8553,7.3908,6.8073,0.0,0.0,0.0,4.903,4.755,4.6911,4.9175,0.0,5.8639,6.3051,6.8683,7.7043,7.8785,0.0,8.2791,8.2268,8.1455,0.0,8.0178,7.9685,7.9423,7.9656,7.9656,7.9307,7.9307,7.8872,7.7914,7.6956,7.6288,7.5969,7.5011,7.3879,7.2602,7.1324,6.9728,6.787,6.7202,6.636,6.546,6.5141,6.4996,6.4996,6.4996,6.4996,6.4909,6.427,6.3661,6.3022,6.2325,6.1513,6.07,0.0,0.0,0.0,0.0,0.0,0.0,5.1875,5.1846,5.3036,5.7913,5.7768,5.6055,5.2978,5.022,4.8275,0.0,0.0,0.0,0.0,0.0,0.0,0.0,0.0,4.9717,4.9717,0.0,0.0,5.1207,5.0162,0.0,0.0,0.0,0.0,0.0,5.022,5.0502,5.0481,5.0975,5.0917,0.0,0.0,5.0182,0.0,0.0,0.0,0.0,0.0,0.0,5.0569,5.263,5.6578,6.1658,6.7405,7.2456,7.6724,7.9191,8.0614,8.1949,8.4416,8.5287,8.4968,8.2733,7.8117,7.2166,6.4764,5.8668,0.0,4.7851,4.633,4.5895,4.5895,4.8072,5.0975,0.0,5.8406,6.3806,7.1673,7.4808,7.7682,0.0,0.0,0.0,8.1455,8.073,0.0,8.0294,8.0178,7.9859,7.9336,7.8582,7.7943,7.742,7.6782,7.6143,7.5534,7.4837,7.3618,7.1847,7.1092,6.9786,6.8073,6.7231,6.6535,6.5896,6.5257,6.4996,6.4996,6.4996,6.4996,6.4909,6.427,6.3719,6.3196,6.2383,6.1716,6.1106,0.0,0.0,0.0,0.0,0.0,0.0,5.1875,5.2949,5.5503,6.1745,6.099,5.8871,5.6258,5.3152,4.9843,0.0,0.0,0.0,0.0,0.0,0.0,0.0,0.0,0.0,0.0,0.0,0.0,4.9843,4.9776,0.0,0.0,0.0,0.0,0.0,0.0,4.9805,4.9834,4.9814,0.0,0.0,0.0,0.0,0.0,0.0,0.0,0.0,0.0,0.0,0.0,0.0,0.0,5.6636,6.0148,6.7841,7.5998,7.8001,0.0,0.0,8.4533,8.5926,8.6071,8.2965,7.7449,7.1092,6.459,0.0,0.0,4.7503,4.633,4.5895,4.5895,4.6592,4.8576,5.2978,5.5968,6.0642,6.8973,7.3298,7.7014,0.0,0.0,0.0,8.2094,8.102,8.0294,8.0294,7.9743,7.9365,7.9307,7.8146,7.7478,7.7391,7.6782,7.6143,7.5534,7.4837,7.385,7.2515,7.1295,7.0018,6.8712,6.7463,6.6535,6.5896,6.5257,6.4996,6.4996,6.4996,6.4996,6.4909,6.427,6.3946,6.3806,6.2558,6.1716,6.1193,0.0,0.0,0.0,0.0,0.0,0.0,5.3413,5.2862,5.4923,6.3661,6.3138,6.1716,6.1077,5.7797,5.3007,4.6446,0.0,0.0,0.0,0.0,0.0,0.0,0.0,0.0,0.0,0.0,4.9717,4.9717,4.9717,0.0,0.0,0.0,0.0,0.0,0.0,0.0,4.9717,4.9717,0.0,0.0,0.0,0.0,0.0,0.0,0.0,0.0,0.0,0.0,4.8246,0.0,0.0,0.0,5.4052,5.9393,0.0,0.0,7.6143,7.9598,8.3429,8.5984,8.6594,8.2617,7.7072,7.0628,6.308,0.0,5.0598,4.6998,4.6069,4.5895,4.5895,4.6098,4.7085,4.964,5.0917,0.0,6.1251,6.427,6.845,7.5766,7.7537,0.0,0.0,0.0,8.0701,8.0323,7.9336,7.8756,7.8756,7.7885,7.7217,7.684,7.623,7.5592,7.4953,7.4285,7.3327,7.205,7.115,7.0047,6.877,6.7463,6.6535,6.5896,6.5257,6.4996,6.4996,6.4996,6.4996,6.4967,6.4706,6.4386,6.3917,6.3457,6.2616,6.1745,0.0,0.0,0.0,0.0,0.0,4.7898,5.3936,5.3588,5.5707,6.4178,6.4357,6.369,6.3748,5.9655,5.4458,4.8391,4.6824,0.0,0.0,0.0,0.0,0.0,0.0,0.0,0.0,0.0,4.9717,4.9717,4.9717,4.9717,0.0,0.0,0.0,0.0,0.0,0.0,0.0,0.0,0.0,0.0,0.0,0.0,0.0,0.0,0.0,0.0,0.0,0.0,0.0,0.0,0.0,0.0,0.0,5.1991,5.6897,0.0,7.1557,7.6346,8.1107,8.4562,8.5868,8.1949,7.6346,6.9757,0.0,0.0,5.0307,4.665,4.5895,4.5895,4.5895,4.5895,4.6185,4.7085,0.0,5.0104,5.5939,5.8377,0.0,0.0,0.0,7.5098,7.9133,8.0381,8.0672,8.0062,7.8814,7.8117,7.8117,7.7478,7.6927,7.6538,7.5853,7.5185,7.4547,7.3734,7.2776,7.1673,7.0657,6.9699,6.877,6.7289,6.636,6.5896,6.5257,6.4996,6.4996,6.4996,6.4996,6.4996,6.4996,6.4706,6.4299,6.4033,6.3457,6.2645,0.0,0.0,0.0,0.0,0.0,0.0,5.2746,5.5649,5.8871,6.3395,6.459,6.4502,6.3225,5.739,5.3268,5.2623,4.9001,0.0,0.0,0.0,0.0,0.0,0.0,0.0,0.0,0.0,4.9717,4.9717,4.9717,4.9717,4.9717,4.9717,4.9717,4.9717,0.0,0.0,0.0,0.0,0.0,0.0,0.0,0.0,4.8692,0.0,0.0,0.0,0.0,0.0,0.0,0.0,0.0,0.0,0.0,4.6824,4.9785,5.9364,6.7144,7.3501,7.7391,8.1223,8.3517,8.0933,7.5011,6.8131,0.0,0.0,4.9756,4.6563,4.5895,4.5895,4.5895,4.5895,4.5895,4.5895,4.7491,0.0,5.4807,5.8174,6.1861,0.0,0.0,7.0657,7.5127,7.8436,8.0033,7.9365,7.8117,7.742,7.742,7.6811,7.6538,7.6538,7.5853,7.5185,7.4518,7.3269,7.2311,7.1644,6.9757,6.8828,6.877,6.6825,6.5954,6.5896,6.5257,6.4996,6.4996,6.4996,6.4996,6.4996,6.4996,6.4996,6.4909,6.427,6.3975,6.3859,0.0,0.0,0.0,0.0,0.0,0.0,4.9785,5.054,5.2717,5.8116,5.8232,5.8842,6.1513,5.6461,5.3152,5.3849,4.9582,0.0,0.0,0.0,0.0,0.0,0.0,0.0,0.0,4.9717,5.0104,5.1004,5.1439,5.1693,5.1693,5.1693,5.1228,5.0336,4.9921,4.9717,0.0,0.0,0.0,0.0,0.0,4.9291,4.8663,0.0,0.0,0.0,0.0,0.0,0.0,0.0,0.0,0.0,0.0,0.0,0.0,5.2339,5.9219,6.5896,6.8015,7.1702,7.414,7.0686,6.6186,6.1396,5.6694,0.0,4.8682,4.6359,4.5895,4.5895,4.5895,4.5895,4.6301,4.7608,4.8711,0.0,0.0,0.0,0.0,6.5635,7.2398,7.7566,0.0,8.0207,8.0033,7.9365,7.8553,7.7885,7.742,7.6811,7.6259,7.5824,7.5185,7.4518,7.3908,7.3037,7.2079,7.1005,6.996,6.877,6.7463,6.6418,6.5693,6.5257,6.5083,6.4996,6.4996,6.4996,6.4996,6.4996,6.4996,6.4996,6.4967,6.4764,6.4415,6.3946,0.0,0.0,0.0,0.0,0.0,0.0,0.0,4.8711,5.0423,5.3791,5.3965,5.5213,5.8987,5.4226,5.1672,5.3936,5.0104,0.0,0.0,0.0,0.0,0.0,0.0,0.0,4.9717,4.9979,5.1033,5.3036,5.3704,5.44,5.5097,5.4865,5.3675,5.173,5.1062,5.0415,0.0,0.0,0.0,0.0,5.0008,4.9524,4.8663,0.0,0.0,0.0,0.0,0.0,0.0,0.0,0.0,0.0,0.0,0.0,0.0,0.0,5.2601,5.8116,6.1367,6.4996,6.7202,6.4561,6.1193,5.7594,0.0,0.0,4.8188,4.6272,4.5895,4.5895,4.5895,4.5895,4.6272,4.7462,4.7985,4.903,0.0,0.0,0.0,6.5199,7.3153,0.0,7.922,7.9685,7.9743,7.9336,7.8291,7.7595,7.742,7.6579,7.5795,7.5156,7.4721,7.4227,7.3618,7.2485,7.1382,7.0366,6.9234,6.7928,6.6506,6.5867,6.5373,6.4996,6.4996,6.4996,0.0,6.4996,6.4996,6.4996,6.4996,6.4996,6.4996,6.4996,6.4735,6.4386,0.0,0.0,0.0,0.0,0.0,0.0,0.0,4.9349,5.1062,5.0481,5.1439,5.3094,5.5533,5.0975,4.9204,5.292,0.0,0.0,0.0,0.0,0.0,0.0,0.0,0.0,4.9717,5.0386,5.2223,5.5416,5.6113,5.7477,5.9364,5.8668,5.6665,5.3559,5.2862,5.1548,4.9727,5.0336,5.0299,4.9727,5.0415,4.9814,0.0,0.0,0.0,0.0,0.0,0.0,0.0,0.0,0.0,0.0,0.0,0.0,0.0,0.0,0.0,0.0,0.0,6.0206,6.1977,6.1251,5.8755,5.5736,5.2833,5.0278,0.0,4.6243,4.5895,4.5895,4.5953,4.5924,4.5953,4.6127,4.6185,4.7491,5.1178,5.382,5.8174,0.0,7.1528,7.4895,7.4808,7.7537,7.9278,7.9249,7.7566,7.6753,7.7304,7.6172,7.5185,7.4547,7.4459,7.414,7.356,7.1702,7.0424,6.9699,6.7841,6.6564,6.5838,6.5257,6.4996,0.0,6.4996,6.4996,6.4996,6.4996,6.4996,6.4996,6.4996,6.4996,6.4996,6.4996,6.4996,6.4996,0.0,0.0,0.0,0.0,0.0,0.0,0.0,0.0,0.0,0.0,4.7985,4.8595,4.9698,4.8159,4.8014,0.0,0.0,0.0,0.0,0.0,0.0,0.0,0.0,0.0,4.9717,5.0386,5.2223,5.5416,5.6549,5.8087,5.9974,5.9364,5.7361,5.4226,5.3094,5.1548,4.9746,4.9892,4.9814,4.9746,4.9892,4.9146,0.0,0.0,0.0,0.0,4.5924,4.5895,0.0,0.0,0.0,0.0,0.0,0.0,0.0,0.0,4.6301,4.7114,4.8624,0.0,5.2601,5.1439,4.9843,4.8508,0.0,4.7346,4.6417,4.5982,4.5895,4.604,4.6505,4.6214,4.6534,4.8478,4.9204,5.022,5.2078,5.9045,6.6273,7.2515,7.6608,7.8553,7.7595,7.8582,7.9104,7.864,7.774,7.7043,7.6695,7.594,7.5214,7.4576,7.4082,7.3501,7.2863,7.1905,7.0657,6.9031,6.8102,6.6796,6.5199,6.5054,6.4996,6.4996,6.4996,6.4996,6.4996,6.4996,6.4996,6.4996,6.4996,6.4996,6.4996,6.4996,6.4996,6.4996,0.0,0.0,0.0,0.0,0.0,0.0,0.0,0.0,0.0,0.0,4.6911,4.7172,4.694,4.7375,0.0,0.0,0.0,0.0,0.0,0.0,0.0,0.0,0.0,4.9717,4.9717,5.0627,5.2949,5.6723,5.8,6.0061,6.2819,6.189,5.9597,5.6113,5.3065,5.0996,4.9698,5.0017,5.0008,4.9717,4.9717,0.0,0.0,0.0,0.0,0.0,4.5982,4.5895,0.0,4.6882,4.6998,4.6795,0.0,0.0,0.0,0.0,4.5895,4.5895,4.5895,4.7114,4.817,4.7521,4.6824,4.6417,4.672,4.633,4.5895,4.5895,4.5895,4.5982,4.633,4.6127,4.6417,4.8101,4.8914,5.083,5.5068,6.2122,6.8915,7.4401,7.7362,7.9046,7.9249,7.9046,7.8756,7.8436,7.7507,7.6695,7.6056,7.5417,7.4634,7.3705,7.3066,7.2544,7.2195,7.1266,6.9989,6.8392,6.7434,6.6273,6.4996,6.4996,6.4996,6.4996,6.4996,6.4996,6.4996,6.4996,6.4996,6.4996,6.4996,6.4996,6.4996,6.4996,6.4996,6.4938,0.0,0.0,0.0,0.0,0.0,0.0,0.0,0.0,0.0,0.0,0.0,0.0,0.0,0.0,0.0,0.0,0.0,0.0,0.0,0.0,0.0,0.0,4.9717,4.9756,4.9959,5.1062,5.3733,5.8,5.9684,6.2296,6.578,6.5083,6.2499,5.8261,5.35,5.0859,4.9988,5.0531,5.0386,4.9814,4.9727,0.0,0.0,0.0,0.0,0.0,0.0,0.0,0.0,4.7753,4.7985,4.7724,4.8159,0.0,0.0,0.0,0.0,0.0,4.6359,4.694,4.7288,4.6824,4.672,4.6749,4.6662,4.6272,4.5895,4.5895,4.5895,4.5924,4.6011,4.6185,4.6563,4.7288,4.8449,5.1904,5.9539,6.4561,6.9263,7.4082,7.655,7.8349,7.9598,7.893,7.8349,7.8262,7.7043,7.6085,7.5534,7.4779,7.3879,7.2805,7.205,7.1586,7.1382,7.0221,6.9031,6.787,6.6564,6.5606,6.4996,6.4996,6.4996,6.4996,6.4996,6.4996,6.4967,6.488,6.4909,6.4967,6.488,6.4909,6.4996,6.4996,6.4996,6.488,0.0,0.0,0.0,0.0,0.0,0.0,0.0,0.0,0.0,0.0,0.0,0.0,0.0,0.0,0.0,0.0,0.0,0.0,0.0,0.0,0.0,4.9717,4.9717,5.0191,5.1294,5.1527,5.3297,5.6694,6.0119,6.2935,6.517,6.7173,6.488,5.9016,5.6026,5.3442,5.1294,5.0859,5.0627,5.0531,4.993,0.0,0.0,0.0,0.0,0.0,0.0,0.0,0.0,4.6214,4.6621,4.6911,4.6446,0.0,0.0,0.0,0.0,0.0,4.8508,4.9582,4.9436,4.6708,4.6417,4.6662,4.6156,4.5953,4.5895,4.5895,4.5895,4.604,4.6592,4.755,4.8682,4.9901,5.3326,5.8348,6.5548,6.8625,7.144,7.4953,7.8001,7.9104,7.7217,7.7856,7.8175,7.7595,7.6375,7.5621,7.5504,7.4401,7.3676,7.3472,7.2282,7.115,7.0076,6.935,6.8596,6.787,6.6564,6.5606,6.4996,6.4996,6.4996,6.4996,6.4996,6.4996,6.4938,6.4415,6.4502,6.4938,6.4386,6.4502,6.4996,6.4996,6.4996,6.488,0.0,0.0,0.0,0.0,0.0,0.0,0.0,0.0,0.0,0.0,0.0,0.0,0.0,0.0,0.0,0.0,0.0,0.0,0.0,0.0,5.0452,5.2223,5.1614,5.1527,5.2107,5.382,5.6432,6.0032,6.3864,6.6883,6.906,6.7492,6.427,5.9626,5.5997,5.3355,5.1585,5.1294,5.1004,5.0627,0.0,0.0,0.0,0.0,0.0,0.0,0.0,0.0,0.0,0.0,4.7608,4.7764,4.7521,0.0,0.0,0.0,0.0,0.0,4.7317,4.8101,4.8391,4.7608,4.8159,4.8449,4.6766,4.6127,4.6069,4.6766,4.665,4.6911,4.8595,4.9959,5.1904,5.5271,5.8987,6.2964,6.7289,6.9525,7.205,7.5592,7.7333,7.8175,7.8001,7.7914,7.774,7.742,7.623,7.5359,7.4982,7.4111,7.3124,7.2079,7.115,7.0047,6.877,6.7754,6.7115,6.6825,6.5867,6.5257,6.4996,6.4996,6.4996,6.4996,6.4996,6.4996,6.4967,6.4677,6.4735,6.4967,6.4677,6.4735,6.4996,6.4996,6.4764,6.4444,0.0,0.0,0.0,0.0,0.0,0.0,0.0,0.0,0.0,0.0,0.0,0.0,0.0,0.0,0.0,0.0,0.0,0.0,0.0,4.9717,5.0975,5.3936,5.3675,5.3965,5.5064,5.7274,6.0409,6.4444,6.8596,7.1934,7.4285,6.9031,6.4677,6.1106,5.6461,5.353,5.2049,5.1904,5.1556,5.1033,0.0,0.0,0.0,0.0,0.0,0.0,0.0,0.0,0.0,0.0,0.0,0.0,0.0,0.0,0.0,4.6388,4.5982,4.6214,4.665,4.7143,4.7724,4.8711,4.9349,4.9524,4.8624,4.7666,4.7491,4.9204,4.8943,4.9001,5.0975,5.2978,5.5939,6.0758,6.4357,6.7289,6.9379,7.1034,7.3269,7.6521,7.6898,7.742,7.8727,7.7972,7.7275,7.6985,7.5911,7.5011,7.4343,7.3589,7.2398,7.0773,6.996,6.8944,6.7667,6.6506,6.5925,6.5925,6.5286,6.4996,6.4996,6.4996,6.4996,6.4967,6.4822,6.4764,6.4764,6.459,6.4648,6.4764,6.4764,6.4851,6.4996,6.4996,6.459,6.4004,0.0,0.0,0.0,0.0,0.0,0.0,0.0,0.0,0.0,0.0,0.0,0.0,0.0,0.0,0.0,0.0,0.0,0.0,0.0,4.9717,5.0598,5.2681,5.4894,5.8087,6.2238,6.1948,6.3922,6.8421,7.3443,7.7217,7.9627,7.3879,6.8857,6.4415,5.9306,5.5678,5.3326,5.2746,5.2484,5.2333,5.0473,0.0,0.0,0.0,0.0,0.0,0.0,0.0,0.0,0.0,0.0,0.0,0.0,0.0,4.7579,4.6272,4.6301,4.7097,4.8972,4.9465,4.9494,4.963,4.8333,4.8112,5.2136,5.1643,5.1178,5.4226,5.3878,5.3094,5.3268,5.6781,6.0932,6.488,6.8712,7.2079,7.4605,7.5592,7.6608,7.8088,7.8262,7.8059,7.7595,7.7449,7.6927,7.5737,7.5011,7.4343,7.3705,7.2485,7.1469,7.0744,6.9525,6.8276,6.697,6.6273,6.5925,6.5925,6.5286,6.4996,6.4996,6.4996,6.4996,6.4967,6.4357,6.4033,6.4067,6.3457,6.3574,6.4033,6.4033,6.4473,6.4996,6.4996,6.459,6.4125,0.0,0.0,0.0,0.0,0.0,0.0,0.0,0.0,0.0,0.0,0.0,0.0,0.0,0.0,0.0,0.0,0.0,0.0,0.0,5.0423,5.2107,5.4836,5.6258,5.9248,6.4154,6.7144,7.1034,7.5969,7.9104,8.0527,8.0149,7.3153,6.7492,6.2993,5.8232,5.5387,5.4081,5.3442,5.3152,5.2978,5.1062,4.9669,0.0,0.0,0.0,0.0,0.0,0.0,0.0,0.0,4.6969,4.7317,4.6766,4.7143,4.7521,4.6243,4.604,4.6388,4.7143,4.7898,4.8846,4.9988,4.9756,4.9756,5.1875,5.3007,5.4429,5.7245,5.7739,5.7913,5.8697,6.1861,6.5228,6.7899,7.1557,7.4663,7.6433,7.6898,7.7507,7.8814,7.8262,7.7682,7.742,7.7043,7.6462,7.5592,7.4547,7.3676,7.3037,7.1789,7.0599,6.9583,6.8683,6.7609,6.6302,6.5664,6.5344,6.5344,6.5112,6.4996,6.4996,6.4996,6.4996,6.4967,6.4735,6.4619,6.4619,6.4357,6.4415,6.4619,6.4619,6.4764,6.4996,6.4996,6.4822,6.4677,0.0,0.0,0.0,0.0,0.0,0.0,0.0,0.0,0.0,0.0,0.0,0.0,0.0,0.0,0.0,0.0,0.0,0.0,5.0017,5.0627,5.2339,5.5358,5.6665,5.9887,6.546,7.1208,7.6056,7.9975,8.3139,8.3081,7.983,7.3153,6.7841,6.3719,5.9016,5.681,5.652,5.5039,5.4197,5.3646,5.1527,4.9901,0.0,0.0,0.0,0.0,0.0,0.0,0.0,0.0,4.6795,4.7143,4.6853,4.723,4.7579,4.6505,4.633,4.6388,4.5982,4.6534,4.7608,4.932,5.0365,5.1556,5.382,5.5997,5.8493,6.1919,6.2296,6.2209,6.2877,6.5141,6.7463,6.9205,7.3211,7.6346,7.7014,7.7449,7.7972,7.8611,7.7769,7.7101,7.7101,7.6521,7.5882,7.5243,7.4024,7.3008,7.234,7.0918,6.9641,6.8567,6.7696,6.6738,6.5635,6.5199,6.4996,6.4996,6.4996,6.4996,6.4996,6.4996,6.4996,6.4967,6.4561,6.4386,6.4357,6.4154,6.4299,6.4677,6.4677,6.4793,6.4996,6.4996,6.4996,6.4996,0.0,0.0,0.0,0.0,0.0,0.0,0.0,0.0,0.0,0.0,0.0,0.0,0.0,0.0,0.0,0.0,0.0,0.0,5.0676,5.0124,5.083,5.3384,5.5939,6.0264,6.6651,7.3705,7.7972,7.9336,8.5055,8.491,7.9133,7.4663,7.086,6.7609,6.2499,6.0584,6.0961,5.7768,5.5678,5.4284,5.173,4.9901,4.8547,0.0,0.0,0.0,0.0,0.0,0.0,0.0,4.694,4.6214,4.8101,4.8275,4.7666,4.7027,4.7288,4.7491,4.6243,4.5895,4.6214,4.7491,4.9756,5.3181,5.8929,6.1222,6.3603,6.877,6.7783,6.578,6.517,6.607,6.7347,6.8654,7.3647,7.7159,7.655,7.7566,7.8146,7.7478,7.684,7.6538,7.6538,7.5882,7.5243,7.4547,7.3327,7.2311,7.1673,6.9844,6.8509,6.787,6.6593,6.5635,6.4996,6.4996,6.4996,6.4996,6.4967,6.4967,6.4996,6.4967,6.4967,6.4909,6.3632,6.308,6.3051,6.2383,6.2848,6.3975,6.3975,6.4415,6.4967,6.4996,6.4996,6.4996,0.0,0.0,0.0,0.0,0.0,0.0,0.0,0.0,0.0,0.0,0.0,0.0,0.0,0.0,0.0,0.0,0.0,0.0,4.9988,5.1112,5.21,5.2804,5.5707,5.8203,6.009,6.7522,7.4866,8.2036,8.282,8.0004,7.3879,7.0744,6.7318,6.3748,6.2703,6.1077,5.9045,5.7187,5.591,5.4952,5.2862,5.1236,5.0017,0.0,0.0,0.0,0.0,0.0,0.0,0.0,0.0,0.0,4.7155,4.7869,4.8217,4.7097,4.7288,4.7491,4.6243,4.6853,4.8391,5.0598,5.3762,5.771,6.3022,6.4532,6.6389,7.1992,7.144,6.9786,6.9147,6.9321,6.9844,7.0686,7.3792,7.6317,7.7014,7.7449,7.7624,7.742,7.684,7.6288,7.5824,7.5621,7.4866,7.3298,7.2427,7.1266,6.9757,6.8712,6.7667,6.6535,6.6128,6.5635,6.4996,6.4996,6.4996,6.4967,6.4532,6.4561,6.4967,6.4532,6.4328,6.427,6.3457,6.308,6.308,6.2877,6.3022,6.3428,6.3864,6.4091,6.4357,6.4822,6.4996,6.4996,0.0,0.0,0.0,0.0,0.0,0.0,0.0,0.0,0.0,0.0,4.9717,4.9717,0.0,0.0,0.0,0.0,0.0,0.0,5.0075,5.1228,5.2216,5.292,5.5271,5.7971,6.1048,6.7173,7.2311,7.6346,7.7827,7.5679,7.0163,7.0163,6.8625,6.5983,6.7638,6.6215,6.2383,6.0845,5.8493,5.5678,5.4255,5.263,5.0975,0.0,0.0,0.0,0.0,0.0,0.0,0.0,0.0,0.0,4.6691,4.73,4.7764,4.701,4.7114,4.7172,4.6156,4.7462,4.9785,5.263,5.6432,6.099,6.6883,6.9205,7.1237,7.5272,7.4343,7.2631,7.1992,7.144,7.1208,7.1615,7.4053,7.6056,7.6579,7.7072,7.7217,7.6724,7.6317,7.5824,7.5185,7.4663,7.3879,7.2718,7.1324,7.0047,6.8886,6.7725,6.6738,6.5954,6.5693,6.5373,6.4996,6.4735,6.4619,6.459,6.3951,6.3864,6.4212,6.3835,6.3661,6.3632,6.2964,6.2558,6.2354,6.2587,6.2848,6.3167,6.3777,6.4183,6.4473,6.4851,6.4996,6.4996,0.0,0.0,4.964,4.9805,0.0,0.0,0.0,0.0,0.0,0.0,4.9717,4.9717,0.0,0.0,0.0,0.0,0.0,0.0,0.0,5.0685,5.1585,5.3442,5.501,5.9161,6.6302,6.9757,6.9495,6.5402,7.115,7.1673,6.7376,7.1498,7.2776,7.1731,7.4808,7.3385,6.8509,6.6215,6.1745,5.62,5.562,5.3878,5.1556,5.1062,0.0,0.0,0.0,0.0,0.0,0.0,0.0,0.0,4.6621,4.6807,4.6865,4.6807,4.6807,4.6824,4.6359,4.8014,5.0743,5.4255,5.8697,6.3951,7.0541,7.4372,7.6869,7.8001,7.6404,7.4605,7.3908,7.2834,7.1992,7.1934,7.443,7.6201,7.5679,7.655,7.6811,7.565,7.5417,7.5069,7.4401,7.324,7.2456,7.2282,7.0134,6.8741,6.8567,6.6883,6.5896,6.5838,6.5228,6.4909,6.4909,6.427,6.3888,6.3888,6.3312,6.2993,6.2993,6.2993,6.2964,6.2877,6.2267,6.1716,6.1251,6.1832,6.2441,6.308,6.3777,6.4386,6.4909,6.4967,6.4996,6.4996,0.0,0.0,4.9262,5.0278,0.0,0.0,0.0,0.0,0.0,0.0,0.0,0.0,0.0,0.0,0.0,0.0,0.0,0.0,0.0,5.0859,5.2049,5.3442,5.7158,6.0409,6.3051,6.2964,6.2383,6.1425,6.6738,6.7028,6.2761,6.9118,7.1673,7.1034,7.324,7.1644,6.697,6.2035,5.8,5.4952,5.5271,5.3878,5.1643,5.202,5.0569,0.0,0.0,0.0,0.0,0.0,0.0,0.0,4.6621,4.7172,4.7491,4.6969,4.7172,4.7753,4.8624,5.0017,5.2601,5.8319,6.4996,7.0947,7.3995,7.5998,7.713,7.6927,7.684,7.6433,7.5301,7.4866,7.4518,7.4024,7.4924,7.5853,7.6201,7.6056,7.5824,7.5534,7.4634,7.3763,7.3095,7.234,7.1266,6.9757,6.9147,6.816,6.6651,6.6157,6.5693,6.5199,6.4561,6.4241,6.4241,6.3603,6.3283,6.3283,6.2616,6.2296,6.2296,6.2296,6.2064,6.16,6.1454,6.1309,6.1251,6.1832,6.218,6.2412,6.3574,6.4125,6.4299,6.4793,6.4996,6.4996,0.0,0.0,0.0,0.0,0.0,0.0,0.0,0.0,0.0,0.0,0.0,0.0,0.0,0.0,0.0,0.0,0.0,0.0,0.0,0.0,5.2717,5.5213,5.9045,6.099,6.0758,6.0119,5.9016,5.7477,6.0177,6.1542,6.1774,6.7899,7.1063,7.1731,7.4285,7.2079,6.6215,6.2906,5.9306,5.5881,5.62,5.5155,5.3384,5.2804,5.0772,4.8159,4.7126,0.0,0.0,0.0,0.0,0.0,0.0,0.0,4.6795,4.6475,4.6824,4.755,4.8508,5.1062,5.5329,6.3312,6.9437,7.3937,7.5592,7.6462,7.6869,7.6521,7.6956,7.7101,7.6143,7.5708,7.5301,7.4634,7.4808,7.5156,7.5475,7.4982,7.4488,7.4169,7.3269,7.2311,7.1353,7.0686,6.9757,6.8479,6.7783,6.6999,6.5918,6.5635,6.5199,6.4561,6.4212,6.3893,6.3574,6.2935,6.247,6.218,6.1513,6.1193,6.1193,6.1513,6.1483,6.1193,6.1193,6.1193,6.1251,6.1832,6.2093,6.218,6.3196,6.3777,6.4004,6.4415,6.4735,6.4996,0.0,0.0,0.0,0.0,0.0,0.0,0.0,0.0,0.0,0.0,0.0,0.0,0.0,0.0,0.0,0.0,0.0,0.0,0.0,0.0,0.0,5.6984,6.0032,6.0874,5.9335,5.8987,5.7448,5.4662,5.4575,5.7274,6.2703,6.7405,7.0744,7.2892,7.5214,7.2485,6.5983,6.4125,6.0671,5.649,5.649,5.5736,5.4429,5.2833,5.056,4.7985,4.7143,4.6865,4.6969,4.6807,0.0,0.0,0.0,0.0,4.6011,4.5924,4.6243,4.6882,4.784,5.2252,5.8668,6.7434,7.1992,7.4721,7.6143,7.6375,7.6288,7.6288,7.6724,7.6898,7.6259,7.5708,7.5127,7.4459,7.443,7.4459,7.4372,7.3734,7.3037,7.2369,7.1528,7.0599,6.9554,6.8857,6.8218,6.758,6.6535,6.5867,6.578,6.517,6.459,6.4004,6.3772,6.3399,6.2761,6.2093,6.1454,6.0874,6.0409,6.0206,6.0206,6.0874,6.1193,6.1193,6.1193,6.1193,6.1251,6.1832,6.2093,6.2151,6.2819,6.3428,6.3893,6.3946,6.4357,6.4851,0.0,0.0,0.0,0.0,0.0,0.0,0.0,0.0,0.0,0.0,5.1091,5.1265,0.0,0.0,0.0,0.0,0.0,0.0,4.9717,0.0,0.0,5.6432,5.8552,5.9568,5.9306,5.7652,5.6287,5.53,5.4778,5.7971,6.4677,6.758,7.057,7.3414,7.2166,6.9815,6.6302,5.9539,5.5329,5.3262,5.3262,5.2426,5.1265,5.1033,5.0357,4.9204,4.7462,4.7172,4.7579,4.7027,4.7201,0.0,0.0,0.0,4.6592,4.604,4.5953,4.6505,4.8798,5.5184,6.2441,6.7667,7.1353,7.4227,7.6056,0.0,7.565,7.565,7.5708,7.5563,7.4924,7.4721,7.443,7.385,7.4169,7.4343,7.3792,7.2689,7.1702,7.1034,6.9437,6.8305,6.816,6.7522,6.6883,6.6244,6.6041,6.5693,6.5141,6.4502,6.4125,6.3975,6.2935,6.2064,6.1454,6.0787,6.0148,5.9568,6.0003,6.0206,6.0206,6.0874,6.1193,6.1193,6.1193,6.1193,6.1251,6.1832,6.2093,6.2151,6.2819,6.3138,6.3283,6.3835,6.4033,6.4241,0.0,0.0,0.0,0.0,0.0,0.0,0.0,0.0,0.0,0.0,0.0,5.1381,0.0,0.0,0.0,4.9776,4.9717,4.9892,5.027,5.1643,5.3326,5.5271,5.649,5.6955,5.6636,5.5416,5.4458,5.382,5.321,5.739,6.607,6.758,7.0366,7.3995,7.0976,6.8044,6.488,5.861,5.5271,5.4081,5.3007,5.2659,5.2659,5.1207,5.0481,5.0017,4.8449,4.8072,4.8217,4.7579,4.7782,4.8072,4.6737,0.0,0.0,0.0,4.6127,4.7346,5.1701,5.6084,6.0932,6.726,7.0163,7.2166,7.4808,7.5156,7.4866,7.4518,7.414,7.4024,7.4459,7.3937,7.3356,7.3095,7.2689,7.2166,7.1557,7.0657,6.9844,6.9205,6.8073,6.7173,6.6825,6.6535,6.6099,6.546,6.5402,6.5141,6.4473,6.4183,6.369,6.2964,6.2383,6.1629,6.0642,6.0351,5.9713,5.8726,5.8639,5.8958,5.9713,6.0003,6.0526,6.1193,6.1193,6.1193,6.1222,6.1483,6.16,6.1629,6.1919,6.247,6.3138,6.3399,6.3951,6.4619,0.0,0.0,0.0,0.0,0.0,0.0,0.0,0.0,0.0,0.0,0.0,0.0,0.0,0.0,0.0,0.0,4.9717,4.9872,5.0394,5.1033,5.2107,5.3704,5.4517,5.4575,5.3791,5.3442,5.2891,5.2129,5.2107,5.7419,6.7638,6.8305,7.1586,7.6753,7.2282,6.8334,6.4677,5.9393,5.6955,5.6374,5.35,5.2804,5.3355,5.1759,5.0996,5.0569,4.9756,4.9465,4.9349,4.8537,4.8682,4.8914,4.7172,4.6824,0.0,0.0,0.0,4.7637,5.2426,5.4894,5.7768,6.4677,6.7492,6.9408,0.0,0.0,7.3414,0.0,7.234,7.2137,7.2921,7.2427,7.1905,7.1905,7.0976,7.0018,6.9379,6.8741,6.8102,6.7463,6.6796,6.6215,6.5751,6.5693,6.5431,6.4793,6.4764,6.4473,6.3835,6.3632,6.3109,6.2122,6.1774,6.1077,5.9974,5.9626,5.8987,5.8058,5.771,5.8087,5.9074,5.9393,6.0061,6.0961,6.1135,6.1193,6.1193,6.1193,6.1193,6.1193,6.1193,6.1861,6.2848,6.3022,6.3806,6.4764,0.0,0.0,0.0,0.0,0.0,0.0,0.0,0.0,0.0,0.0,0.0,0.0,5.0743,5.0734,5.0394,4.9776,4.9717,4.9746,4.9776,5.0415,5.1033,5.173,5.2949,0.0,5.1788,5.2339,5.2071,5.0822,5.2543,5.8987,6.9641,7.0279,7.5243,8.3313,7.7043,7.1818,6.7318,6.1571,5.9451,5.9451,5.3907,5.1352,5.1004,5.2129,5.1781,5.0743,5.1265,5.1468,5.1265,5.0017,5.0017,5.0336,4.9001,4.8188,4.7608,0.0,0.0,0.0,4.8508,5.0917,5.3936,5.8639,6.2529,6.607,0.0,0.0,7.0918,7.0889,7.0366,6.9757,6.9234,6.9554,6.9931,6.9931,6.935,6.8712,6.8073,6.7405,6.6738,6.6099,6.5489,6.5083,6.5025,6.5025,6.4764,6.4062,6.4033,6.3806,6.3167,6.2529,6.2151,6.2093,6.0932,6.0003,5.9364,5.8087,5.7419,5.7361,5.7971,5.829,5.8406,5.9597,6.0177,6.0293,6.0932,6.1193,6.1193,6.1193,6.1193,6.1193,6.1193,6.16,6.2238,6.2848,6.3516,6.4183,0.0,0.0,0.0,0.0,0.0,0.0,0.0,0.0,0.0,0.0,0.0,0.0,0.0,5.0734,5.0394,4.9776,4.9717,4.9717,4.9717,4.9901,5.0336,5.0975,5.1439,5.1468,5.1033,5.1236,5.117,5.0734,5.1352,5.6636,6.6128,6.758,7.1528,7.7246,7.4518,7.1731,6.8596,6.1164,5.7913,5.7477,5.4168,5.2949,5.3094,5.2717,5.2543,5.2426,5.1817,5.1614,5.1468,5.0598,5.0531,0.0,0.0,0.0,0.0,4.7097,4.6633,4.6911,4.8827,5.0017,0.0,5.681,5.9684,6.2064,6.4851,6.6912,6.8131,6.7725,6.8131,6.8363,6.7696,6.8131,6.8567,6.8567,6.8015,6.7347,6.6709,6.6418,6.6041,6.5402,6.5112,6.4822,6.4415,6.4386,6.4125,6.3486,6.3428,6.2964,6.1948,6.1658,6.1135,6.0322,5.9858,5.9306,5.8668,5.7768,5.7303,5.7303,5.7536,5.7884,5.8348,5.9219,5.9829,6.0235,6.0903,6.1193,6.1193,6.1193,6.1193,6.1222,6.1629,6.218,6.2819,6.3457,6.4096,6.4677,0.0,0.0,0.0,5.1004,0.0,5.0336,5.0336,5.0008,4.9892,5.0278,0.0,0.0,0.0,0.0,5.0299,5.0017,4.9814,4.9834,4.9988,4.9785,4.9921,5.0307,5.0589,5.0569,5.0386,5.1025,5.1054,5.0336,5.1439,5.5881,6.3428,6.5577,6.9321,7.414,7.176,7.0831,7.0628,6.398,6.07,5.9626,5.6171,5.5039,5.5445,5.5445,5.5329,5.5097,5.4894,5.4284,5.3355,5.231,5.1817,0.0,0.0,0.0,0.0,0.0,0.0,0.0,4.8344,0.0,0.0,0.0,5.6549,5.7942,6.1338,6.3428,6.4648,6.4648,6.5693,6.6447,6.6012,6.6302,6.6738,6.7173,6.6506,6.5867,6.5635,6.5257,6.4909,6.4706,6.4473,6.4183,6.3748,6.3719,6.337,6.2529,6.2441,6.189,6.0642,6.0555,6.0061,5.9016,5.8958,5.8639,5.7971,5.7536,5.7303,5.7303,5.7303,5.7536,5.8,5.89,5.951,5.9945,6.0816,6.1193,6.1193,6.1193,6.1193,6.1251,6.1629,6.2325,6.3138,6.3574,6.427,6.4996,4.9834,5.0191,5.0502,4.9785,4.9717,4.9717,4.9717,4.9717,4.9717,4.9717,0.0,0.0,0.0,0.0,0.0,5.0793,5.0211,5.0046,5.0627,5.0046,4.9717,4.9717,5.0307,5.0386,4.9746,5.1577,5.1606,4.9717,5.2833,5.6926,6.189,6.4473,6.9031,7.4837,6.9292,6.9234,7.3095,6.9844,6.7841,6.6244,5.9887,5.739,5.7739,6.0177,5.9974,5.861,6.0467,5.9539,5.7129,5.5271,5.4197,0.0,0.0,0.0,0.0,0.0,0.0,0.0,0.0,0.0,0.0,0.0,5.2949,0.0,5.8784,5.9974,6.038,6.1658,6.2964,6.383,6.3888,6.3888,6.4294,6.5577,6.4793,6.4241,6.4851,6.3864,6.3312,6.3859,6.3457,6.308,6.3051,6.3022,6.2499,6.1251,6.1135,6.0584,5.9335,5.9248,5.8958,5.829,5.8261,5.7971,5.7303,5.7303,5.7303,5.7303,5.7303,5.7303,5.7361,5.8697,5.9306,5.9364,6.0642,6.1193,6.1193,6.1193,6.1193,6.1193,6.1251,6.2006,6.308,6.3138,6.3922,6.4996,4.903,4.9524,4.9901,4.9698,4.9717,4.9717,4.9717,4.9717,4.9717,0.0,0.0,0.0,5.0452,5.2049,5.3239,5.3442,5.2833,5.1933,5.0793,5.0046,4.9717,4.9717,4.9892,4.9921,4.9717,5.024,5.027,4.9717,5.0569,5.2688,5.5939,5.7565,6.0758,6.517,6.5402,6.5693,6.5751,6.2064,6.2151,6.4415,5.9858,5.9422,6.1309,5.9713,5.9335,5.9684,5.98,5.9945,5.9887,5.8464,5.7216,5.5707,0.0,0.0,0.0,0.0,0.0,0.0,4.7521,0.0,0.0,0.0,0.0,0.0,5.2978,5.4749,5.6432,5.771,5.9393,6.0903,6.1803,6.1977,6.2093,6.2441,6.2993,6.3399,6.3603,6.3312,6.3167,6.3341,6.3196,6.2732,6.1803,6.1716,6.1193,0.0,5.9829,5.9451,5.861,5.8116,5.7768,5.7594,5.7594,5.7507,5.7303,5.7303,5.7303,5.7303,5.7303,5.7303,5.7361,5.8697,5.9306,5.9364,6.0642,6.1193,6.1193,6.1193,6.1193,6.128,6.2209,6.279,6.3196,6.4125,6.4677,6.4996,4.8663,4.9233,4.9843,5.0394,5.0917,5.1265,5.1265,5.1265,5.1178,0.0,0.0,0.0,5.2194,5.4807,5.62,5.5358,5.4458,5.3239,5.1585,5.0647,5.0008,4.9746,4.9979,5.022,5.0481,5.0743,5.0743,5.0481,5.0481,5.1381,5.3152,5.4139,5.6374,5.9626,6.0555,6.1019,6.0903,5.7826,5.8958,6.2761,6.1571,6.2209,6.3835,6.3283,6.337,6.3777,6.369,6.398,6.4067,6.1977,5.9684,0.0,0.0,0.0,0.0,0.0,0.0,0.0,0.0,0.0,0.0,0.0,0.0,0.0,5.0772,5.1817,5.2949,5.4487,5.6142,5.7681,5.8958,5.919,5.919,5.919,6.0032,6.1048,6.2151,6.1832,6.16,6.1861,6.1658,6.1222,6.0467,6.0409,5.9974,5.8958,5.8871,5.8581,5.7913,5.7507,5.7187,5.6926,5.6926,5.6926,5.6926,5.6926,5.7042,5.7303,5.7303,5.7303,5.7361,5.8697,5.9306,5.9364,6.0642,6.1193,6.1193,6.1193,6.1338,6.1658,6.2383,6.3022,6.3574,6.4328,6.4764,6.4996,0.0,4.9349,5.022,5.1585,5.2833,5.3704,5.3907,5.382,5.3617,0.0,5.2397,5.2862,5.5591,5.8319,5.919,5.7303,5.5794,5.4313,5.2891,5.1527,5.0511,4.993,5.054,5.112,5.1614,5.2252,5.2223,5.1527,5.1527,5.1759,5.2304,5.2891,5.4429,5.6636,5.5649,5.6142,5.7681,5.6374,5.7797,6.1106,6.3632,6.4996,6.5809,6.8538,6.9379,6.9205,6.9699,6.9612,6.8741,6.546,6.1861,0.0,0.0,0.0,0.0,0.0,4.9378,0.0,0.0,0.0,0.0,0.0,4.9524,0.0,5.0627,5.0452,5.027,5.1817,5.3123,5.4371,5.5649,5.5939,5.5997,5.5997,5.6549,5.7913,6.0496,5.9974,5.951,6.0032,5.9626,5.9248,5.9103,5.9161,5.89,5.8145,5.8145,5.7913,5.7245,5.7216,5.6926,5.6316,5.6287,5.6316,5.6403,5.6403,5.6723,5.7303,5.7303,5.7303,5.7361,5.8697,5.9306,5.9364,6.0642,6.1193,6.1193,6.1193,6.1542,6.2093,6.218,6.2964,6.3975,6.4062,6.4502,6.4996,4.9378,5.0017,5.1033,5.2833,5.3791,5.4836,5.6345,5.5707,5.5562,5.6984,5.8319,6.0496,6.4067,6.4125,6.3312,6.1919,5.919,5.6578,5.4284,5.2426,5.1381,5.1236,5.1846,5.202,5.1643,5.2252,5.202,5.0859,5.0859,5.0656,5.0299,5.0917,5.1759,5.2775,5.353,5.4081,5.4633,5.739,5.8668,5.9103,6.1629,6.5141,6.8799,6.8392,6.9437,7.1063,7.0686,7.1121,7.1295,6.758,6.4125,6.07,0.0,0.0,0.0,5.1004,0.0,0.0,0.0,0.0,0.0,0.0,0.0,0.0,4.9088,4.9553,5.0278,4.9611,5.0075,5.1004,5.231,5.2978,5.3326,5.3326,5.4313,5.5939,5.8523,5.9132,5.9335,5.9451,5.9364,5.8871,5.7797,5.8174,5.8029,5.6868,5.7216,5.7245,5.6607,5.6578,5.6287,5.562,5.562,5.5852,5.6403,5.6403,5.6723,5.7303,5.7303,5.7303,5.7361,5.8697,5.9306,5.9364,6.0642,6.1193,6.1193,6.1193,6.1542,6.2151,6.2674,6.337,6.4096,6.4619,6.488,6.4996,4.9204,5.0249,5.1846,5.4081,5.5533,5.7042,5.8958,5.8697,5.8871,6.0467,6.2935,6.488,6.5838,6.5925,6.4909,6.2354,6.009,5.7594,5.4691,5.3297,5.2281,5.1643,5.2223,5.2862,5.35,5.2891,5.2572,5.2601,5.1614,5.0975,5.0656,5.1323,5.1962,5.2601,5.3239,5.3704,5.4168,5.6403,5.771,5.8697,6.3167,6.6709,6.9408,7.0366,7.1731,7.3037,7.2718,7.2602,7.2137,6.8915,6.6128,0.0,5.8755,5.6694,5.5474,0.0,5.2339,5.1962,0.0,0.0,0.0,5.1664,0.0,0.0,0.0,4.874,4.8653,4.8333,4.8246,4.8653,4.993,5.0191,5.0394,5.1033,5.1962,5.3268,5.5184,5.6287,5.6781,5.6461,5.6723,5.6665,5.5968,5.649,5.6607,5.5968,5.62,5.6229,5.5939,5.591,5.562,5.4981,5.4952,5.5271,5.591,5.591,5.6374,5.7303,5.7303,5.7303,5.7361,5.8697,5.9306,5.9364,6.0642,6.1193,6.1193,6.1193,6.1745,6.2616,6.2964,6.3661,6.4561,6.488,6.4996,6.4996,4.9204,5.0365,5.2194,5.4633,5.6868,5.8958,6.0903,6.1396,6.2122,6.3632,6.6186,6.7434,6.6215,6.6447,6.5606,6.2906,6.0496,5.8174,5.5939,5.4604,5.3384,5.2223,5.2775,5.3791,5.5213,5.3733,5.3326,5.4139,5.2572,5.173,5.1643,5.2281,5.2833,5.3355,5.3588,5.4081,5.4749,5.5474,5.6955,5.9364,6.517,6.7725,6.845,7.1934,7.3618,7.4198,7.4576,7.3966,7.2573,6.9902,6.7812,6.546,6.0584,5.8958,0.0,0.0,0.0,0.0,0.0,0.0,0.0,0.0,0.0,5.0569,0.0,0.0,0.0,0.0,0.0,0.0,0.0,0.0,0.0,0.0,0.0,0.0,0.0,5.2659,0.0,5.35,5.3994,5.4284,5.4139,5.4575,5.4923,5.5039,5.5155,5.5184,5.5039,5.5155,5.4952,5.4342,5.4313,5.4662,5.5387,5.5416,5.6055,5.7303,5.7303,5.7361,5.7536,5.8755,5.9364,5.9539,6.07,6.1193,6.1222,6.1338,6.2064,6.308,6.308,6.3864,6.4996,6.4996,6.4996,6.4996,5.0481,5.0627,5.141,5.3384,5.6258,5.8958,6.0903,6.2151,6.3748,6.6128,6.7289,6.845,6.9902,6.7667,6.6564,6.7841,6.2122,5.8987,6.0351,5.7158,5.4894,5.4226,5.4778,5.4923,5.4633,5.44,5.3791,5.2856,5.2572,5.2165,5.1643,5.2281,5.2652,5.2717,5.3878,5.4749,5.5387,5.6578,5.8552,6.1193,6.4735,6.5867,6.5896,7.025,7.2282,7.3066,7.4779,7.4924,7.3821,0.0,6.877,6.697,0.0,6.1309,6.0467,5.8464,0.0,0.0,0.0,0.0,0.0,0.0,5.6607,0.0,0.0,0.0,5.0452,4.8246,0.0,0.0,0.0,0.0,0.0,0.0,0.0,0.0,4.8391,4.8943,5.0423,5.3181,5.3588,5.3413,5.2862,5.2914,5.3123,5.3675,5.4284,5.4342,5.3762,5.4284,5.4313,5.3646,5.3617,5.4197,5.5387,5.5416,5.6055,5.7303,5.7303,5.7623,5.8203,5.8958,5.9597,6.0148,6.0874,6.1193,6.1251,6.1774,6.2412,6.308,6.308,6.3864,6.4996,6.4996,6.4996,6.4996,5.0104,5.0714,5.1701,5.3239,5.5242,5.7536,6.0206,6.4241,6.7347,6.8421,7.0105,7.1528,7.2311,6.9873,6.8044,6.7725,6.398,6.1019,5.9626,5.7303,5.5707,5.5068,5.4952,5.5126,5.5591,5.4894,5.4255,5.3704,5.3297,5.2804,5.2194,5.2833,5.3326,5.3733,5.4255,5.5474,5.7129,5.7652,5.9161,6.1396,6.3864,6.4909,6.5548,7.0802,7.3414,7.4401,7.5214,7.5069,7.4082,0.0,6.9466,0.0,0.0,0.0,0.0,0.0,0.0,0.0,0.0,0.0,0.0,0.0,0.0,0.0,5.2717,0.0,5.0191,0.0,0.0,0.0,0.0,0.0,0.0,0.0,4.8072,0.0,0.0,0.0,4.8682,0.0,0.0,0.0,5.1962,5.202,5.2136,5.2397,5.2688,5.2862,5.2949,5.3239,5.3413,5.35,5.35,5.411,5.5387,5.5416,5.6055,5.7303,5.7681,5.7826,5.7768,5.919,5.9771,5.9742,6.0758,6.1193,6.1222,6.1454,6.218,6.308,6.308,6.3864,6.4996,6.4996,6.4996,6.4996,4.995,0.0,5.1381,5.231,5.3965,5.6432,6.0148,6.4677,6.8044,6.9118,7.0715,7.2166,7.3211,7.1208,6.9641,6.9263,6.6709,6.3748,6.0613,5.8726,5.71,5.5736,5.5271,5.5387,5.6113,5.5068,5.4429,5.4226,5.3762,5.3384,5.3123,5.3384,5.3965,5.4778,5.53,5.6781,5.8871,5.9771,6.1251,6.3196,6.5112,6.6476,6.7783,7.1615,7.3966,7.5214,7.504,7.4692,7.3908,7.1528,6.9989,0.0,6.6796,0.0,0.0,0.0,0.0,0.0,6.009,0.0,0.0,0.0,0.0,0.0,0.0,0.0,0.0,0.0,0.0,0.0,0.0,0.0,0.0,0.0,0.0,4.7869,0.0,0.0,0.0,0.0,0.0,0.0,0.0,5.1091,5.1091,5.1091,5.1265,5.1643,5.2281,5.2484,5.2862,5.35,5.35,5.411,5.5387,5.5416,5.6055,5.7303,5.7797,5.7971,5.7913,5.9306,5.9916,5.9858,6.0787,6.1193,6.1222,6.1367,6.2093,6.3109,6.3283,6.4009,6.4996,6.4996,6.4996,6.4996,5.0511,5.0211,4.9756,4.9785,5.2426,5.6229,6.128,6.2209,6.369,6.7463,6.7463,6.8509,7.2253,7.0947,7.1237,7.4924,7.0657,6.7173,6.578,6.2761,5.9655,5.652,0.0,5.6055,0.0,5.4836,5.4197,5.3559,5.353,5.3849,5.4429,5.3791,5.4168,5.5474,5.7332,5.89,6.0351,6.3457,6.5896,6.7841,6.9728,7.1644,7.3211,7.2137,7.2892,7.4459,7.3879,0.0,0.0,7.1382,7.0279,6.9408,6.7463,0.0,0.0,0.0,0.0,0.0,0.0,0.0,0.0,6.0177,0.0,0.0,0.0,0.0,5.4517,0.0,0.0,0.0,0.0,0.0,0.0,0.0,0.0,0.0,0.0,0.0,0.0,0.0,0.0,0.0,0.0,4.9727,4.9727,4.9727,5.0336,5.0975,5.1614,5.2223,5.2862,5.35,5.35,5.411,5.5387,5.5416,5.6055,5.7303,5.7332,5.8,5.9248,5.9306,6.0003,6.1135,6.1164,6.1193,6.1251,6.1832,6.247,6.3167,6.3777,6.4415,6.4996,6.4996,6.4996,6.4996,5.0676,5.083,5.0975,5.0975,5.2223,5.4807,5.9539,6.2035,6.5228,7.0337,7.1557,7.3734,7.8436,7.7972,7.7507,7.7972,7.5272,7.2282,6.9292,6.5722,6.3022,6.1513,5.9829,5.8406,0.0,0.0,0.0,5.4168,5.4168,5.4052,5.3849,5.3617,5.3994,5.4894,5.681,5.8581,6.0438,6.4067,6.6244,6.7463,7.0221,7.2515,7.414,0.0,7.3356,7.3908,7.3676,7.3618,7.3443,7.234,7.1266,7.0279,6.9641,6.8102,6.6476,6.6041,6.578,6.5431,0.0,0.0,6.5315,6.1513,0.0,0.0,0.0,0.0,0.0,0.0,0.0,0.0,0.0,0.0,0.0,0.0,0.0,0.0,0.0,0.0,0.0,0.0,0.0,0.0,0.0,0.0,4.9494,4.9088,4.964,5.0307,5.0946,5.1614,5.2223,5.2862,5.3733,5.4575,5.5387,5.5852,5.649,5.7303,5.8203,5.8639,5.8668,5.9974,6.0555,6.0555,6.1019,6.1193,6.1251,6.1832,6.2499,6.3167,6.3777,6.4415,6.4996,6.4996,6.4996,6.4996,5.1403,5.1672,5.1875,5.1643,5.2717,5.4865,5.8726,6.2761,6.7057,7.1673,7.4401,7.7507,8.1746,8.2007,8.1659,8.1049,7.9685,7.6637,7.1411,6.9379,0.0,6.4091,6.2674,6.1106,0.0,0.0,0.0,0.0,5.5068,5.4952,5.4517,5.3849,5.411,5.5271,5.6926,5.8726,6.0845,6.5141,6.7463,6.8479,0.0,7.3124,0.0,0.0,7.3531,7.3879,7.3414,7.3269,7.3182,7.2776,7.1934,7.1005,7.0802,6.9263,6.7492,6.7028,6.6593,6.607,6.5228,6.5751,0.0,6.2935,6.2209,0.0,5.8174,0.0,0.0,0.0,0.0,0.0,0.0,0.0,0.0,0.0,0.0,0.0,0.0,4.8043,0.0,0.0,0.0,0.0,0.0,0.0,4.9262,4.9088,4.9436,5.0008,5.0627,5.1265,5.1904,5.2594,5.3849,5.4807,5.5387,5.6084,5.6723,5.7303,5.8435,5.8842,5.8697,6.0177,6.0729,6.0584,6.1019,6.1193,6.1251,6.1832,6.2499,6.3167,6.3777,6.4415,6.4996,6.4996,6.4996,6.4996,5.2623,5.2681,5.2484,5.1904,5.3791,5.6287,5.89,6.4125,6.877,7.1498,7.5766,7.9569,8.2239,8.3052,8.3662,8.4242,8.3691,8.0178,7.2718,7.3821,0.0,0.0,6.5054,6.4125,6.1542,0.0,0.0,0.0,0.0,5.6432,5.6403,5.4429,5.4517,5.6432,5.771,5.9364,6.1483,6.6564,6.9525,7.0947,7.2834,7.3647,7.3589,7.2892,7.3414,7.4343,7.3066,7.2602,7.2602,7.2602,7.2224,7.1615,7.1005,6.9931,6.8683,6.7434,6.7028,6.6738,6.5548,6.5635,6.578,6.4468,6.4091,0.0,0.0,0.0,6.128,0.0,0.0,0.0,0.0,0.0,0.0,0.0,0.0,0.0,0.0,0.0,0.0,0.0,0.0,0.0,0.0,4.9059,4.8972,4.9524,4.9591,4.991,0.0,5.1215,5.1853,5.2514,5.3849,5.4836,5.5416,5.6084,5.6752,5.7361,5.8029,5.8697,5.9364,5.9974,6.0584,6.1193,6.1222,6.1251,6.128,6.1919,6.2558,6.3196,6.3835,6.4444,6.4996,6.4996,6.4996,6.4996,5.271,5.3355,5.411,5.44,5.4981,5.6287,5.89,6.337,6.8392,7.3821,7.8001,8.2181,8.6681,8.6884,8.6768,8.6942,8.5926,8.3865,0.0,0.0,0.0,7.2718,7.0889,6.8538,6.5489,6.4328,0.0,5.9713,0.0,5.6636,5.7013,5.4633,5.4284,5.5736,5.7507,5.9103,6.0758,6.5402,6.8944,7.1557,7.3037,7.3879,7.4169,0.0,7.3414,7.4343,7.3066,7.2602,7.2602,7.2602,7.2515,7.234,7.2195,7.1266,7.0163,6.9844,6.906,6.8363,6.8509,6.8334,6.7899,6.7086,6.5809,6.427,0.0,0.0,0.0,0.0,0.0,0.0,0.0,0.0,0.0,0.0,0.0,0.0,0.0,0.0,0.0,4.8769,0.0,0.0,4.8275,4.8537,4.8595,4.8304,4.8387,4.8859,4.993,0.0,5.0823,5.1795,5.4023,5.5242,5.5416,5.652,5.739,5.8058,5.8726,5.9364,5.9974,6.0642,6.1048,6.1222,6.1658,6.1861,6.1948,6.308,6.3632,6.3864,6.4502,6.4851,6.4996,6.4996,6.4996,6.4996,5.35,5.4662,5.5765,5.5823,5.771,5.9771,6.1513,6.4648,6.877,7.4343,7.864,8.2297,8.52,8.6971,8.7929,8.7929,8.7261,0.0,8.25,0.0,0.0,7.6056,7.4547,7.2137,6.8625,6.6767,0.0,6.0758,0.0,5.6839,5.6868,5.4575,5.4197,5.5474,5.6868,5.8493,6.0496,6.5286,6.9002,7.1702,7.2166,7.2718,0.0,7.2166,7.2224,7.2805,7.2369,7.2398,7.2573,7.2311,7.2398,7.2573,7.2282,7.1702,7.115,7.115,7.0424,6.967,6.9757,6.9525,6.9089,6.845,6.7463,6.6186,6.4328,6.4183,6.3893,0.0,6.0874,5.9974,0.0,0.0,0.0,0.0,0.0,0.0,0.0,0.0,0.0,0.0,4.8885,0.0,4.7568,4.8221,4.849,4.7921,4.7928,4.8274,0.0,0.0,5.0398,5.1563,5.401,5.5359,5.5416,5.6594,5.7599,5.8319,5.8987,5.9626,6.0206,6.0874,6.1338,6.16,6.1948,6.2267,6.2616,6.3632,6.3975,6.4096,6.4735,6.4996,6.4996,6.4996,6.4996,6.4996,5.4749,5.62,5.7245,5.6636,6.07,6.4444,6.5664,6.7725,7.057,7.4605,7.9104,8.1949,8.1949,8.552,8.7929,8.7929,8.7842,8.61,8.2094,8.3168,8.192,7.7275,7.6927,7.5069,7.1295,6.8625,6.5199,0.0,0.0,5.7071,5.6607,5.4517,5.4226,5.5562,5.6142,0.0,0.0,6.5548,6.8944,7.1005,7.0715,7.1034,7.1615,7.1063,7.0889,7.1034,7.1586,7.2079,7.2427,7.1963,7.2166,7.2515,7.1963,7.1789,7.1789,7.1702,7.1266,7.0715,7.0076,6.9844,6.9612,6.8973,6.8683,6.7957,6.5635,6.5054,6.4677,6.3574,6.1396,5.9974,6.1019,0.0,0.0,0.0,0.0,0.0,0.0,0.0,0.0,0.0,0.0,0.0,4.7334,4.8015,4.8236,4.7701,4.761,0.0,0.0,0.0,5.0294,5.1563,5.3975,5.5339,5.5678,5.6703,5.7757,5.8697,5.919,5.9742,6.0351,6.0932,6.1483,6.1977,6.2151,6.2558,6.3138,6.3864,6.4154,6.4212,6.4764,6.4996,6.4996,6.4996,6.4996,6.4996,5.5968,5.7187,5.7913,5.7274,6.0961,6.5489,6.9844,7.3472,7.6375,7.8233,8.2849,8.5955,8.5955,8.7145,8.7929,8.7929,8.7435,0.0,0.0,0.0,0.0,8.0439,7.9365,7.7246,7.3908,7.0831,6.7841,0.0,5.98,5.7536,5.7913,5.4923,5.4487,5.6229,0.0,0.0,6.1251,6.4764,0.0,6.7841,6.935,7.0628,7.1673,7.1557,7.1818,7.2282,7.2398,7.2195,7.1905,7.2311,7.2515,7.2602,7.2485,7.2456,7.234,7.1818,7.1586,7.1353,7.0715,7.0163,6.9612,6.8973,6.8015,6.697,6.5983,6.5373,6.4938,6.4706,6.3022,6.1513,6.1251,0.0,0.0,0.0,0.0,0.0,0.0,0.0,0.0,0.0,0.0,4.9709,0.0,4.7553,4.6951,4.5946,0.0,0.0,0.0,0.0,4.9507,0.0,5.4017,5.5892,0.0,0.0,5.8986,6.07,6.0264,6.038,6.1019,6.1135,6.1251,6.1425,6.247,6.2993,6.3167,6.4357,6.4822,6.4822,6.4938,6.4996,6.4996,6.4996,6.4996,6.4996,5.8319,5.9132,6.0119,6.1106,6.4996,6.9379,7.3531,7.7711,8.0265,7.9859,8.2239,8.3865,8.3546,8.5868,8.7435,8.7435,8.6855,8.6216,8.5578,8.4068,8.2588,8.1252,8.0323,7.8465,7.5592,7.2079,6.8683,6.5431,6.0322,5.7477,5.6781,5.4894,5.4691,5.5968,0.0,5.9597,0.0,0.0,6.6186,6.7492,6.8421,6.9554,7.0657,7.0308,7.0599,7.1179,7.1528,7.1644,7.1702,7.2021,7.234,7.2485,7.1847,7.1847,7.1992,7.1353,7.1411,7.1469,7.0482,7.025,7.0018,6.906,6.8102,6.7231,6.6564,6.5925,6.5373,6.5054,6.398,6.2616,6.099,5.8319,0.0,0.0,0.0,0.0,0.0,0.0,0.0,0.0,0.0,0.0,0.0,0.0,0.0,0.0,0.0,0.0,0.0,0.0,4.9487,0.0,0.0,0.0,5.7303,0.0,5.9004,6.0671,6.0351,6.0555,6.1193,6.1193,6.1542,6.2209,6.2819,6.3457,6.4125,6.4735,6.4996,6.4996,6.4996,6.4996,6.4996,6.4996,6.4996,6.4996,6.099,6.1774,6.308,6.5228,6.9525,7.3589,7.6259,8.0614,8.2994,8.1339,8.1746,8.1949,8.1194,8.4736,8.7029,8.6623,8.6245,8.5694,8.4939,8.3691,8.2442,8.1252,8.0614,7.9162,7.6724,7.3008,6.9234,0.0,6.0903,5.7652,5.562,5.4981,0.0,0.0,0.0,0.0,6.2035,6.3951,6.5809,6.7492,6.7899,6.8828,6.9931,6.9583,6.9815,7.0453,7.0947,7.144,7.1876,7.1876,7.2195,7.2427,7.144,7.1469,7.1731,7.1121,7.1266,7.1382,7.0134,7.0134,7.0221,6.8944,6.8247,6.7667,6.6854,6.6302,6.5751,6.5112,6.4473,6.3283,6.0874,5.9161,0.0,0.0,0.0,0.0,0.0,0.0,0.0,0.0,0.0,0.0,4.7166,0.0,0.0,0.0,0.0,0.0,4.7536,0.0,0.0,0.0,0.0,5.5647,5.7282,0.0,5.9045,6.0584,6.0467,6.0758,6.1396,6.1396,6.2006,6.3109,6.3225,6.3951,6.4996,6.4996,6.4996,6.4996,6.4996,6.4996,6.4996,6.4996,6.4996,6.4996,6.3574,6.5112,6.6622,6.7463,7.2282,7.6317,7.7188,8.163,8.462,8.3836,8.4823,8.5113,8.3865,8.6187,8.7145,8.5432,8.5723,8.552,8.4271,8.2994,8.1949,8.1223,8.0614,7.9365,7.7362,7.4111,7.0541,0.0,6.2209,5.8755,5.6287,0.0,0.0,5.7187,5.8726,6.009,6.1396,6.3312,6.4909,6.6273,6.8044,6.9495,7.0686,7.1208,7.1789,7.2369,7.2427,7.2485,7.2544,7.2544,7.2573,7.2602,7.2485,7.2485,7.2398,7.176,7.1615,7.1382,7.0134,6.9815,6.9554,6.8276,6.7928,6.7551,6.6302,6.5983,6.5751,6.5112,6.4473,6.3428,6.1454,6.0961,6.0032,0.0,0.0,0.0,0.0,0.0,0.0,0.0,0.0,0.0,0.0,4.7273,0.0,0.0,4.5289,0.0,0.0,0.0,0.0,5.0747,5.2714,5.4879,5.7281,5.8516,6.0117,6.1919,6.1367,6.1425,6.2006,6.2006,6.2412,6.3138,6.369,6.4357,6.4996,6.4996,6.4996,6.4996,6.4996,6.4996,6.4996,6.4996,6.4996,6.5083,6.7928,6.8363,6.9437,7.1992,7.4372,7.6753,7.9278,8.2123,8.3865,8.3575,8.4997,8.5839,8.5316,8.5839,8.5752,8.4591,8.4707,8.4329,8.3023,8.2471,8.1746,8.0701,8.0033,7.9162,7.803,7.5243,7.1905,0.0,0.0,0.0,0.0,5.7448,5.7419,5.7971,5.9684,6.0932,6.189,6.4183,6.5925,6.7231,6.877,6.9931,7.0744,7.1005,7.1498,7.205,7.205,7.2282,7.2602,7.2602,7.2602,7.2544,7.2166,7.1789,7.1411,7.1179,7.0831,7.0424,6.9902,6.9786,6.9554,6.8683,6.787,6.7144,6.6622,6.5925,6.5286,6.5025,6.4473,6.3743,6.3051,6.1977,6.0845,5.98,0.0,0.0,0.0,0.0,0.0,0.0,0.0,0.0,0.0,0.0,0.0,0.0,0.0,0.0,0.0,4.8056,0.0,5.0627,0.0,5.6279,5.727,5.9008,6.0409,6.1542,6.1687,6.1861,6.2093,6.2499,6.3051,6.369,6.4328,6.4764,6.4996,6.4996,6.4996,6.4996,6.4996,6.4996,6.4996,6.4996,6.5228,6.5577,7.1382,7.1498,7.2515,7.5795,7.6811,7.8088,8.0788,8.2152,8.2965,8.3168,8.4184,8.5055,8.5403,8.5403,8.4939,8.3923,8.3981,8.3458,8.2007,8.1891,8.1426,8.0352,7.9859,0.0,7.8436,7.6259,7.3414,6.9931,6.6999,0.0,0.0,5.9161,5.89,5.948,6.1048,6.2209,6.3109,6.5489,6.7144,6.8276,6.9757,7.0599,7.1005,7.1208,7.1557,7.1934,7.1934,7.2224,7.2602,7.2602,7.2602,7.2544,7.2079,7.1644,7.1237,7.1063,7.0541,7.0018,6.9815,6.9641,6.9379,6.8944,6.8131,6.7347,6.697,6.6186,6.5431,6.5054,6.4619,6.427,6.4004,6.279,6.1629,6.1251,0.0,0.0,0.0,0.0,0.0,0.0,5.3575,5.2534,5.0575,4.8647,0.0,0.0,0.0,0.0,4.765,4.879,5.0126,0.0,0.0,0.0,5.7551,5.9324,6.0613,6.1454,6.189,6.2296,6.2674,6.3341,6.3893,6.4328,6.4793,6.4996,6.4996,6.4996,6.4996,6.4996,6.4996,6.4996,6.4996,6.5199,6.5548,6.5983,7.3211,7.4576,7.6056,7.803,7.9888,8.1136,8.1194,8.1775,8.2442,8.311,8.2646,8.2733,8.3981,8.5258,8.5258,8.3371,8.3749,8.3255,8.1339,8.1194,8.0933,0.0,0.0,7.9685,7.8436,7.7101,7.5156,7.2573,0.0,0.0,6.2993,6.0467,6.0264,6.2064,6.2761,6.3777,6.5083,6.7028,6.8218,6.8973,7.0889,7.1644,7.1731,7.234,7.2602,7.2602,7.2602,7.2602,7.2602,7.2602,7.2602,7.2602,7.2602,7.2602,7.2456,7.1847,7.1208,7.057,6.9931,6.9321,6.8828,6.8828,6.8828,6.8479,6.7173,6.6883,6.6506,6.5257,6.4967,6.4793,6.4091,6.3516,6.2674,6.1396,0.0,0.0,0.0,0.0,0.0,0.0,5.381,5.2405,5.1649,4.9473,0.0,0.0,4.9417,4.9116,4.9061,4.9576,5.1285,5.4343,5.5132,0.0,5.8288,5.9554,6.0845,6.2093,6.2093,6.2761,6.3975,6.4677,6.4967,6.4967,6.4996,6.4996,6.4996,6.4996,6.4996,6.4996,6.4996,6.4996,6.5054,6.5693,6.5925,6.6128,7.5359,7.623,7.713,7.8204,7.922,8.0062,8.0527,8.1107,8.1601,8.1804,8.2036,8.2355,8.2762,8.3168,8.2994,0.0,8.2413,8.2181,0.0,8.0962,8.0933,8.0323,7.9481,7.8814,7.8407,7.713,7.5417,7.3298,0.0,0.0,6.5664,6.4851,6.4561,6.4764,6.5867,6.6825,6.7696,6.9176,7.0192,7.086,7.1905,7.2311,7.234,7.2544,7.2602,7.2602,7.2602,7.2602,7.2602,7.2602,7.2602,7.2602,7.2602,7.2021,7.1382,7.1615,7.0918,7.0134,7.0366,6.996,6.9379,6.8944,6.8509,6.8073,6.7667,6.6883,6.6128,6.5722,6.5286,6.4909,6.4735,6.3806,6.2964,6.2558,6.1193,0.0,0.0,0.0,0.0,0.0,5.5559,5.4955,5.4239,5.2456,0.0,0.0,0.0,4.9267,4.9713,5.1873,5.3405,0.0,5.701,0.0,5.8316,6.0416,6.1687,6.2093,6.2993,6.3864,6.4706,6.488,6.4996,6.4996,6.4996,6.4996,6.4996,6.4996,6.4996,6.4996,6.4996,6.5257,6.5664,6.5867,6.6506,6.7318,7.645,7.7188,7.7827,7.8001,7.893,7.9743,7.9888,8.0468,8.0846,8.0846,8.1223,8.1484,8.1484,8.1484,8.1397,8.1223,8.1572,8.1397,8.0381,8.0643,8.0701,8.0323,7.9307,7.864,7.8407,7.7362,7.6114,7.4692,7.3298,7.115,6.8305,6.7841,6.7522,6.7405,6.8218,6.8799,6.9263,7.0541,7.1295,7.1731,7.2631,7.2834,7.2631,7.2892,7.2834,7.2602,7.2602,7.2602,7.2602,7.2602,7.2602,7.2573,7.234,7.1731,7.1121,7.1266,7.0599,6.9815,6.996,6.9728,6.9321,6.8915,6.8538,6.8102,6.7609,6.668,6.5867,6.5635,6.5257,6.4996,6.4996,6.3951,6.308,6.308,6.1687,6.0438,6.0061,0.0,0.0,0.0,0.0,5.5877,5.5447,5.4232,5.3501,0.0,0.0,0.0,5.2686,5.3717,5.4831,5.6037,5.8744,6.0052,5.9696,6.1322,6.2325,6.2848,6.3893,6.459,6.4996,6.4996,6.4996,6.4996,6.4996,6.4996,6.4996,6.4996,6.4996,6.4996,6.4996,6.5373,6.5954,6.6186,6.697,6.7899,7.6462,7.7478,7.8146,7.7566,7.8988,8.0033,7.9452,7.9888,8.0294,8.0294,8.0294,8.0294,8.0294,8.0294,8.0527,8.1078,8.1136,8.0904,8.0323,8.0294,8.0294,8.0294,7.9627,7.8959,7.8407,7.7711,7.7043,7.6538,7.4024,7.2195,7.0947,6.9786,6.9525,7.0047,7.0076,7.0105,7.0192,7.1353,7.1847,7.1905,7.3124,7.3211,7.2689,7.3298,7.3182,7.2689,7.2631,7.266,7.2689,7.2631,7.2602,7.2515,7.1934,7.1702,7.1557,7.0918,7.0308,6.9699,6.906,6.8886,6.8886,6.8828,6.8828,6.8509,6.7289,6.6535,6.5896,6.5257,6.5083,6.5025,6.4996,6.398,6.3138,6.3109,6.2064,6.1222,6.1135,0.0,0.0,0.0,0.0,5.5699,5.5669,5.5192,5.5339,0.0,0.0,0.0,0.0,0.0,5.5885,6.0028,6.0234,6.0843,6.2029,6.2148,6.2848,6.4125,6.4706,6.4996,6.4996,6.4996,6.4996,6.4996,6.4996,6.4996,6.4996,6.4996,6.4996,6.4996,6.4996,6.5402,6.607,6.6651,6.7347,6.8044,7.6208,7.7101,7.774,7.8117,7.893,7.9656,8.0004,8.0207,8.0294,8.0294,8.0294,8.0294,8.0294,8.0294,8.0352,8.0497,8.0497,8.0439,8.0323,8.0294,8.0294,8.0294,7.922,7.8553,7.8407,7.7275,7.6608,7.6538,7.5359,7.4401,7.3618,7.3298,7.3008,7.2718,7.3182,7.3385,7.3414,7.3705,7.356,7.3182,7.3501,7.3211,7.2631,7.2805,7.3066,7.3327,7.2805,7.295,7.3298,7.2776,7.2602,7.2602,7.2427,7.205,7.1557,7.0918,7.0628,7.0366,6.9728,6.9554,6.9437,6.8944,6.8828,6.8741,6.845,6.787,6.7231,6.6564,6.6041,6.5577,6.5083,6.4357,6.3661,6.3167,6.2412,6.1542,6.0584,6.0177,0.0,0.0,5.858,5.8407,5.8407,5.8263,5.7856,0.0,0.0,5.6904,5.6486,5.7388,5.8295,5.9267,6.0822,6.1516,6.1168,6.2721,6.398,6.4764,6.4909,6.4996,6.4996,6.4996,6.4996,6.4996,6.4996,6.4996,6.4996,6.4996,6.4996,6.4996,6.4996,6.5664,6.668,6.6825,6.7609,6.8683,7.4294,7.5183,7.583,7.5915,7.6647,7.759,7.8477,7.8843,7.9364,8.0215,8.0294,8.0294,8.0294,8.0294,8.0294,8.0294,8.0294,8.0294,8.0294,8.0294,8.0294,8.0294,7.9075,7.8407,7.8407,7.713,7.6538,7.6538,7.6114,7.5766,7.5388,7.5098,7.4808,7.4488,7.4488,7.4518,7.4518,7.4518,7.4169,7.3676,7.4256,7.3734,7.2689,7.3269,7.3356,7.3124,7.2747,7.2834,7.3095,7.2747,7.2602,7.2602,7.2602,7.2398,7.1992,7.1324,7.0947,7.057,6.9931,6.9786,6.9699,6.935,6.9031,6.8828,6.8828,6.8334,6.7609,6.6651,6.6157,6.5751,6.5112,6.4473,6.3835,6.3196,6.2529,6.1745,6.0787,6.038,6.009,5.9742,5.9713,5.9829,6.0148,6.0177,5.9967,5.9569,5.9251,0.0,5.8918,5.9967,6.0199,5.9542,6.1504,6.2476,6.2295,6.3746,6.4648,6.4996,6.4996,6.4996,6.4996,6.4996,6.4996,6.4996,6.4996,6.4996,6.4996,6.4996,6.4996,6.4996,6.4996,6.578,6.6883,6.6883,6.7696,6.8915,7.207,7.2992,7.3643,7.3236,7.43,7.5542,7.6254,7.7326,7.8423,7.9711,8.0136,8.0294,8.0294,8.0294,8.0294,8.0294,8.0294,8.0294,8.0294,8.0207,8.0149,8.0149,7.893,7.8262,7.8262,7.7072,7.6538,7.6538,7.6538,7.6538,7.6538,7.5911,7.565,7.5621,7.5069,7.4808,7.4808,7.4808,7.4459,7.3995,7.5069,7.4459,7.3008,7.4111,7.385,7.2892,7.2805,7.2776,7.2747,7.266,7.2602,7.2602,7.2602,7.2602,7.2515,7.1963,7.144,7.086,7.0105,6.9931,6.9902,6.9786,6.9437,6.9118,6.9118,6.8625,6.7841,6.6622,6.6215,6.5867,6.5257,6.4619,6.3951,6.3196,6.2616,6.2006,6.1309,0.0,6.038,6.0467,6.0496,6.0758,6.1425,6.1483,6.1687,6.2209,6.1774,6.1626,6.1935,6.2203,6.1738,6.0456,6.2222,6.3545,6.4183,6.4706,6.4996,6.4996,6.4996,6.4996,6.4996,6.4996,6.4996,6.4996,6.4996,6.4996,6.4996,6.4996,6.4996,6.4996,6.5083,6.5838,6.6883,6.6999,6.7841,6.906,7.1744,7.2749,7.3373,7.3697,7.5683,7.6704,7.5346,7.7851,7.9443,7.818,7.9364,8.0294,8.0294,8.0294,8.0294,8.0294,8.0294,8.0294,8.0294,7.9772,7.9452,7.9452,7.8233,7.7566,7.7566,7.684,7.6538,7.6538,7.6538,7.6538,7.6538,7.6346,7.6317,7.6317,7.6201,7.6172,7.6172,7.6172,7.5795,7.5243,7.5417,7.4982,7.4227,7.443,7.4401,7.414,7.3647,7.3443,7.3385,7.2805,7.2602,7.2602,7.2602,7.2602,7.2602,7.2485,7.2398,7.2079,7.0889,7.057,7.0453,6.9902,7.0105,7.0424,7.0424,6.9931,6.9263,6.8538,6.7492,6.6535,6.5896,6.5257,6.4444,6.3283,6.2993,6.2529,6.1367,0.0,6.1222,6.1745,6.1803,6.2064,6.2732,6.279,6.2848,6.2935,6.2848,6.2294,6.1253,6.2773,6.3089,6.1751,6.3112,6.4183,6.4822,6.4938,6.4996,6.4996,6.4996,6.4996,6.4996,6.4996,6.4996,6.4996,6.4996,6.4996,6.4996,6.4996,6.4996,6.5025,6.5577,6.6244,6.6941,6.7522,6.8538,6.9728,6.9962,7.0732,7.1201,7.1461,7.2419,7.3269,7.3442,7.5707,7.7418,7.7582,7.9204,8.0294,8.0294,8.0294,8.0294,8.0294,8.0294,8.0294,8.0294,8.0004,7.9685,7.9307,7.8436,7.7624,7.6898,7.6608,7.6538,7.6538,7.6538,7.6538,7.6538,7.6538,7.6538,7.6538,7.6538,7.6538,7.6538,7.6538,7.6085,7.5534,7.5882,7.5417,7.4518,7.4518,7.4518,7.443,7.3821,7.3618,7.356,7.3269,7.2921,7.2602,7.2602,7.2602,7.2602,7.2602,7.2369,7.1992,7.1382,7.0976,7.0744,7.0773,7.0773,7.0715,7.0715,7.0221,6.9408,6.8073,6.7289,6.6593,6.5606,6.5199,6.4677,6.3748,6.3603,6.3283,6.2354,6.2209,6.2325,6.2616,6.2616,6.2877,6.3545,6.3603,6.3748,6.4096,6.4125,6.3498,6.2061,6.3565,6.3192,6.0145,6.2997,6.4706,6.4996,6.4996,6.4996,6.4996,6.4996,6.4996,6.4996,6.4996,6.4996,6.4996,6.4996,6.4996,6.4996,6.4996,6.5199,6.5519,6.5809,6.6535,6.7492,6.816,6.8973,6.9931,6.8321,6.8874,6.93,6.9426,6.9786,7.0388,7.1402,7.3442,7.5203,7.6235,7.7908,7.9015,7.9015,7.9443,7.9711,7.9711,8.0057,8.0294,8.0294,8.0294,7.9946,7.9133,7.8349,7.7478,7.6567,7.6538,7.6538,7.6538,7.6538,7.6538,7.6538,7.6538,7.6538,7.6538,7.6538,7.6538,7.6538,7.6538,7.6172,7.5766,7.6259,7.5853,7.4953,7.4953,7.4866,7.4692,7.4227,7.3966,7.3821,7.3821,7.3472,7.3066,7.3066,7.3066,7.3037,7.2892,7.2515,7.205,7.176,7.1411,7.1237,7.1586,7.1411,7.1121,7.0976,7.0453,6.9525,6.7899,6.7318,6.6767,6.5635,6.5315,6.4938,6.4091,0.0,6.3806,6.3167,6.308,6.3138,6.3283,6.3312,6.342,6.3711,6.3705,6.3779,6.398,6.4296,6.4009,6.284,6.4232,6.3422,6.007,6.2603,6.4296,6.4996,6.4996,6.4996,6.4996,6.5141,6.5141,6.4996,6.5141,6.5112,6.4996,6.4996,6.4996,6.4996,6.5141,6.5489,6.5889,6.6273,6.6999,6.7986,6.877,6.9466,7.0163,6.7744,6.8296,6.8848,6.9351,7.0808,7.149,6.9876,7.2576,7.4357,7.2837,7.4186,7.5287,7.5287,7.6815,7.7827,7.7827,7.9364,8.0294,8.0294,8.0294,7.9743,7.8524,7.7275,7.6625,7.6538,7.6538,7.6538,7.6538,7.6538,7.6538,7.6538,7.6538,7.6538,7.6538,7.6538,7.6538,7.6538,7.6538,7.6433,7.6479,7.6508,7.6479,7.6392,7.6392,7.594,7.5417,7.5388,7.4982,7.443,7.443,7.4401,7.4372,7.4372,7.4401,7.4314,7.3705,7.3501,7.3211,7.1992,7.205,7.234,7.1818,7.2079,7.2311,7.1731,7.1092,7.0453,6.9699,6.8625,6.758,6.6883,6.6273,6.5396,6.4178,0.0,0.0,6.3167,6.308,6.3312,6.3893,6.3888,6.3676,6.2925,6.2915,6.232,6.1029,6.2175,6.2906,6.2773,6.4232,6.4839,6.449,6.2203,6.227,6.4996,6.4996,6.4996,6.4996,6.5577,6.5548,6.4996,6.5606,6.5548,6.4996,6.4996,6.4996,6.5025,6.5606,6.5896,6.6041,6.726,6.7783,6.8015,6.9263,7.0105,7.0744,6.8723,6.8999,6.92,6.9311,6.9941,7.0209,6.9516,7.1578,7.301,7.2315,7.3759,7.4866,7.4866,7.5539,7.5957,7.5957,7.6567,7.725,7.7935,7.7645,7.775,7.8359,7.7943,7.7304,7.6567,7.684,7.684,7.6538,7.6538,7.6538,7.6538,7.6538,7.6538,7.6538,7.6538,7.6538,7.6538,7.6538,7.6538,7.6538,7.6538,7.6538,7.6479,7.6027,7.5969,7.6056,7.565,7.5359,7.5127,7.5127,7.4866,7.4518,7.4518,7.4518,7.4401,7.3792,7.3879,7.3966,7.3124,7.3066,7.3066,7.2427,7.2427,7.2456,7.1818,7.1469,7.1005,6.9989,6.9089,6.8276,6.7638,6.697,6.6244,6.528,0.0,6.4996,6.4357,6.427,6.4357,6.459,6.4619,6.4515,6.4203,6.4167,6.3944,6.3357,6.3814,6.3749,6.284,6.2442,6.2669,6.3619,6.2967,6.3525,6.5512,6.5577,6.578,6.6157,6.6418,6.6389,6.6157,6.6418,6.6389,6.6157,6.6157,6.6157,6.6186,6.6418,6.6767,6.7202,6.7696,6.8131,6.8625,6.9902,7.0512,7.086,6.9074,6.9235,6.9361,6.9361,6.9361,6.9361,6.9361,7.0452,7.1314,7.1314,7.2402,7.3183,7.3183,7.3673,7.4015,7.4015,7.4527,7.5207,7.6011,7.6219,7.681,7.804,7.8291,7.7972,7.7101,7.7304,7.7188,7.6753,7.655,7.6538,7.6538,7.6538,7.6538,7.6538,7.6538,7.6538,7.6538,7.6538,7.6538,7.6538,7.6538,7.6538,7.6479,7.5969,7.6085,7.6479,7.5969,7.5795,7.5795,7.5795,7.5504,7.5127,7.5127,7.4982,7.475,7.4343,7.4488,7.4692,7.4053,7.4053,7.3995,7.3153,7.2776,7.2456,7.1818,7.1673,7.1353,7.0308,6.9728,6.9234,6.8596,6.7928,6.7289,6.6651,6.6186,6.5586,6.4735,6.4856,6.4839,6.4361,6.4296,6.4167,6.3684,6.3197,6.2735,6.2242,6.2669,6.2868,6.2773,6.1436,6.1586,6.3678,6.3771,6.469,6.6535,6.6331,6.6447,6.6883,6.7086,6.7086,6.6883,6.7115,6.7086,6.6883,6.6883,6.6883,6.6912,6.7115,6.7463,6.7899,6.8102,6.8567,6.9263,7.0337,7.086,7.1179,6.8522,6.9074,6.9361,6.9361,6.9361,6.9361,6.9361,6.9361,6.9361,6.9361,6.9361,6.9361,6.9361,7.1049,7.2167,7.2167,7.3844,7.4866,7.4866,7.6567,7.7491,7.7355,7.8059,7.8407,7.8378,7.774,7.742,7.7391,7.6753,7.6538,7.6538,7.6538,7.6538,7.6538,7.6538,7.6538,7.6538,7.6538,7.6538,7.6538,7.6538,7.6538,7.6538,7.6538,7.6538,7.6538,7.6538,7.6538,7.6538,7.6538,7.6538,7.6538,7.6538,7.6027,7.5534,7.5534,7.5534,7.5388,7.4721,7.5011,7.5214,7.3937,7.3124,7.2456,7.1818,7.1673,7.1498,7.086,7.0744,7.0541,6.9902,6.9263,6.8625,6.7986,6.6796,6.5404,6.4025,6.4503,6.4454,6.3,6.2868,6.2242,6.0756,5.9332,5.7804,5.634,5.759,5.9723,6.2641,6.1436,6.228,6.5766,6.4586,6.5116,6.787,6.7231,6.6883,6.6912,6.758,6.7551,6.6912,6.758,6.7522,6.6883,6.6883,6.6883,6.6941,6.7609,6.7899,6.7957,6.8596,6.9234,6.9873,7.0482,7.1121,7.176,6.91,6.9325,6.9361,6.9361,6.9361,6.9361,6.9361,6.9361,6.9361,6.9361,6.9361,6.9361,6.9361,6.9876,7.0209,7.0209,7.0719,7.1397,7.2256,7.3989,7.5021,7.4961,7.6791,7.7179,7.5846,7.6073,7.6412,7.6753,7.655,7.6538,7.6538,7.6898,7.6898,7.6567,7.6927,7.6869,7.6538,7.6538,7.6538,7.6538,7.6538,7.6538,7.6538,7.6538,7.6538,7.6538,7.6538,7.6538,7.6538,7.6538,7.6538,7.6521,7.6985,7.6985,7.684,7.684,7.7159,7.7391,7.6724,7.6695,7.6433,7.4692,7.3763,7.3269,7.3066,7.266,7.2282,7.2079,7.1702,7.1324,7.115,7.0599,6.996,6.9321,6.8509,6.7678,6.6816,6.6446,6.6172,6.575,6.5281,6.4405,6.2978,6.2022,6.1273,6.0866,6.2565,6.4075,6.4957,6.5031,6.5013,6.5078,6.607,6.6567,6.6367,6.7171,6.7812,6.8247,6.845,6.845,6.8247,6.845,6.8421,6.8247,6.8247,6.8247,6.8276,6.845,6.8799,6.9234,6.9408,6.9873,7.0512,7.115,7.1498,7.176,6.9235,6.9361,6.9361,6.9361,6.9361,6.9361,6.9361,6.9361,6.9361,6.9361,6.9361,6.9361,6.9361,6.9361,6.9361,6.9361,6.9361,7.0057,7.1496,7.2653,7.3251,7.3251,7.4676,7.5268,7.474,7.5607,7.6204,7.651,7.7029,7.7217,7.7217,7.6617,7.6214,7.5765,7.5263,7.4783,7.4521,7.5164,7.5469,7.5573,7.6208,7.6538,7.6538,7.6538,7.6538,7.6538,7.6538,7.6538,7.6538,7.6538,7.6637,7.6898,7.7275,7.7595,7.774,7.7478,7.7885,7.832,7.7914,7.7309,7.655,7.5849,7.5011,7.4139,7.319,7.267,7.2151,7.1206,7.069,7.0351,7.0169,6.9559,6.905,6.8654,6.7665,6.658,6.5628,6.5259,6.4832,6.4259,6.3883,6.3251,6.2425,6.1446,6.109,6.1712,6.2961,6.3931,6.4498,6.4363,6.4467,6.4993,6.6304,6.71,6.7313,6.793,6.845,6.8828,6.8828,6.8944,6.9205,6.8944,6.8973,6.9176,6.8944,6.8828,6.8857,6.9089,6.9437,6.9786,7.0047,7.0541,7.115,7.1528,7.1992,7.2485,6.9235,6.9361,6.9361,6.9361,6.9361,6.9361,6.9361,6.9361,6.9361,6.9361,6.9361,6.9361,6.9361,6.9361,6.9361,6.9361,6.9361,7.012,7.1816,7.1992,7.1992,7.1992,7.1992,7.275,7.4357,7.5517,7.6166,7.63,7.7335,7.7915,7.7886,7.5695,7.4647,7.4428,7.2389,7.1392,7.1445,7.3141,7.3873,7.4028,7.5801,7.6538,7.6538,7.6538,7.6567,7.6521,7.6567,7.6521,7.6637,7.6457,7.6938,7.7402,7.7097,7.7713,7.8272,7.7357,7.7723,7.8321,7.8166,7.6956,7.6017,7.7011,7.6428,7.5104,7.2887,7.2206,7.1498,6.9593,6.907,6.8748,6.8122,6.7425,6.6921,6.6866,6.5356,6.3734,6.2426,6.245,6.2059,6.0717,6.0394,6.0315,6.0117,5.882,5.8597,6.0044,6.0533,6.1209,6.2476,6.155,6.2391,6.5529,6.5875,6.7199,6.967,6.9118,6.8857,6.8915,6.8857,6.9147,6.9757,6.9176,6.9234,6.9757,6.9234,6.8944,6.8886,6.9525,6.9815,6.9931,7.0512,7.115,7.176,7.176,7.2515,7.3531,6.9235,6.9361,6.9361,6.9361,6.9361,6.9361,6.9361,6.9361,6.9361,6.9361,6.9361,6.9361,6.9361,6.9361,6.9361,6.9361,6.9361,6.9606,6.9941,7.003,7.003,7.003,7.003,7.0209,7.0541,7.1765,7.2831,7.3787,7.406,7.4168,7.4195,7.4116,7.3568,7.2667,7.2696,7.2179,7.1445,7.3141,7.3873,7.4028,7.5801,7.6538,7.6538,7.6538,7.6753,7.713,7.6637,7.713,7.7742,7.6337,7.6919,7.7684,7.4891,7.6379,7.85,7.5588,7.6168,7.7432,7.6013,7.6063,7.6369,7.6097,7.651,7.6735,7.5797,7.369,7.2358,7.3764,7.2566,7.1094,7.0453,6.917,6.8082,6.7593,6.6731,6.6039,6.5765,6.4937,6.4327,6.3961,6.3081,6.1897,6.0315,5.9435,5.9238,6.0091,6.2719,6.4131,6.3668,6.574,6.6955,6.6918,6.7707,6.8373,6.9031,6.8886,6.906,6.9554,6.906,6.9147,6.9786,6.9641,6.9641,6.9786,7.0163,6.9728,6.8886,6.9525,7.0076,7.0541,7.0657,7.1411,7.2398,7.2398,7.2602,7.2979,6.9285,6.9361,6.9361,6.9361,6.9361,6.9361,6.9361,6.9361,6.9361,6.9361,6.9361,6.9361,6.9361,6.9361,6.9361,6.9361,6.9361,6.9361,6.9361,6.9361,6.9361,6.9361,6.9361,6.9361,6.9361,7.0019,7.107,7.2595,7.344,7.3943,7.3859,7.2778,7.1987,7.129,7.0215,6.959,6.9359,7.1067,7.1962,7.2369,7.3777,7.4372,7.4344,7.4141,7.4225,7.4507,7.44,7.5019,7.5704,7.5096,7.5423,7.5936,7.4115,7.5759,7.8015,7.587,7.6995,7.8693,7.7745,7.7023,7.6703,7.7247,7.6362,7.534,7.5287,7.4011,7.2917,7.3099,7.2154,7.0777,6.907,6.8322,6.7296,6.5634,6.511,6.4822,6.456,6.4175,6.399,6.4332,6.3907,6.329,6.2198,6.2723,6.3262,6.356,6.5637,6.6635,6.6153,6.7665,6.8398,6.7831,6.8797,6.9583,7.0192,6.9583,6.9757,7.0657,6.9728,6.9757,7.0657,7.0366,7.0395,7.0686,7.0715,7.0337,6.9786,7.0424,7.0889,7.1208,7.1498,7.2021,7.2602,7.2602,7.3008,7.3676,6.9361,6.9361,6.9361,6.9361,6.9361,6.9361,6.9361,6.9361,6.9361,6.9361,6.9361,6.9361,6.9361,6.9361,6.9476,6.9577,6.9501,6.9361,6.9361,6.9361,6.9361,6.9361,6.9526,6.9551,6.9361,6.9526,7.0311,7.1728,7.3269,7.393,7.3903,7.1327,7.0144,6.9902,6.738,6.6538,6.7139,6.8739,6.9677,7.0317,7.1522,7.1935,7.1881,7.1474,7.1338,7.1501,7.1908,7.2558,7.318,7.3524,7.3797,7.3938,7.3184,7.4825,7.6811,7.5926,7.7344,7.9191,7.9191,7.7638,7.6377,7.79,7.5523,7.2995,7.3563,7.379,7.3229,7.1358,7.0689,6.9723,6.7237,6.6985,6.6197,6.3546,6.3099,6.2873,6.2245,6.2401,6.2741,6.3259,6.3408,6.3707,6.4081,6.5626,6.6652,6.6735,6.7813,6.8221,6.7724,6.8393,6.8753,6.855,6.9458,7.0453,7.1498,7.0453,7.0512,7.1673,7.0599,7.0657,7.1644,7.1121,7.1179,7.1644,7.1237,7.0918,7.0773,7.1411,7.1673,7.1731,7.2253,7.2515,7.2602,7.2602,7.3356,7.4459,6.9361,6.9361,6.9361,6.9361,6.9361,6.9361,6.9361,6.9361,6.9361,6.9361,6.9361,6.9361,6.9361,6.9361,6.9627,7.0104,6.9727,6.9361,6.9361,6.9361,6.9361,6.9361,6.9903,6.9928,6.9451,6.9903,7.0085,6.9786,7.003,7.012,7.012,6.9219,6.86,6.8095,6.7228,6.6915,6.7114,6.83,6.9135,6.9716,7.0905,7.1419,7.1392,7.1311,7.169,7.2179,7.2152,7.2829,7.3635,7.2693,7.348,7.4168,7.0442,7.1675,7.4135,7.2479,7.3353,7.4828,7.4773,7.4169,7.3623,7.3787,7.2695,7.1853,7.2913,7.3186,7.3159,7.2831,7.1507,7.0146,6.9213,6.7972,6.6455,6.4588,6.4254,6.3877,6.2847,6.2331,6.2114,6.2189,6.1416,6.1582,6.3483,6.3548,6.357,6.4046,6.6771,6.7442,6.5125,6.8473,7.0005,6.9096,7.0089,7.0686,7.086,7.0686,7.0947,7.1673,7.1498,7.1498,7.1673,7.1586,7.1586,7.1702,7.2166,7.1731,7.0773,7.1411,7.1673,7.1673,7.176,7.2137,7.2602,7.2602,7.3095,7.3821,6.9361,6.9361,6.9361,6.9361,6.9361,6.9361,6.9361,6.9361,6.9361,6.9361,6.9702,6.9777,6.9476,6.9361,6.9652,7.0204,6.9752,6.9361,6.9361,6.9361,6.9361,6.9361,6.9677,6.9702,6.9451,6.9677,6.9702,6.9361,6.9361,6.9361,6.9336,6.8572,6.8196,6.8221,6.7015,6.7015,6.7932,6.8112,6.8713,6.9454,6.973,6.9631,6.9345,6.9345,6.9319,6.9404,6.9631,7.0256,7.0836,7.0332,7.0761,7.1112,6.9561,7.0839,7.2871,7.2035,7.2888,7.4026,7.3943,7.3292,7.2777,7.302,7.2451,7.1691,7.124,7.1389,7.1857,7.2394,7.1928,7.0827,6.9354,6.898,6.8125,6.578,6.595,6.569,6.4018,6.4286,6.4532,6.4191,6.4008,6.4157,6.4736,6.4968,6.5506,6.6624,6.8419,6.9269,6.9078,7.0779,7.1522,7.1108,7.1204,7.1411,7.1789,7.144,7.1557,7.2195,7.2195,7.2195,7.2195,7.2195,7.2195,7.2224,7.2485,7.2282,7.1789,7.2079,7.2195,7.2195,7.2195,7.2369,7.266,7.3037,7.3356,7.3705]}]]